[[{"header":{"parameterUnit":"m.s-1","parameterCategory":1,"la1":31.0,"la2":29.5877,"lo1":-88.7671,"lo2":-86.6584,"dy":0.0162,"dx":0.0185,"nx":115,"ny":88,"refTime":"2026-04-07T12:00:00:Z","depth":0,"parameterNumber":2,"parameterNumberName":"U-component_of_WINDS"},"data":[0.0,0.0,0.0,0.0,0.0,0.0,0.0,0.0,0.0,0.0,0.0,0.0,0.0,0.0,0.0,0.0,0.0,0.0,0.0,0.0,0.0,0.0,0.0,0.0,0.0,0.0,0.0,0.0,0.0,0.0,0.0,0.0,0.0,0.0,0.0,0.0,0.0,0.0,0.0,0.0,0.0,0.0,0.0,0.0,0.0,0.0,0.0,0.0,0.0,0.0,0.0,0.0,0.0,0.0,0.0,0.0,0.0,0.0,0.0,0.0,0.0,0.0,0.0,0.0,0.0,0.0,0.0,0.0,0.0,0.0,0.0,0.0,0.0,0.0,0.0,0.0,0.0,0.0,0.0,0.0,0.0,0.0,0.0,0.0,0.0,0.0,0.0,0.0,0.0,0.0,0.0,0.0,0.0,0.0,0.0,0.0,0.0,0.0,0.0,0.0,0.0,0.0,0.0,0.0,0.0,0.0,0.0,0.0,0.0,0.0,0.0,0.0,0.0,0.0,0.0,0.0,0.0,0.0,0.0,0.0,0.0,0.0,0.0,0.0,0.0,0.0,0.0,0.0,0.0,0.0,0.0,0.0,0.0,0.0,0.0,0.0,0.0,0.0,0.0,0.0,0.0,0.0,0.0,0.0,0.0,0.0,0.0,0.0,0.0,0.0,0.0,0.0,0.0,0.0,0.0,0.0,0.0,0.0,0.0,0.0,0.0,0.0,0.0,0.0,0.0,0.0,0.0,0.0,0.0,0.0,0.0,0.0,0.0,0.0,0.0,0.0,0.0,0.0,0.0,0.0,0.0,0.0,0.0,0.0,0.0,0.0,0.0,0.0,0.0,0.0,0.0,0.0,0.0,0.0,0.0,0.0,0.0,0.0,0.0,0.0,0.0,0.0,0.0,0.0,0.0,0.0,0.0,0.0,0.0,0.0,0.0,0.0,0.0,0.0,0.0,0.0,0.0,0.0,0.0,0.0,0.0,0.0,0.0,0.0,0.0,0.0,0.0,0.0,0.0,0.0,0.0,0.0,0.0,0.0,0.0,0.0,0.0,0.0,0.0,0.0,0.0,0.0,0.0,0.0,0.0,0.0,0.0,0.0,0.0,0.0,0.0,0.0,0.0,0.0,0.0,0.0,0.0,0.0,0.0,0.0,0.0,0.0,0.0,0.0,0.0,0.0,0.0,0.0,0.0,0.0,0.0,0.0,0.0,0.0,0.0,0.0,0.0,0.0,0.0,0.0,0.0,0.0,0.0,0.0,0.0,0.0,0.0,0.0,0.0,0.0,0.0,0.0,0.0,0.0,0.0,0.0,0.0,0.0,0.0,0.0,0.0,0.0,0.0,0.0,0.0,0.0,0.0,0.0,0.0,0.0,0.0,0.0,0.0,0.0,0.0,0.0,0.0,0.0,0.0,0.0,0.0,0.0,0.0,0.0,0.0,0.0,0.0,0.0,0.0,0.0,0.0,0.0,0.0,0.0,0.0,0.0,0.0,0.0,0.0,0.0,0.0,0.0,0.0,0.0,0.0,0.0,0.0,0.0,0.0,0.0,0.0,0.0,0.0,0.0,0.0,0.0,0.0,0.0,0.0,0.0,0.0,0.0,0.0,0.0,0.0,0.0,0.0,0.0,0.0,0.0,0.0,0.0,0.0,0.0,0.0,0.0,0.0,0.0,0.0,0.0,0.0,0.0,0.0,0.0,0.0,0.0,0.0,0.0,0.0,0.0,0.0,0.0,0.0,0.0,0.0,0.0,0.0,0.0,0.0,0.0,0.0,0.0,0.0,0.0,0.0,0.0,0.0,0.0,0.0,0.0,0.0,0.0,0.0,0.0,0.0,0.0,0.0,0.0,0.0,0.0,0.0,0.0,0.0,0.0,0.0,0.0,0.0,0.0,0.0,0.0,0.0,0.0,0.0,0.0,0.0,0.0,0.0,0.0,0.0,0.0,0.0,0.0,0.0,0.0,0.0,0.0,0.0,0.0,0.0,0.0,0.0,0.0,0.0,0.0,0.0,0.0,0.0,0.0,0.0,0.0,0.0,0.0,0.0,0.0,0.0,0.0,0.0,0.0,0.0,0.0,0.0,0.0,0.0,0.0,0.0,0.0,0.0,0.0,0.0,0.0,0.0,0.0,0.0,0.0,0.0,0.0,0.0,0.0,0.0,0.0,0.0,0.0,0.0,0.0,0.0,0.0,0.0,0.0,0.0,0.0,0.0,0.0,0.0,0.0,0.0,0.0,0.0,0.0,0.0,0.0,0.0,0.0,0.0,0.0,0.0,0.0,0.0,0.0,0.0,0.0,0.0,0.0,0.0,0.0,0.0,0.0,0.0,0.0,0.0,0.0,0.0,0.0,0.0,0.0,0.0,0.0,0.0,0.0,0.0,0.0,0.0,0.0,0.0,0.0,0.0,0.0,0.0,0.0,0.0,0.0,0.0,0.0,0.0,0.0,0.0,0.0,0.0,0.0,0.0,0.0,0.0,0.0,0.0,0.0,0.0,0.0,0.0,0.0,0.0,0.0,0.0,0.0,0.0,0.0,0.0,0.0,0.0,0.0,0.0,0.0,0.0,0.0,0.0,0.0,0.0,0.0,0.0,0.0,0.0,0.0,0.0,0.0,0.0,0.0,0.0,0.0,0.0,0.0,0.0,0.0,0.0,0.0,0.0,0.0,0.0,0.0,0.0,0.0,0.0,0.0,0.0,0.0,0.0,0.0,0.0,0.0,0.0,0.0,0.0,0.0,0.0,0.0,0.0,0.0,0.0,0.0,0.0,0.0,0.0,0.0,0.0,0.0,0.0,0.0,0.0,0.0,0.0,0.0,0.0,0.0,0.0,0.0,0.0,0.0,0.0,0.0,0.0,0.0,0.0,0.0,0.0,0.0,0.0,0.0,0.0,0.0,0.0,0.0,0.0,0.0,0.0,0.0,0.0,0.0,0.0,0.0,0.0,0.0,0.0,0.0,0.0,0.0,0.0,0.0,0.0,0.0,0.0,0.0,0.0,0.0,0.0,0.0,0.0,0.0,0.0,0.0,0.0,0.0,0.0,0.0,0.0,0.0,0.0,0.0,0.0,0.0,0.0,0.0,0.0,0.0,0.0,0.0,0.0,0.0,0.0,0.0,0.0,0.0,0.0,0.0,0.0,0.0,0.0,0.0,0.0,0.0,0.0,0.0,0.0,0.0,0.0,0.0,0.0,0.0,0.0,0.0,0.0,0.0,0.0,0.0,0.0,0.0,0.0,0.0,0.0,0.0,0.0,0.0,0.0,0.0,0.0,0.0,0.0,0.0,0.0,0.0,0.0,0.0,0.0,0.0,0.0,0.0,0.0,0.0,0.0,0.0,0.0,0.0,0.0,0.0,0.0,0.0,0.0,0.0,0.0,0.0,0.0,0.0,0.0,0.0,0.0,0.0,0.0,0.0,0.0,0.0,0.0,0.0,0.0,0.0,0.0,0.0,0.0,0.0,0.0,0.0,0.0,0.0,0.0,0.0,0.0,0.0,0.0,0.0,0.0,0.0,0.0,0.0,0.0,0.0,0.0,0.0,0.0,0.0,0.0,0.0,0.0,0.0,0.0,0.0,0.0,0.0,0.0,0.0,0.0,0.0,0.0,0.0,0.0,0.0,0.0,0.0,0.0,0.0,0.0,0.0,0.0,0.0,0.0,0.0,0.0,0.0,0.0,0.0,0.0,0.0,0.0,0.0,0.0,0.0,0.0,0.0,0.0,0.0,0.0,0.0,0.0,0.0,0.0,0.0,0.0,0.0,0.0,0.0,0.0,0.0,0.0,0.0,0.0,0.0,0.0,0.0,0.0,0.0,0.0,0.0,0.0,0.0,0.0,0.0,0.0,0.0,0.0,0.0,0.0,0.0,0.0,0.0,0.0,0.0,0.0,0.0,0.0,0.0,0.0,0.0,0.0,0.0,0.0,0.0,0.0,0.0,0.0,0.0,0.0,0.0,0.0,0.0,0.0,0.0,0.0,0.0,0.0,0.0,0.0,0.0,0.0,0.0,0.0,0.0,0.0,0.0,0.0,0.0,0.0,0.0,0.0,0.0,0.0,0.0,0.0,0.0,0.0,0.0,0.0,0.0,0.0,0.0,0.0,0.0,0.0,0.0,0.0,0.0,0.0,0.0,0.0,0.0,0.0,0.0,0.0,0.0,0.0,0.0,0.0,0.0,0.0,0.0,0.0,0.0,0.0,0.0,0.0,0.0,0.0,0.0,0.0,0.0,0.0,0.0,0.0,0.0,0.0,0.0,0.0,0.0,0.9171,0.0,0.0,0.0,0.0,0.0,0.0,0.0,0.0,0.0,0.0,0.0,0.0,0.0,0.0,0.0,0.0,0.0,0.0,0.0,0.0,0.0,0.0,0.0,0.0,0.0,0.0,0.0,0.0,0.0,0.0,0.0,0.0,0.0,0.0,0.0,0.0,0.0,0.0,0.0,0.0,0.0,0.0,0.0,0.0,0.0,0.0,0.0,0.0,0.0,0.0,0.0,0.0,0.0,0.0,0.0,0.0,0.0,0.0,0.0,0.0,0.0,0.0,0.0,0.0,0.0,0.0,0.0,0.0,0.0,0.0,0.0,0.0,0.0,0.0,0.0,0.0,0.0,0.0,0.0,0.0,0.0,0.0,0.0,0.0,0.0,0.0,0.0,0.0,0.0,0.0,0.0,0.0,0.0,0.0,0.0,0.0,0.0,0.0,0.0,0.0,0.0,0.0,0.0,0.0,0.0,0.0,0.0,0.0,0.0,0.0,1.1152,1.0526,1.0213,0.9778,0.9216,0.0,0.0,0.0,0.0,0.0,0.0,0.0,0.0,0.0,0.0,0.0,0.0,0.0,0.0,0.0,0.0,0.0,0.0,0.0,0.0,0.0,0.0,0.0,0.0,0.0,0.0,0.0,0.0,0.0,0.0,0.0,0.0,0.0,0.0,0.0,0.0,0.0,0.0,0.0,0.0,0.0,0.0,0.0,0.0,0.0,0.0,0.0,0.0,0.0,0.0,0.0,0.0,0.0,0.0,0.0,0.0,0.0,0.0,0.0,0.0,0.0,0.0,0.0,0.0,0.0,0.0,0.0,0.0,0.0,0.0,0.0,0.0,0.0,0.0,0.0,0.0,0.0,0.0,0.0,0.0,0.0,0.0,0.0,0.0,0.0,0.0,0.0,0.0,0.0,0.0,0.0,0.0,0.0,0.0,0.0,0.0,0.0,0.0,0.0,0.0,0.0,0.0,0.0,0.0,0.0,0.0,0.0,0.0,0.0,0.0,0.0,0.0,1.0406,0.9946,0.933,0.0,0.0,0.0,0.0,0.0,0.0,0.0,0.0,0.0,0.0,0.0,0.0,0.0,0.0,0.0,0.0,0.0,0.0,0.0,0.0,0.0,0.0,0.0,0.0,0.0,0.0,0.0,0.0,0.0,0.0,0.0,0.0,0.0,0.0,0.0,0.0,0.0,0.0,0.0,0.0,0.0,0.0,0.0,0.0,0.0,0.0,0.0,0.0,0.0,0.0,0.0,0.0,0.0,0.0,0.0,0.0,0.0,0.0,0.0,0.0,0.0,0.0,0.0,0.0,0.0,0.0,0.0,0.0,0.0,0.0,0.0,0.0,0.0,0.0,0.0,0.0,0.0,0.0,0.0,0.0,0.0,0.0,0.0,0.0,0.0,0.0,0.0,0.0,0.0,0.0,0.0,0.0,0.0,0.0,0.0,0.0,0.0,0.0,0.0,0.0,0.0,0.0,0.0,0.0,0.0,0.0,0.0,0.0,0.0,0.0,1.1522,1.1,1.0865,0.0,0.962,0.0,0.0,0.0,0.0,0.0,0.0,0.0,0.0,0.0,0.0,0.0,0.0,0.0,0.0,0.0,0.0,0.0,0.0,0.0,0.0,0.0,0.0,0.0,0.0,0.0,0.0,0.0,0.0,0.0,0.0,0.0,0.0,0.0,0.0,0.0,0.0,0.0,0.0,0.0,0.0,0.0,0.0,0.0,0.0,0.0,0.0,0.0,0.0,0.0,0.0,0.0,0.0,0.0,0.0,0.0,0.0,0.0,0.0,0.0,0.0,0.0,0.0,0.0,0.0,0.0,0.0,0.0,0.0,0.0,0.0,0.0,0.0,0.0,0.0,0.0,0.0,0.0,0.0,0.0,0.0,0.0,0.0,0.0,0.0,0.0,0.0,0.0,0.0,0.0,0.0,0.0,0.0,0.0,0.0,0.0,0.0,0.0,0.0,0.0,0.0,0.0,0.0,0.0,0.0,0.0,0.0,0.0,0.0,0.0,0.0,0.0,1.1133,1.0742,1.0336,0.0,0.0,0.0,0.0,0.0,0.0,0.0,0.0,0.0,0.0,0.0,0.0,0.0,0.0,0.0,0.0,0.0,0.0,0.0,0.0,0.0,0.0,0.0,0.0,0.0,0.0,0.0,0.0,0.0,0.0,0.0,0.0,0.0,0.0,0.0,0.0,0.0,0.0,0.0,0.0,0.0,0.0,0.0,0.0,0.0,0.0,0.0,0.0,0.0,0.0,0.0,0.0,0.0,0.0,0.0,0.0,0.0,0.0,0.0,0.0,0.0,0.0,0.0,0.0,0.0,0.0,0.0,0.0,0.0,0.0,0.0,0.0,0.0,0.0,0.0,0.0,0.0,0.0,0.0,0.0,0.0,0.0,0.0,0.0,0.0,0.0,0.0,0.0,0.0,0.0,0.0,0.0,0.0,0.0,0.0,0.0,0.0,0.0,0.0,0.0,0.0,0.0,0.0,0.0,0.0,0.0,0.0,0.0,0.0,0.0,1.205,0.0,1.131,1.0717,1.0312,1.0165,0.0,0.0,0.0,0.0,0.0,0.0,0.0,0.0,0.0,0.0,0.0,0.0,0.0,0.0,0.0,0.0,0.0,0.0,0.0,0.0,0.0,0.0,0.0,0.0,0.0,0.0,0.0,0.0,0.0,0.0,0.0,0.0,0.0,0.0,0.0,0.0,0.0,0.0,0.0,0.0,0.0,0.0,0.0,0.0,0.0,0.0,0.0,0.0,0.0,0.0,0.0,0.0,0.0,0.0,0.0,0.0,0.0,0.0,0.0,0.0,0.0,0.0,0.0,0.0,0.0,0.0,0.0,0.0,0.0,0.0,0.0,0.0,0.0,0.0,0.0,0.0,0.0,0.0,0.0,0.0,0.0,0.0,0.0,0.0,0.0,0.0,0.0,0.0,0.0,0.0,0.0,0.0,0.0,0.0,0.0,0.0,0.0,0.0,0.0,0.0,0.0,0.0,0.0,0.0,0.0,0.0,0.0,0.0,0.0,1.2163,1.1915,1.1581,1.093,1.0585,0.0,0.0,0.0,0.0,0.0,0.0,0.0,0.0,0.0,0.0,0.0,0.0,0.0,0.0,0.0,0.0,0.0,0.0,0.0,0.0,0.0,0.0,0.0,0.0,0.0,0.0,0.0,0.0,0.0,0.0,0.0,0.0,0.0,0.0,0.0,0.0,0.0,0.0,0.0,0.0,0.0,0.0,0.0,0.0,0.0,0.0,0.0,0.0,0.0,0.0,0.0,0.0,0.0,0.0,0.0,0.0,0.0,0.0,0.0,0.0,0.0,0.0,0.0,0.0,0.0,0.0,0.0,0.0,0.0,0.0,0.0,0.0,0.0,0.0,0.0,0.0,0.0,0.0,0.0,0.0,0.0,0.0,0.0,0.0,0.0,0.0,0.0,0.0,0.0,0.0,0.0,0.0,0.0,0.0,0.0,0.0,0.0,0.0,0.0,0.0,0.0,0.0,0.0,0.0,0.0,0.0,0.0,0.0,0.0,1.2353,1.2142,1.1895,1.1617,1.1249,1.09,0.0,0.0,0.0,0.0,0.0,0.0,0.0,0.0,0.0,0.0,0.0,0.0,0.0,0.0,0.0,0.0,0.0,0.0,0.0,0.0,0.0,0.0,0.0,0.0,0.0,0.0,0.0,0.0,0.0,0.0,0.0,0.0,0.0,0.0,0.0,0.0,0.0,0.0,0.0,0.0,0.0,0.0,0.0,0.0,0.0,0.0,0.0,0.0,0.0,0.0,0.0,0.0,0.0,0.0,0.0,0.0,0.0,0.0,0.0,0.0,0.0,0.0,0.0,0.0,0.0,0.0,0.0,0.0,0.0,0.0,0.0,0.0,0.0,0.0,0.0,0.0,0.0,0.0,0.0,0.0,0.0,0.0,0.0,0.0,0.0,0.0,0.0,0.0,0.0,0.0,0.0,0.0,0.0,0.0,0.0,0.0,0.0,0.0,0.0,0.0,0.0,0.0,0.0,0.0,0.0,0.0,0.0,0.0,0.0,1.2731,0.0,1.2164,0.0,1.1705,1.1316,0.0,0.0,0.0,0.0,0.0,0.0,0.0,0.0,0.0,0.0,0.0,0.0,0.0,0.0,0.0,0.0,0.0,0.0,0.0,0.0,0.0,0.0,0.0,0.0,0.0,0.0,0.0,0.0,0.0,0.0,0.0,0.0,0.0,0.0,0.0,0.0,0.0,0.0,0.0,0.0,0.0,0.0,0.0,0.0,0.0,0.0,0.0,0.0,0.0,0.0,0.0,0.0,0.0,0.0,0.0,0.0,0.0,0.0,0.0,0.0,0.0,0.0,0.0,0.0,0.0,0.0,0.0,0.0,0.0,0.0,0.0,0.0,0.0,0.0,0.0,0.0,0.0,0.0,0.0,0.0,0.0,0.0,0.0,0.0,0.0,0.0,0.0,0.0,0.0,0.0,0.0,0.0,0.0,0.0,0.0,0.0,0.0,0.0,0.0,0.0,0.0,0.0,0.0,0.0,0.0,0.0,0.0,0.0,1.3332,1.3387,1.302,1.2779,1.2802,1.2314,1.1848,0.0,0.0,0.0,0.0,0.0,0.0,0.0,0.0,0.0,0.0,0.0,0.0,0.0,0.0,0.0,0.0,0.0,0.0,0.0,0.0,0.0,0.0,0.0,0.0,0.0,0.0,0.0,0.0,0.0,0.0,0.0,0.0,0.0,0.0,0.0,0.0,0.0,0.0,0.0,0.0,0.0,0.0,0.0,0.0,0.0,0.0,0.0,0.0,0.0,0.0,0.0,0.0,0.0,0.0,0.0,0.0,0.0,0.0,0.0,0.0,0.0,0.0,0.0,0.0,0.0,0.0,0.0,0.0,0.0,0.0,0.0,0.0,0.0,0.0,0.0,0.0,0.0,0.0,0.0,0.0,0.0,0.0,0.0,0.0,0.0,0.0,0.0,0.0,0.0,0.0,0.0,0.0,0.0,0.0,0.0,0.0,0.0,0.0,0.0,0.0,0.0,0.0,0.0,0.0,0.0,0.0,0.0,0.0,0.0,1.3688,1.3418,1.3302,1.3319,1.2653,1.2079,0.0,0.0,0.0,0.0,0.0,0.0,0.0,0.0,0.0,0.0,0.0,0.0,0.0,0.0,0.0,0.0,0.0,0.0,0.0,0.0,0.0,0.0,0.0,0.0,0.0,0.0,0.0,0.0,0.0,0.0,0.0,0.0,0.0,0.0,0.0,0.0,0.0,0.0,0.0,0.0,0.0,0.0,0.0,0.0,0.0,0.0,0.0,0.0,0.0,0.0,0.0,0.0,0.0,0.0,0.0,0.0,0.0,0.0,0.0,0.0,0.0,0.0,0.0,0.0,0.0,0.0,0.0,0.0,0.0,0.0,0.0,0.0,0.0,0.0,0.0,0.0,0.0,0.0,0.0,0.0,0.0,0.0,0.0,0.0,0.0,0.0,0.0,0.0,0.0,0.0,0.0,0.0,0.0,0.0,0.0,0.0,0.0,0.0,0.0,0.0,0.0,0.0,0.0,0.0,0.0,0.0,0.0,0.0,0.0,1.5369,1.4851,1.4558,1.4497,1.3838,1.3078,1.2282,0.0,0.0,0.0,0.0,0.0,0.0,0.0,0.0,0.0,0.0,0.0,0.0,0.0,0.0,0.0,0.0,0.0,0.0,0.0,0.0,0.0,0.0,0.0,0.0,0.0,0.0,0.0,0.0,0.0,0.0,0.0,0.0,0.0,0.0,0.0,0.0,0.0,0.0,0.0,0.0,0.0,0.0,0.0,0.0,0.0,0.0,0.0,0.0,0.0,0.0,0.0,0.0,0.0,0.0,0.0,0.0,0.0,0.0,0.0,0.0,0.0,0.0,0.0,0.0,0.0,0.0,0.0,0.0,0.0,0.0,0.0,0.0,0.0,0.0,0.0,0.0,0.0,0.0,0.0,0.0,0.0,0.0,0.0,0.0,0.0,0.0,0.0,0.0,0.0,0.0,0.0,0.0,0.0,0.0,0.0,0.0,0.0,0.0,0.0,0.0,0.0,0.0,0.0,0.0,0.0,0.0,0.0,0.0,1.8144,1.7207,1.6544,1.6182,1.5614,1.47,0.0,0.0,0.0,0.0,0.0,0.0,0.0,0.0,0.0,0.0,0.0,0.0,0.0,0.0,0.0,0.0,0.0,0.0,0.0,0.0,0.0,0.0,0.0,0.0,0.0,0.0,0.0,0.0,0.0,0.0,0.0,0.0,0.0,0.0,0.0,0.0,0.0,0.0,0.0,0.0,0.0,0.0,0.0,0.0,0.0,0.0,0.0,0.0,0.0,0.0,0.0,0.0,0.0,0.0,0.0,0.0,0.0,0.0,0.0,0.0,0.0,0.0,0.0,0.0,0.0,0.0,0.0,0.0,0.0,0.0,0.0,0.0,0.0,0.0,0.0,0.0,0.0,0.0,0.0,0.0,0.0,0.0,0.0,0.0,0.0,0.0,0.0,0.0,0.0,0.0,0.0,0.0,0.0,0.0,0.0,0.0,0.0,0.0,0.0,0.0,0.0,0.0,0.0,0.0,0.0,0.0,0.0,0.0,0.0,1.895,1.9799,1.9593,1.824,1.6698,1.5442,0.0,0.0,0.0,0.0,0.0,0.0,0.0,0.0,0.0,0.0,0.0,0.0,0.0,0.0,0.0,0.0,0.0,0.0,0.0,0.0,0.0,0.0,0.0,0.0,0.0,0.0,0.0,0.0,0.0,0.0,0.0,0.0,0.0,0.0,0.0,0.0,0.0,0.0,0.0,0.0,0.0,0.0,0.0,0.0,0.0,0.0,0.0,0.0,0.0,0.0,0.0,0.0,0.0,0.0,0.0,0.0,0.0,0.0,0.0,0.0,0.0,0.0,0.0,0.0,0.0,0.0,0.0,0.0,0.0,0.0,0.0,0.0,0.0,0.0,0.0,0.0,0.0,0.0,0.0,0.0,0.0,0.0,0.0,0.0,0.0,0.0,0.0,0.0,0.0,0.0,0.0,0.0,0.0,0.0,0.0,0.0,0.0,0.0,0.0,0.0,0.0,0.0,0.0,0.0,0.0,0.0,0.0,0.0,1.9038,2.018,2.1701,2.2089,2.1215,1.8669,1.6747,0.0,0.0,0.0,0.0,0.0,0.0,0.0,0.0,0.0,0.0,0.0,0.0,0.0,0.0,0.0,0.0,0.0,0.0,0.0,0.0,0.0,0.0,0.0,0.0,0.0,0.0,0.0,0.0,0.0,0.0,0.0,0.0,0.0,0.0,0.0,0.0,0.0,0.0,0.0,0.0,0.0,0.0,0.0,0.0,0.0,0.0,0.0,0.0,0.0,0.0,0.0,0.0,0.0,0.0,0.0,0.0,0.0,0.0,0.0,0.0,0.0,0.0,0.0,0.0,0.0,0.0,0.0,0.0,0.0,0.0,0.0,0.0,0.0,0.0,0.0,0.0,0.0,0.0,0.0,0.0,0.0,0.0,0.0,0.0,0.0,0.0,0.0,0.0,0.0,0.0,0.0,0.0,0.0,0.0,0.0,0.0,0.0,0.0,0.0,0.0,0.0,0.0,0.0,0.0,0.0,0.0,0.0,0.0,2.0385,2.1546,2.3108,2.4022,2.4155,2.0896,1.8332,0.0,0.0,0.0,0.0,0.0,0.0,0.0,0.0,0.0,0.0,0.0,0.0,0.0,0.0,0.0,0.0,0.0,0.0,0.0,0.0,0.0,0.0,0.0,0.0,0.0,0.0,0.0,0.0,0.0,0.0,0.0,0.0,0.0,0.0,0.0,0.0,0.0,0.0,0.0,0.0,0.0,0.0,0.0,0.0,0.0,0.0,0.0,0.0,0.0,0.0,0.0,0.0,0.0,0.0,0.0,0.0,0.0,0.0,0.0,0.0,0.0,0.0,0.0,0.0,0.0,0.0,0.0,0.0,0.0,0.0,0.0,0.0,0.0,0.0,0.0,0.0,0.0,0.0,0.0,0.0,0.0,0.0,0.0,0.0,0.0,0.0,0.0,0.0,0.0,0.0,0.0,0.0,0.0,0.0,0.0,0.0,0.0,0.0,0.0,0.0,0.0,0.0,0.0,0.0,0.0,0.0,0.0,0.0,2.1252,2.2492,2.4003,2.4716,2.4506,2.156,1.9371,0.0,0.0,0.0,0.0,0.0,0.0,0.0,0.0,0.0,0.0,0.0,0.0,0.0,0.0,0.0,0.0,0.0,0.0,0.0,0.0,0.0,0.0,0.0,0.0,0.0,0.0,0.0,0.0,0.0,0.0,0.0,0.0,0.0,0.0,0.0,0.0,0.0,0.0,0.0,0.0,0.0,0.0,0.0,0.0,0.0,0.0,0.0,0.0,2.0448,0.0,0.0,0.0,0.0,0.0,0.0,0.0,0.0,0.0,0.0,0.0,0.0,0.0,0.0,0.0,0.0,0.0,0.0,0.0,0.0,0.0,0.0,0.0,0.0,0.0,0.0,0.0,0.0,0.0,0.0,0.0,0.0,0.0,0.0,0.0,0.0,0.0,0.0,0.0,0.0,0.0,0.0,0.0,0.0,0.0,0.0,0.0,0.0,0.0,0.0,0.0,0.0,0.0,0.0,0.0,0.0,0.0,0.0,0.0,2.1701,2.3355,2.4633,2.5211,2.4946,2.2701,2.065,0.0,0.0,0.0,0.0,0.0,0.0,0.0,0.0,0.0,0.0,0.0,0.0,0.0,0.0,0.0,0.0,0.0,0.0,0.0,0.0,0.0,0.0,0.0,0.0,0.0,0.0,0.0,0.0,0.0,0.0,0.0,0.0,0.0,0.0,0.0,0.0,0.0,0.0,0.0,0.0,0.0,0.0,0.0,0.0,0.0,0.0,0.0,0.0,0.0,0.0,0.0,0.0,0.0,0.0,0.0,0.0,0.0,0.0,0.0,0.0,0.0,0.0,0.0,0.0,0.0,0.0,0.0,0.0,0.0,0.0,0.0,0.0,0.0,0.0,0.0,0.0,0.0,0.0,0.0,0.0,0.0,0.0,0.0,0.0,0.0,0.0,0.0,0.0,0.0,0.0,0.0,0.0,0.0,0.0,0.0,0.0,0.0,0.0,0.0,0.0,0.0,0.0,0.0,0.0,0.0,0.0,0.0,2.0017,2.2108,2.4212,2.5146,2.5558,2.5491,2.375,2.1776,1.9588,0.0,0.0,0.0,0.0,0.0,0.0,0.0,0.0,0.0,0.0,0.0,0.0,0.0,0.0,0.0,0.0,0.0,0.0,0.0,0.0,0.0,0.0,0.0,0.0,0.0,0.0,0.0,0.0,0.0,0.0,0.0,0.0,0.0,0.0,0.0,0.0,0.0,0.0,1.8812,1.9598,0.0,0.0,0.0,0.0,0.0,0.0,0.0,0.0,2.2695,0.0,0.0,0.0,0.0,0.0,0.0,0.0,0.0,0.0,0.0,0.0,0.0,0.0,0.0,0.0,0.0,0.0,0.0,0.0,0.0,0.0,0.0,0.0,0.0,0.0,0.0,0.0,0.0,0.0,0.0,0.0,0.0,0.0,0.0,0.0,0.0,0.0,0.0,0.0,0.0,0.0,0.0,0.0,0.0,0.0,0.0,0.0,0.0,0.0,0.0,0.0,0.0,0.0,0.0,0.0,0.0,1.9285,2.0813,2.2913,2.5565,2.5813,2.5772,2.5453,2.375,2.1982,2.0182,0.0,0.0,0.0,0.0,0.0,0.0,0.0,0.0,0.0,0.0,0.0,0.0,0.0,0.0,0.0,0.0,0.0,0.0,0.0,0.0,0.0,0.0,0.0,0.0,0.0,0.0,0.0,0.0,0.0,0.0,0.0,0.0,0.0,0.0,0.0,0.0,0.0,0.0,0.0,2.032,2.0365,0.0,0.0,0.0,0.0,0.0,0.0,0.0,0.0,2.2068,0.0,0.0,0.0,0.0,0.0,0.0,0.0,0.0,0.0,0.0,0.0,0.0,0.0,0.0,0.0,0.0,0.0,0.0,0.0,0.0,0.0,0.0,0.0,0.0,0.0,0.0,0.0,0.0,0.0,0.0,0.0,0.0,0.0,0.0,0.0,0.0,0.0,0.0,0.0,0.0,0.0,0.0,0.0,0.0,0.0,0.0,0.0,0.0,0.0,0.0,0.0,0.0,0.0,0.0,0.0,1.9737,2.17,2.3829,2.6119,2.6225,2.6011,2.5466,2.3931,2.2198,0.0,0.0,0.0,0.0,0.0,0.0,0.0,0.0,0.0,0.0,0.0,0.0,0.0,0.0,0.0,0.0,0.0,0.0,0.0,0.0,0.0,0.0,0.0,0.0,0.0,0.0,0.0,0.0,0.0,0.0,0.0,0.0,0.0,0.0,0.0,0.0,0.0,0.0,0.0,0.0,2.1132,2.1334,2.1891,0.0,0.0,0.0,0.0,0.0,0.0,2.3739,2.2988,0.0,0.0,0.0,0.0,0.0,0.0,0.0,0.0,0.0,0.0,0.0,0.0,0.0,0.0,0.0,0.0,0.0,0.0,0.0,0.0,0.0,0.0,0.0,0.0,0.0,0.0,0.0,0.0,0.0,0.0,0.0,0.0,0.0,0.0,0.0,0.0,0.0,0.0,0.0,0.0,0.0,0.0,0.0,0.0,0.0,0.0,0.0,0.0,0.0,0.0,0.0,0.0,0.0,0.0,0.0,2.0086,2.2481,2.4568,2.6293,2.64,2.6106,2.5504,2.3885,2.2177,0.0,0.0,0.0,0.0,0.0,0.0,0.0,0.0,0.0,0.0,0.0,0.0,0.0,0.0,0.0,0.0,0.0,0.0,0.0,0.0,0.0,0.0,0.0,0.0,0.0,0.0,0.0,0.0,0.0,0.0,0.0,0.0,0.0,0.0,0.0,0.0,0.0,0.0,0.0,0.0,0.0,2.2395,2.3006,2.2975,0.0,0.0,0.0,0.0,2.55,2.4632,0.0,0.0,0.0,0.0,0.0,0.0,0.0,0.0,0.0,0.0,0.0,0.0,0.0,0.0,0.0,0.0,0.0,0.0,0.0,0.0,0.0,0.0,0.0,0.0,0.0,0.0,0.0,0.0,0.0,0.0,0.0,0.0,0.0,0.0,0.0,0.0,0.0,0.0,0.0,0.0,0.0,0.0,0.0,0.0,0.0,0.0,0.0,0.0,0.0,0.0,0.0,0.0,0.0,0.0,0.0,0.0,2.0421,2.2729,2.4763,2.6293,2.64,2.6106,2.5504,2.3252,2.1517,0.0,0.0,0.0,0.0,0.0,0.0,0.0,0.0,0.0,0.0,0.0,0.0,0.0,0.0,0.0,0.0,0.0,0.0,0.0,0.0,0.0,0.0,0.0,0.0,0.0,0.0,0.0,0.0,0.0,0.0,0.0,0.0,0.0,0.0,0.0,0.0,0.0,0.0,0.0,0.0,0.0,2.307,2.361,2.3201,2.2836,0.0,0.0,2.3679,2.6115,2.5577,0.0,0.0,0.0,0.0,0.0,0.0,0.0,0.0,0.0,0.0,0.0,0.0,0.0,0.0,0.0,0.0,0.0,0.0,0.0,0.0,0.0,0.0,0.0,0.0,0.0,0.0,0.0,0.0,0.0,0.0,0.0,0.0,0.0,0.0,0.0,0.0,0.0,0.0,0.0,0.0,0.0,0.0,0.0,0.0,0.0,0.0,0.0,0.0,0.0,0.0,0.0,0.0,0.0,0.0,0.0,1.9026,2.0766,2.3639,2.5554,2.6373,2.64,2.6186,2.581,2.3398,2.1616,0.0,0.0,0.0,0.0,0.0,0.0,0.0,0.0,0.0,0.0,0.0,0.0,0.0,0.0,0.0,0.0,0.0,0.0,0.0,0.0,0.0,0.0,0.0,0.0,0.0,0.0,0.0,0.0,0.0,0.0,0.0,0.0,0.0,0.0,0.0,0.0,0.0,0.0,0.0,0.0,0.0,0.0,2.4358,2.4525,0.0,0.0,0.0,2.5019,2.6114,0.0,0.0,0.0,0.0,0.0,0.0,0.0,0.0,0.0,0.0,0.0,0.0,0.0,0.0,0.0,0.0,0.0,0.0,0.0,0.0,0.0,0.0,0.0,0.0,0.0,0.0,0.0,0.0,0.0,0.0,0.0,0.0,0.0,0.0,0.0,0.0,0.0,0.0,0.0,0.0,0.0,0.0,0.0,0.0,0.0,0.0,0.0,0.0,0.0,0.0,0.0,0.0,0.0,0.0,0.0,0.0,0.0,2.1148,2.4402,2.6238,2.648,2.6426,2.6292,2.5971,2.3833,0.0,0.0,0.0,0.0,0.0,0.0,0.0,0.0,0.0,0.0,0.0,0.0,0.0,0.0,0.0,0.0,0.0,0.0,0.0,0.0,0.0,0.0,0.0,0.0,0.0,0.0,0.0,1.5306,0.0,0.0,0.0,0.0,0.0,0.0,0.0,0.0,0.0,0.0,0.0,0.0,0.0,0.0,2.5425,2.5341,2.5931,2.616,0.0,0.0,2.633,2.638,2.6897,2.6563,0.0,0.0,0.0,0.0,0.0,0.0,0.0,0.0,0.0,0.0,0.0,0.0,0.0,0.0,0.0,0.0,0.0,0.0,0.0,0.0,0.0,0.0,0.0,0.0,0.0,0.0,0.0,0.0,0.0,0.0,0.0,0.0,0.0,0.0,0.0,0.0,0.0,0.0,0.0,0.0,0.0,0.0,0.0,0.0,0.0,0.0,0.0,0.0,0.0,0.0,0.0,0.0,0.0,0.0,0.0,2.1785,2.4802,2.6507,2.6774,2.6533,2.6253,2.5984,2.4459,2.2954,0.0,0.0,0.0,0.0,0.0,0.0,0.0,0.0,0.0,0.0,0.0,0.0,0.0,0.0,0.0,0.0,0.0,0.0,0.0,0.0,0.0,0.0,0.0,0.0,0.0,0.0,0.0,0.0,0.0,0.0,0.0,0.0,0.0,0.0,0.0,0.0,0.0,0.0,0.0,0.0,0.0,2.6523,2.6808,2.7051,2.7269,0.0,0.0,2.7216,2.7243,2.8382,2.8312,2.5462,0.0,0.0,0.0,0.0,0.0,0.0,0.0,0.0,0.0,0.0,0.0,0.0,0.0,0.0,0.0,0.0,0.0,0.0,0.0,0.0,0.0,0.0,0.0,0.0,0.0,0.0,0.0,0.0,0.0,0.0,0.0,0.0,0.0,0.0,0.0,0.0,0.0,0.0,0.0,0.0,0.0,0.0,0.0,0.0,0.0,0.0,0.0,0.0,0.0,0.0,0.0,0.0,0.0,2.0375,2.197,2.5062,2.68,2.7068,2.6814,2.66,2.6493,2.4831,2.3268,0.0,0.0,0.0,0.0,0.0,0.0,0.0,0.0,0.0,0.0,0.0,0.0,0.0,0.0,0.0,0.0,0.0,0.0,0.0,0.0,0.0,0.0,0.0,0.0,0.0,0.0,0.0,0.0,1.948,1.9926,2.0095,0.0,0.0,0.0,0.0,0.0,0.0,0.0,0.0,0.0,0.0,2.7487,2.7766,2.8122,0.0,0.0,2.847,2.8473,2.7924,2.8486,2.8123,2.5732,2.4596,0.0,0.0,0.0,0.0,0.0,0.0,0.0,0.0,0.0,0.0,0.0,0.0,0.0,0.0,0.0,0.0,0.0,0.0,0.0,0.0,0.0,0.0,0.0,0.0,0.0,0.0,0.0,0.0,0.0,0.0,0.0,0.0,0.0,0.0,0.0,0.0,0.0,0.0,0.0,0.0,0.0,0.0,0.0,0.0,0.0,0.0,0.0,0.0,0.0,0.0,0.0,0.0,2.0649,2.2472,2.5309,2.7054,2.7563,2.7148,2.6947,2.6921,2.5566,2.4109,0.0,0.0,0.0,0.0,0.0,0.0,0.0,0.0,0.0,0.0,0.0,0.0,0.0,0.0,0.0,0.0,0.0,0.0,0.0,0.0,0.0,0.0,0.0,0.0,0.0,0.0,0.0,0.0,2.0064,2.0197,1.9978,0.0,0.0,0.0,0.0,0.0,0.0,0.0,0.0,0.0,0.0,2.8342,2.8586,2.8974,2.9101,2.864,2.8885,2.892,2.8155,2.8205,2.7759,2.5977,0.0,0.0,0.0,0.0,0.0,0.0,0.0,0.0,0.0,0.0,0.0,0.0,0.0,0.0,0.0,0.0,0.0,0.0,0.0,0.0,0.0,0.0,0.0,0.0,0.0,0.0,0.0,1.4308,0.0,0.0,1.2771,0.0,0.0,0.0,0.0,0.0,0.0,0.0,0.0,0.0,0.0,0.0,0.0,0.0,0.0,0.0,0.0,0.0,0.0,0.0,0.0,0.0,0.0,2.0924,2.3369,2.566,2.7255,2.8125,2.7603,2.7309,2.7296,2.6667,2.5651,2.4119,0.0,0.0,0.0,0.0,0.0,0.0,0.0,0.0,0.0,0.0,0.0,0.0,0.0,0.0,0.0,0.0,0.0,0.0,0.0,0.0,0.0,0.0,0.0,0.0,0.0,0.0,1.9167,1.9286,1.925,0.0,0.0,0.0,0.0,0.0,0.0,0.0,0.0,0.0,0.0,2.8025,2.9125,2.9238,2.9597,2.9528,2.8687,2.8504,2.826,2.7828,2.7741,2.7354,0.0,0.0,0.0,0.0,0.0,0.0,0.0,0.0,0.0,0.0,0.0,0.0,0.0,0.0,0.0,0.0,0.0,0.0,0.0,0.0,0.0,0.0,0.0,0.0,0.0,0.0,0.0,1.7269,1.6887,0.0,0.0,0.0,0.0,0.0,0.0,0.0,0.0,0.0,0.0,0.0,2.1841,2.1841,0.0,0.0,0.0,0.0,0.0,0.0,0.0,0.0,0.0,0.0,0.0,0.0,2.1412,2.3418,2.626,2.8085,2.8698,2.8205,2.7898,2.7884,2.7094,2.5718,2.3674,0.0,0.0,0.0,0.0,0.0,0.0,0.0,0.0,0.0,0.0,0.0,0.0,0.0,0.0,0.0,0.0,0.0,0.0,0.0,0.0,0.0,0.0,0.0,0.0,0.0,1.9386,0.0,0.0,0.0,0.0,0.0,0.0,0.0,0.0,0.0,0.0,0.0,2.5948,2.7487,2.8259,2.8895,2.9407,2.9371,2.9384,0.0,0.0,0.0,0.0,0.0,0.0,0.0,0.0,0.0,0.0,0.0,0.0,0.0,0.0,2.6789,2.5067,2.5066,2.5354,2.5456,0.0,0.0,0.0,0.0,0.0,0.0,0.0,0.0,0.0,0.0,0.0,0.0,0.0,0.0,1.9682,0.0,1.9044,0.0,0.0,0.0,0.0,0.0,0.0,0.0,0.0,2.1642,2.2905,2.4287,2.3529,2.3417,0.0,2.2978,2.1192,0.0,0.0,0.0,0.0,0.0,0.0,0.0,0.0,2.2145,2.4004,2.6835,2.8634,2.9138,2.8711,2.8457,2.8473,2.7495,2.6026,2.4008,2.2432,2.1056,0.0,0.0,0.0,0.0,0.0,0.0,0.0,0.0,0.0,0.0,0.0,0.0,0.0,0.0,0.0,0.0,0.0,0.0,0.0,0.0,0.0,0.0,0.0,2.0313,0.0,0.0,0.0,0.0,0.0,0.0,0.0,0.0,0.0,2.4707,2.568,2.686,2.8343,2.8848,2.906,2.9099,0.0,0.0,0.0,0.0,0.0,0.0,0.0,2.8199,2.7952,2.7978,2.83,2.9276,2.9835,3.0257,3.0271,0.0,0.0,2.7429,2.7226,2.7486,2.76,2.8111,2.8594,2.8766,2.9587,3.0226,0.0,0.0,0.0,0.0,0.0,0.0,0.0,0.0,2.2219,2.1823,0.0,2.1186,0.0,0.0,0.0,0.0,0.0,1.9611,0.0,0.0,2.3102,2.4339,2.5895,2.3809,2.3874,2.5764,2.4907,2.4239,2.3608,2.0468,0.0,0.0,0.0,0.0,0.0,0.0,2.3115,2.5107,2.7441,2.8925,2.9472,2.9219,2.9015,2.8961,2.7909,2.6667,2.5235,2.4035,2.2859,2.1703,2.0284,0.0,0.0,0.0,0.0,0.0,0.0,0.0,0.0,0.0,0.0,0.0,0.0,0.0,0.0,0.0,0.0,0.0,0.0,0.0,0.0,2.0641,0.0,0.0,0.0,0.0,0.0,0.0,0.0,0.0,0.0,0.0,2.5924,2.6851,2.7944,2.9102,0.0,0.0,0.0,0.0,2.97,2.7576,2.7975,2.8453,2.8103,2.8597,2.924,2.9677,0.0,0.0,3.1669,3.1631,3.1552,3.1511,3.2034,3.1746,2.9795,2.9367,2.9395,2.9715,2.9839,3.0019,3.0574,3.1073,3.1437,2.5525,0.0,0.0,0.0,0.0,2.3232,2.4328,2.5987,2.6,2.5791,2.5282,2.3174,0.0,0.0,0.0,0.0,0.0,0.0,1.8867,2.0456,2.1263,2.2262,2.341,2.293,2.3828,2.5894,2.507,2.5302,2.6439,2.4948,2.265,1.9739,0.0,0.0,0.0,0.0,2.4155,2.5896,2.8293,2.9619,2.9793,2.9713,2.9415,2.9001,2.8297,2.7536,2.6707,2.5757,2.4663,2.3487,2.2231,0.0,0.0,0.0,0.0,0.0,0.0,0.0,0.0,0.0,0.0,0.0,0.0,0.0,0.0,0.0,0.0,0.0,0.0,0.0,2.0998,2.1643,2.1925,0.0,0.0,0.0,0.0,0.0,0.0,0.0,0.0,0.0,2.8545,2.8343,2.8631,0.0,0.0,2.9677,2.9577,2.9986,3.0315,3.0434,3.0411,0.0,3.1179,3.095,3.0821,3.116,3.2274,3.3091,3.3253,3.3728,3.4087,3.4125,3.4098,3.3879,3.331,3.2306,3.1732,3.1786,3.2063,3.2468,3.2886,3.3359,3.376,2.5834,2.3893,2.4549,2.5242,2.5784,2.4848,2.546,2.6959,2.5894,2.5155,2.4632,2.3058,2.1045,1.8612,1.643,0.0,0.0,0.0,1.8596,2.0467,2.0167,2.0916,2.2437,2.1772,2.2609,2.4741,2.4268,2.453,2.5574,2.5618,2.444,2.2146,0.0,0.0,2.2165,2.3957,2.5552,2.6939,2.8885,2.9913,2.9913,2.9913,2.9708,2.9348,2.8925,2.8446,2.7857,2.7215,2.6372,2.5277,2.4115,2.2806,0.0,0.0,0.0,0.0,0.0,0.0,0.0,0.0,0.0,0.0,0.0,1.9358,0.0,0.0,0.0,0.0,2.0652,2.1442,2.2679,2.2979,0.0,0.0,0.0,0.0,0.0,0.0,0.0,2.615,2.7577,2.9141,3.0634,3.0418,3.043,3.141,3.1107,3.0738,3.0531,0.0,3.1398,3.1674,3.1741,3.2011,3.2753,3.2718,3.2712,3.3239,3.4103,3.4736,3.4776,3.5204,3.5538,3.5525,3.5404,3.5337,3.5337,3.4588,3.3865,3.3557,3.3745,3.4068,3.4482,3.487,3.5137,2.3829,2.3674,2.5639,2.6921,2.7457,2.5285,2.5014,2.5808,2.3406,2.1869,2.117,2.1544,2.015,1.7343,1.647,0.0,1.847,1.8479,1.9545,2.1511,1.9479,1.9898,2.2306,2.0263,2.0487,2.2772,2.2752,2.2619,2.2514,2.3959,2.4469,2.4043,2.4554,2.4672,2.4522,2.5921,2.7116,2.799,2.9221,2.9909,2.9953,2.9927,2.9913,2.99,2.9633,2.9232,2.8698,2.8419,2.7857,2.6947,2.5852,2.4619,2.3161,0.0,0.0,0.0,0.0,0.0,0.0,0.0,0.0,0.0,0.0,0.0,0.0,0.0,0.0,0.0,2.2532,0.0,2.4626,2.4532,0.0,0.0,0.0,2.5479,2.6002,2.6999,2.7987,2.868,0.0,0.0,3.2217,3.2672,3.2869,3.2972,3.2906,3.2444,3.1467,3.2448,3.2913,3.2056,3.2499,3.3089,3.3494,3.3987,3.4618,3.5325,3.5899,3.6033,3.6033,3.6073,3.6113,3.6086,3.614,3.6059,3.6153,3.6033,3.5832,3.5017,3.4922,3.5044,3.5525,3.5631,3.5778,2.4726,2.4496,2.503,2.507,2.4843,2.4352,2.4392,2.4693,2.4166,2.3651,2.309,2.1147,1.8592,1.5739,1.56,1.5835,1.635,1.6514,1.691,1.746,1.7096,1.724,1.7874,1.7436,1.8417,2.0605,2.0605,2.1419,2.3067,2.5237,2.5857,2.5104,2.7021,2.7242,2.5699,2.6596,2.7376,2.7904,2.9049,2.9871,3.0247,3.0034,2.9913,2.9913,2.9633,2.9463,2.9272,2.8991,2.8524,2.7884,2.7175,2.6186,2.493,2.2993,0.0,0.0,0.0,0.0,0.0,0.0,0.0,0.0,0.0,2.0968,2.0959,0.0,2.2318,0.0,2.4098,2.5184,2.5905,2.6319,0.0,0.0,2.7465,2.8047,2.8823,2.9705,3.0307,3.0353,3.1536,3.2574,3.3222,3.3719,3.4308,3.5139,3.4514,3.3851,3.3565,3.4184,3.4621,3.4411,3.4794,3.5298,3.5325,3.5551,3.5712,3.5939,3.6032,3.6126,3.6126,3.6126,3.6193,3.634,3.6219,3.6179,3.638,3.6233,3.6126,3.6059,3.5912,3.5859,3.6219,3.6299,3.638,2.1652,2.1497,2.1506,2.1318,2.1088,2.2277,2.2844,2.2988,2.1864,2.1173,2.0833,1.9171,1.7452,1.584,1.5866,1.5954,1.5986,1.6117,1.6198,1.6279,1.6368,1.6402,1.6408,1.6483,1.7182,1.8447,1.8347,1.8916,2.0127,2.2558,2.3946,2.4401,2.6938,2.8015,2.7663,2.7613,2.7779,2.8183,2.9001,2.9774,3.0528,3.014,2.977,2.9446,2.9123,2.8802,2.8378,2.8164,2.7876,2.7417,2.6972,2.6252,2.529,2.376,2.2663,0.0,0.0,0.0,0.0,0.0,0.0,0.0,0.0,0.0,0.0,0.0,2.4289,2.5024,2.5932,2.6787,2.7509,2.8096,2.8671,2.9219,2.9806,3.0461,3.1196,3.2064,3.2572,3.263,3.358,3.4399,3.4808,3.5191,3.5615,3.6338,3.5899,3.5391,3.5177,3.5391,3.5578,3.5605,3.5859,3.6126,3.6126,3.6299,3.6406,3.6299,3.6366,3.646,3.646,3.646,3.6553,3.6807,3.6767,3.674,3.7008,3.6847,3.6754,3.6967,3.6861,3.674,3.6861,3.6901,3.6954,1.7534,1.7534,1.7534,1.7534,1.769,1.983,2.0804,2.0807,1.8471,1.7385,1.7202,1.6892,1.6709,1.6639,1.6588,1.6625,1.6605,1.6554,1.6598,1.6578,1.6527,1.6578,1.6578,1.6578,1.6527,1.6527,1.6558,1.6422,1.6271,1.8653,2.104,2.3249,2.5678,2.7832,2.9631,2.8713,2.8277,2.857,2.9067,2.9786,3.0662,3.005,2.9446,2.8757,2.8426,2.7831,2.7,2.6906,2.6753,2.6431,2.6189,2.5764,2.5127,2.4266,2.3366,0.0,2.2158,0.0,0.0,0.0,0.0,0.0,0.0,0.0,0.0,2.594,2.676,2.763,2.7963,2.8497,2.9308,2.9993,3.0688,3.1429,3.2091,3.2679,3.3267,3.4015,3.4603,3.4949,3.5404,3.5939,3.6325,3.6567,3.6714,3.6927,3.6981,3.678,3.6406,3.6273,3.6327,3.6286,3.6299,3.6433,3.6433,3.6754,3.6912,3.6767,3.6887,3.6992,3.7005,3.6992,3.7128,3.7368,3.7408,3.7489,3.7769,3.7582,3.7515,3.7702,3.7542,3.7395,3.7408,3.7408,3.7435,1.8152,1.8152,1.8152,1.8152,1.8145,1.8615,1.8605,1.818,1.7889,1.7629,1.7378,1.7317,1.7223,1.7249,1.7249,1.7182,1.7066,1.7066,1.7005,1.6897,1.6897,1.6897,1.689,1.6897,1.6897,1.689,1.6716,1.6628,1.6619,1.9111,2.1315,2.3385,2.57,2.7902,2.9968,0.0,0.0,0.0,2.9729,3.0117,3.0029,2.9383,2.8845,2.8469,2.7835,0.0,2.7225,2.7008,2.6753,2.6443,2.6367,0.0,0.0,0.0,0.0,0.0,0.0,0.0,0.0,0.0,0.0,0.0,2.7417,2.7283,2.6599,2.7669,2.8818,2.9731,3.0247,3.0822,3.1463,3.2278,3.2883,3.3347,3.3908,3.4496,3.5057,3.5271,3.5498,3.5792,3.6126,3.638,3.654,3.6914,3.7221,3.7301,3.7502,3.7595,3.7489,3.7248,3.7221,3.7422,3.7395,3.7448,3.7489,3.7542,3.7569,3.7582,3.7595,3.7635,3.7622,3.7622,3.7635,3.7729,3.7729,3.7742,3.7823,3.7769,3.7756,3.7809,3.7782,3.7729,3.7729,3.7729,3.7729,1.8321,1.8321,1.8321,1.8321,0.0,1.8396,1.8156,1.7874,1.8023,1.7921,1.7636,1.7561,1.744,1.7419,1.7419,1.7378,1.7304,1.7304,1.727,1.7202,1.7195,1.7195,1.7195,1.7202,1.7161,1.708,1.7005,1.6897,1.6851,1.9359,2.1792,2.3978,2.649,2.8946,3.1307,3.1081,3.0522,2.9685,3.005,3.0339,3.0509,3.0047,2.9399,2.8613,2.8095,0.0,0.0,0.0,0.0,0.0,0.0,0.0,0.0,0.0,0.0,2.6347,2.6373,2.6507,2.6827,2.7776,2.8657,2.9392,3.0261,3.0261,2.9041,3.0087,3.1022,3.1644,3.2185,3.2719,3.3173,3.4002,3.4538,3.475,3.5137,3.5538,3.5805,3.5979,3.6179,3.6473,3.6767,3.6981,3.7141,3.7382,3.7582,3.7609,3.7716,3.7876,3.7983,3.7782,3.7662,3.7796,3.7809,3.7809,3.7809,3.7809,3.7823,3.7809,3.7809,3.7809,3.7809,3.7809,3.7863,3.7983,3.8036,3.8076,3.8223,3.8143,3.8076,3.8197,3.8143,3.8103,3.821,3.8143,3.8036,1.8396,1.8396,1.8403,1.8396,1.8409,1.8525,1.8504,1.8396,0.0,0.0,0.0,1.7792,1.7656,1.7541,1.7514,1.7487,1.7406,1.746,1.7446,1.7419,1.7419,1.7419,1.7419,1.7419,1.7351,1.7236,1.7229,1.7107,1.6922,1.9151,2.1498,2.3973,2.6649,2.9541,3.2399,3.2648,3.2093,3.0923,3.0608,3.0729,3.1243,3.0916,3.02,2.8979,2.8634,2.7909,2.6749,2.6443,2.6201,2.5985,2.6189,2.6421,2.6652,2.7137,2.753,2.7734,2.8326,2.8807,2.9138,3.0186,3.1036,3.1683,3.2759,3.2893,3.1736,3.2412,3.3049,3.3347,3.3881,3.4295,3.4536,3.5284,3.5751,3.5805,3.6072,3.6259,3.638,3.6527,3.6767,3.7005,3.7301,3.7542,3.7742,3.7849,3.7889,3.7903,3.7969,3.805,3.825,3.8143,3.801,3.8036,3.8063,3.801,3.7983,3.801,3.7969,3.8023,3.801,3.7969,3.7969,3.7969,3.8076,3.8303,3.8401,3.841,3.8557,3.8397,3.8357,3.8584,3.8397,3.829,3.8597,3.8477,3.8334,1.8694,1.8759,1.8701,1.8701,1.8701,1.8779,1.8721,1.8681,1.843,1.8294,1.8247,1.8097,1.8016,1.7989,1.786,1.7731,1.7568,1.7561,1.7494,1.7419,1.7419,1.7419,1.7419,1.7419,1.7412,1.7392,1.7385,1.7365,1.7371,1.7607,1.9099,2.1778,2.4136,2.7808,3.223,3.2848,3.2732,3.2323,3.1968,3.1763,3.161,3.0987,3.0306,2.9612,2.8906,2.836,2.7958,2.7633,2.7511,2.7472,2.7511,2.7787,2.8387,2.8434,2.8828,2.9508,3.0087,3.0707,3.1149,3.1912,3.2768,3.3788,3.4509,3.4496,3.3627,3.3855,3.4295,3.4817,3.5164,3.5391,3.5485,3.6019,3.6487,3.67,3.6725,3.6952,3.7422,3.7342,3.7342,3.7609,3.7716,3.7769,3.7876,3.805,3.8254,3.8237,3.837,3.8584,3.8571,3.8624,3.8597,3.8597,3.8597,3.8597,3.8531,3.8584,3.8544,3.8597,3.8557,3.8517,3.8517,3.8491,3.8504,3.8624,3.8584,3.8544,3.8397,3.8361,3.8374,3.8384,3.817,3.8143,3.8611,3.8491,3.837,1.882,1.882,1.882,1.882,1.882,1.882,1.882,1.8807,1.862,1.8511,1.8423,1.828,1.8213,1.8206,1.8145,1.8077,1.7953,1.7953,1.7975,1.7907,1.7852,1.7907,1.7901,1.7826,1.7738,1.7663,1.7582,1.7446,1.7527,1.883,2.0162,2.1509,2.3947,2.6438,2.8614,2.8922,2.8922,2.8846,3.1169,3.2326,3.2193,3.1867,3.1445,3.0974,2.9152,2.7889,2.7575,2.5926,2.491,2.472,2.4854,2.5102,2.5409,2.5828,2.6262,2.6702,2.723,2.7725,2.8131,3.0402,3.271,3.5032,3.5511,3.5658,3.5565,3.5378,3.5378,3.5658,3.6072,3.6285,3.6298,3.6861,3.7275,3.7395,3.7408,3.7462,3.7555,3.7635,3.7676,3.7809,3.7956,3.8116,3.829,3.8424,3.8504,3.8531,3.8651,3.8664,3.8504,3.8464,3.8531,3.8678,3.8718,3.8718,3.8718,3.8718,3.8718,3.8718,3.8718,3.8718,3.8704,3.8611,3.8491,3.8477,3.8477,3.8424,3.8321,3.841,3.8491,3.8504,3.8424,3.8464,3.8638,3.8597,3.8584,1.882,1.882,1.882,1.882,1.882,1.882,1.882,1.882,1.882,1.8694,1.8572,1.8373,1.8369,1.8362,1.8335,1.8314,1.8321,1.8321,1.8314,1.8321,1.8321,1.8321,1.8308,1.8192,1.8084,1.7962,1.7853,1.7663,1.7854,1.9723,2.0988,2.1661,2.3653,2.4966,2.5598,2.5598,2.5598,2.5821,2.9182,3.1062,3.1062,3.1013,3.0825,3.0401,2.826,2.6895,2.6465,2.4339,2.2962,2.2757,2.2942,2.3109,2.3226,2.373,2.4157,2.4436,2.4804,2.5506,2.663,2.9307,3.2552,3.5989,3.6273,3.6513,3.7008,3.6727,3.6473,3.6513,3.6874,3.7072,3.7112,3.7502,3.7836,3.7903,3.7782,3.7676,3.7609,3.7676,3.7782,3.7903,3.8116,3.837,3.8624,3.8718,3.8678,3.8597,3.8611,3.8491,3.8237,3.8214,3.829,3.8517,3.8624,3.8638,3.8691,3.8718,3.8718,3.8718,3.8718,3.8678,3.8611,3.8397,3.8294,3.8254,3.8157,3.8103,3.816,3.8277,3.8424,3.8424,3.8384,3.8477,3.8557,3.8664,3.8744,1.882,1.882,1.882,1.882,1.882,1.882,1.882,1.882,1.882,1.882,1.8715,1.8579,1.8454,1.8491,1.8382,1.8335,1.8335,1.8321,1.8328,1.8328,1.8321,1.8321,1.8335,1.8308,1.8287,1.8274,1.8247,1.8145,1.8002,1.8205,1.9354,2.1267,2.175,2.3088,2.5186,2.545,2.5503,2.5608,2.6043,2.6274,2.6327,2.6264,2.6109,2.583,2.5593,2.5285,2.4972,2.4737,2.4554,2.4544,2.4381,2.4592,2.476,2.4963,2.5102,2.5311,2.556,2.7152,3.0066,3.1091,3.2774,3.6326,3.664,3.699,3.7592,3.7676,3.7649,3.7635,3.7689,3.7702,3.7742,3.7809,3.7956,3.8187,3.7782,3.7665,3.8026,3.7729,3.7622,3.817,3.8294,3.837,3.8651,3.8704,3.8584,3.8384,3.8317,3.8197,3.7929,3.7863,3.7969,3.821,3.829,3.8424,3.8624,3.8718,3.8718,3.8718,3.8718,3.8611,3.841,3.8277,3.8183,3.7969,3.7889,3.7823,3.7729,3.7702,3.7983,3.8157,3.813,3.805,3.8263,3.8544,3.8784,1.882,1.882,1.882,1.882,1.882,1.882,1.882,1.882,1.882,1.882,1.8813,1.8694,1.8667,1.8667,1.8606,1.8579,1.8579,1.8579,1.8579,1.8579,1.8586,1.8579,1.8572,1.8484,1.8386,1.8379,1.8362,1.8287,1.8213,1.807,1.8537,1.9393,1.9399,1.9938,2.1016,2.1062,2.107,2.107,2.1062,2.107,2.147,2.4093,2.5558,2.5278,2.3902,2.2979,2.2687,2.1327,2.043,2.0446,2.0481,2.057,2.0704,2.0897,2.1042,2.1177,2.1347,2.286,2.6245,2.6586,2.8968,3.4248,3.4636,3.556,3.7852,3.8076,3.8143,3.8303,3.8183,3.8076,3.809,3.8237,3.8344,3.8321,3.8036,3.7929,3.7956,3.7796,3.7809,3.8254,3.8321,3.837,3.8611,3.8571,3.841,3.8307,3.8187,3.7916,3.7622,3.7555,3.7689,3.7889,3.7863,3.805,3.8544,3.8718,3.8718,3.8691,3.8557,3.837,3.8334,3.7973,3.7729,3.7782,3.7769,3.7823,3.7969,3.8143,3.8357,3.833,3.8357,3.8437,3.8731,3.8744,3.8806,1.882,1.882,1.882,1.882,1.882,1.882,1.882,1.882,1.882,1.882,1.882,1.882,1.882,1.882,1.882,1.882,1.882,1.882,1.882,1.882,1.882,1.882,1.8807,1.8654,1.8593,1.8579,1.8498,1.8423,1.8369,1.8226,1.8152,1.8138,1.8043,1.7989,1.7989,1.8044,1.7989,1.8044,1.7989,1.8044,1.8566,2.1665,2.3592,2.3385,2.1662,2.062,2.0566,1.8686,1.767,1.767,1.7717,1.7778,1.7784,1.8043,1.8172,1.8219,1.8355,1.9906,2.3147,2.3379,2.5846,3.1053,3.1928,3.3371,3.6237,3.7134,3.7643,3.8593,3.8517,3.8384,3.841,3.8584,3.8611,3.841,3.833,3.817,3.7983,3.7889,3.7916,3.8254,3.8321,3.837,3.8611,3.8544,3.8397,3.8321,3.8076,3.7836,3.7582,3.7529,3.7622,3.7876,3.7769,3.7916,3.8464,3.8464,3.8504,3.8531,3.8344,3.8143,3.8174,3.7676,3.7408,3.7609,3.7622,3.7716,3.7889,3.825,3.8597,3.8678,3.8718,3.8686,3.882,3.8806,3.8846,1.882,1.882,1.882,1.882,1.882,1.882,1.882,1.882,1.882,1.882,1.882,1.882,1.882,1.882,1.882,1.882,1.882,1.882,1.882,1.882,1.882,1.882,1.882,1.8813,1.8807,1.8728,1.8773,1.8647,1.8518,1.8382,1.8314,1.8308,1.828,1.8287,1.8274,1.8267,1.8287,1.8267,1.8267,1.828,1.8287,1.8599,1.8902,1.8901,1.8523,1.8621,1.8529,1.838,1.8204,1.8274,1.826,1.8274,1.8287,1.8308,1.8389,1.8511,1.866,2.0124,2.2825,2.339,2.5085,2.8266,2.8893,3.0394,3.3595,3.4052,3.5141,3.8182,3.8097,3.8303,3.8316,3.8504,3.8646,3.8638,3.841,3.8321,3.8294,3.7956,3.7969,3.821,3.8361,3.8424,3.8678,3.8718,3.8517,3.8388,3.8294,3.809,3.7836,3.7769,3.7889,3.8103,3.8227,3.8281,3.8321,3.8303,3.821,3.8223,3.8223,3.7876,3.7742,3.7609,3.7502,3.7422,3.7408,3.7515,3.7742,3.7996,3.829,3.8477,3.8678,3.8771,3.878,3.894,3.8953,1.882,1.882,1.882,1.882,1.882,1.882,1.882,1.882,1.882,1.882,1.882,1.882,1.882,1.882,1.882,1.882,1.882,1.882,1.882,1.882,1.882,1.882,1.882,1.882,1.882,1.882,1.882,1.8793,1.8667,1.8525,1.84,1.8437,1.8362,1.8321,1.8321,1.8321,1.8321,1.8321,1.8321,1.8321,1.8335,1.8409,1.8423,1.8375,1.8335,1.8321,1.8321,1.8321,1.8321,1.8321,1.8346,1.8457,1.847,1.864,1.8769,1.883,1.8966,1.9574,2.0649,2.096,2.2421,2.5484,2.5928,2.7366,3.0106,3.0896,3.1439,3.2689,3.4651,3.5541,3.6079,3.74,3.8638,3.845,3.8388,3.8334,3.8267,3.801,3.801,3.8424,3.8557,3.8611,3.8638,3.8557,3.8384,3.8334,3.8103,3.7969,3.7863,3.7823,3.7956,3.8143,3.8103,3.8036,3.8307,3.8384,3.8424,3.8357,3.825,3.7956,3.7769,3.7595,3.7462,3.7702,3.7582,3.7729,3.8116,3.829,3.8477,3.8544,3.8718,3.8718,3.8718,3.8806,3.8793,1.882,1.882,1.882,1.882,1.882,1.882,1.882,1.882,1.882,1.882,1.882,1.882,1.882,1.882,1.882,1.882,1.882,1.882,1.882,1.882,1.882,1.882,1.882,1.882,1.882,1.882,1.882,1.882,1.8807,1.866,1.8606,1.8599,1.8504,1.8464,1.8464,1.8464,1.8464,1.8464,1.8464,1.8464,1.8477,1.8552,1.8606,1.8593,1.8511,1.8464,1.8464,1.8464,1.8464,1.8477,1.8559,1.8606,1.8633,1.885,1.8993,1.9006,1.9169,1.9318,1.9413,1.9474,2.0501,2.2567,2.2937,2.4254,2.7163,2.764,2.8117,2.9356,3.0896,3.2619,3.4064,3.5978,3.76,3.8175,3.841,3.841,3.8397,3.8237,3.8317,3.8597,3.8704,3.8718,3.8704,3.8544,3.845,3.841,3.8223,3.8116,3.8103,3.8116,3.8157,3.8357,3.829,3.8277,3.8397,3.8544,3.8477,3.8397,3.8223,3.7969,3.7863,3.7662,3.7635,3.7876,3.809,3.8263,3.845,3.8624,3.8704,3.8718,3.8718,3.8718,3.8718,3.8718,3.8731,1.882,1.882,1.882,1.882,1.882,1.882,1.882,1.882,1.882,1.882,1.882,1.882,1.882,1.882,1.882,1.882,1.882,1.882,1.882,1.882,1.882,1.882,1.882,1.882,1.882,1.882,1.882,1.882,1.8813,1.88,1.88,1.8807,1.8786,1.8708,1.8742,1.8779,1.8793,1.8779,1.8773,1.8786,1.8813,1.88,1.8742,1.88,1.8793,1.8721,1.88,1.8793,1.8779,1.8786,1.88,1.8813,1.8762,1.8905,1.9,1.9047,1.9264,1.9413,1.9454,1.9569,1.9698,2.0204,1.9961,2.1396,2.3772,2.4451,2.5412,2.7559,2.8881,3.0238,3.2661,3.4241,3.5883,3.8118,3.8718,3.8771,3.8731,3.8731,3.8718,3.87,3.8771,3.8673,3.8718,3.8678,3.8651,3.8651,3.8638,3.8597,3.8571,3.8571,3.8664,3.8678,3.8597,3.8544,3.8624,3.8704,3.8531,3.8357,3.813,3.7916,3.8036,3.7956,3.7916,3.809,3.8157,3.833,3.8464,3.8638,3.8704,3.8718,3.8718,3.8718,3.8718,3.8718,3.8718,1.882,1.882,1.882,1.882,1.882,1.882,1.882,1.882,1.882,1.882,1.882,1.882,1.882,1.882,1.882,1.882,1.882,1.882,1.882,1.882,1.882,1.882,1.882,1.882,1.882,1.882,1.882,1.882,1.882,1.882,1.882,1.882,1.882,1.882,1.882,1.882,1.882,1.882,1.882,1.882,1.882,1.882,1.882,1.882,1.882,1.882,1.882,1.882,1.882,1.882,1.882,1.882,1.8847,1.8905,1.9033,1.9142,1.9318,1.9481,1.9583,1.9691,1.9725,1.9725,1.9725,2.0083,2.0994,2.1378,2.1849,2.3196,2.4782,2.6797,2.8141,3.2044,3.5309,3.8364,3.9078,3.9212,3.9078,3.9185,3.9212,3.8993,3.8966,3.8886,3.8771,3.8718,3.8718,3.8718,3.8718,3.8718,3.8718,3.8718,3.8718,3.8718,3.8718,3.8718,3.8718,3.8718,3.8624,3.8504,3.8303,3.813,3.8223,3.8263,3.825,3.825,3.8317,3.8397,3.8531,3.8611,3.8691,3.8718,3.8718,3.8718,3.8718,3.8718,3.8718,1.882,1.882,1.882,1.882,1.882,1.882,1.882,1.882,1.882,1.882,1.882,1.882,1.882,1.882,1.882,1.882,1.882,1.882,1.882,1.882,1.882,1.882,1.882,1.882,1.882,1.882,1.882,1.882,1.882,1.882,1.882,1.882,1.882,1.882,1.882,1.882,1.882,1.882,1.882,1.882,1.882,1.882,1.8847,1.8837,1.885,1.8936,1.8977,1.8925,1.8871,1.8854,1.8875,1.8843,1.8922,1.904,1.9189,1.9291,1.9427,1.9563,1.9711,1.9718,1.9752,1.9786,1.98,1.9834,1.9882,1.9922,1.9956,2.0402,2.1864,2.3646,2.5344,2.8278,3.2755,3.682,3.8624,3.9387,3.9313,3.9479,3.9439,3.9167,3.9087,3.894,3.8811,3.8718,3.8718,3.8718,3.8718,3.8718,3.8718,3.8718,3.8731,3.8731,3.8718,3.8718,3.8718,3.8718,3.8718,3.8651,3.8544,3.8464,3.8477,3.8491,3.8477,3.8491,3.8544,3.8544,3.8651,3.8664,3.8718,3.8718,3.8718,3.8718,3.8718,3.8718,3.8718,1.882,1.882,1.882,1.882,1.882,1.882,1.8834,1.8841,1.882,1.8827,1.8841,1.8769,1.882,1.882,1.882,1.882,1.882,1.882,1.882,1.882,1.882,1.882,1.882,1.882,1.882,1.882,1.882,1.882,1.882,1.882,1.882,1.882,1.882,1.882,1.882,1.882,1.882,1.882,1.882,1.882,1.8841,1.8841,1.8857,1.8986,1.9006,1.9054,1.9142,1.9149,1.9054,1.8909,1.8938,1.9,1.9047,1.9271,1.9379,1.9406,1.9569,1.9644,1.9732,1.9786,1.9766,1.9875,1.9895,1.9942,2.0044,2.0085,2.0112,2.0112,2.045,2.1508,2.3857,2.5665,2.879,3.3949,3.7827,3.9475,3.9666,3.9693,3.9613,3.93,3.9153,3.9033,3.8865,3.8811,3.8825,3.8784,3.8825,3.8878,3.8878,3.8918,3.8811,3.8825,3.8905,3.878,3.882,3.8731,3.8731,3.8704,3.8651,3.8651,3.8624,3.8624,3.8638,3.8664,3.8691,3.8704,3.8718,3.8718,3.8718,3.8718,3.8718,3.8718,3.8718,3.8718,3.8718,1.882,1.882,1.882,1.882,1.882,1.882,1.8888,1.8911,1.881,1.8843,1.8884,1.881,1.8834,1.882,1.8827,1.882,1.8827,1.8827,1.882,1.882,1.882,1.882,1.882,1.882,1.882,1.882,1.882,1.882,1.882,1.882,1.882,1.882,1.882,1.882,1.882,1.882,1.882,1.882,1.882,1.883,1.8918,1.8932,1.9,1.9128,1.9149,1.9169,1.9203,1.9203,1.9176,1.9101,1.9115,1.9149,1.9162,1.925,1.9359,1.9474,1.959,1.978,1.9813,1.9915,1.9997,2.0037,2.0037,2.0058,2.0098,2.0207,2.0254,2.0288,2.0356,2.0726,2.1979,2.3991,2.8326,3.4224,3.7689,3.9747,4.0161,4.0241,4.0134,3.9807,3.9714,3.946,3.9167,3.9185,3.9239,3.9118,3.9172,3.9306,3.9252,3.9212,3.9145,3.9225,3.9265,3.9073,3.8953,3.8825,3.8731,3.8718,3.8704,3.8704,3.8691,3.8691,3.8691,3.8718,3.8704,3.8718,3.8718,3.8718,3.8718,3.8718,3.8718,3.8718,3.8718,3.8718,3.8718,1.882,1.882,1.882,1.8861,1.8915,1.8915,1.8938,1.9047,1.8993,1.8993,1.9047,1.8993,1.8945,1.8938,1.8891,1.8864,1.8915,1.8857,1.8915,1.8871,1.8925,1.8884,1.8854,1.882,1.882,1.882,1.882,1.882,1.882,1.882,1.882,1.882,1.882,1.882,1.882,1.882,1.8854,1.8902,1.8864,1.8932,1.9067,1.9081,1.9162,1.9264,1.9298,1.9318,1.9379,1.94,1.9345,1.925,1.9257,1.9325,1.9393,1.9461,1.9549,1.9698,1.98,1.9888,1.9956,2.0058,2.0126,2.018,2.0193,2.0234,2.0288,2.0376,2.0417,2.0368,2.0435,2.0532,2.104,2.3542,2.778,3.2463,3.6212,3.8729,4.0273,4.0454,4.0334,4.0134,4.0,3.988,3.934,3.9519,3.9493,3.9412,3.9452,3.9533,3.9546,3.9519,3.9519,3.9559,3.9466,3.922,3.9153,3.9078,3.89,3.886,3.8793,3.8851,3.8784,3.8758,3.8731,3.8731,3.8731,3.8718,3.8718,3.8718,3.8718,3.8718,3.8718,3.8718,3.8718,3.8718,3.8718,1.882,1.8827,1.8841,1.8864,1.8979,1.9006,1.9094,1.921,1.9183,1.9196,1.9217,1.9203,1.9156,1.9196,1.9054,1.9013,1.9013,1.9013,1.9013,1.904,1.9088,1.9054,1.8871,1.8922,1.8843,1.8823,1.8854,1.8888,1.8857,1.8837,1.8823,1.885,1.8837,1.8875,1.8915,1.8895,1.8884,1.8986,1.9013,1.9081,1.9203,1.923,1.9305,1.9434,1.9495,1.9549,1.9637,1.9678,1.9603,1.9325,1.9413,1.9542,1.9678,1.9807,1.9929,2.0037,2.0071,2.0112,2.0132,2.0159,2.0214,2.0322,2.0349,2.0334,2.0415,2.0512,2.0455,2.0449,2.0489,2.0594,2.1194,2.3858,2.7522,3.1267,3.4032,3.7506,3.9605,4.0481,4.0374,4.0134,4.008,3.9933,3.9746,3.9666,3.9693,3.9693,3.976,3.988,3.988,3.9827,3.9813,3.9827,3.964,3.9313,3.93,3.9359,3.9193,3.9113,3.9033,3.8966,3.8846,3.8793,3.8726,3.87,3.8731,3.8718,3.8718,3.8718,3.8731,3.8718,3.8718,3.8718,3.8718,3.8718,3.8718,1.882,1.8834,1.8949,1.8959,1.9006,1.9108,1.9244,1.9373,1.9257,1.9284,1.9332,1.9264,1.9217,1.921,1.9183,1.9156,1.9156,1.9156,1.9156,1.9162,1.9176,1.9183,1.9108,1.9101,1.9047,1.8993,1.9054,1.9094,1.9094,1.9074,1.9101,1.9088,1.9061,1.9101,1.9088,1.9067,1.9115,1.9156,1.9156,1.9237,1.9352,1.9386,1.9454,1.9603,1.9712,1.9786,1.9841,1.9942,1.9969,1.9908,1.9827,1.9807,1.9861,1.9976,2.0078,2.0139,2.0234,2.0282,2.0302,2.0383,2.0451,2.0485,2.0499,2.0505,2.0462,2.0553,2.0546,2.0566,2.0648,2.0763,2.1282,2.6274,2.9018,3.111,3.535,3.9238,4.0352,4.0481,4.0428,4.0388,4.0348,4.0267,4.0,4.0147,4.012,4.0014,4.008,4.0241,4.0201,4.0107,4.008,4.0054,3.9827,3.9553,3.972,3.9653,3.9407,3.9367,3.93,3.9193,3.906,3.9006,3.8993,3.8846,3.8718,3.8718,3.8718,3.8713,3.8726,3.8758,3.8731,3.8744,3.8758,3.8744,3.8718,1.882,1.8827,1.8909,1.8966,1.9088,1.9169,1.9332,1.9495,1.9461,1.9461,1.9508,1.9447,1.942,1.9413,1.9345,1.9312,1.9312,1.9312,1.9352,1.94,1.942,1.9379,1.9339,1.9352,1.9318,1.9142,1.9156,1.9196,1.9203,1.921,1.9183,1.9203,1.9203,1.9183,1.9203,1.921,1.9237,1.9298,1.9312,1.9386,1.9515,1.9542,1.961,1.9759,1.9895,1.9983,1.999,2.0051,2.0092,2.0098,2.0092,2.0085,2.0092,2.0159,2.0234,2.0315,2.037,2.0471,2.0539,2.06,2.0648,2.0648,2.0648,2.0648,2.0648,2.0648,2.0648,2.0682,2.0783,2.0984,2.1175,2.3211,2.6781,3.0753,3.3811,3.7078,3.9644,4.0481,4.0481,4.0481,4.0454,4.0401,4.0374,4.0428,4.0414,4.0241,4.0241,4.0374,4.0308,4.0241,4.0267,4.0201,3.9987,3.9893,4.0054,3.996,3.962,3.958,3.958,3.9473,3.9412,3.9399,3.934,3.9046,3.8771,3.8718,3.8731,3.8726,3.8766,3.8726,3.8713,3.8726,3.8726,3.87,3.8731,1.882,1.882,1.8782,1.8945,1.9156,1.9196,1.9352,1.959,1.9624,1.9596,1.9718,1.9725,1.9677,1.9684,1.9522,1.9468,1.9461,1.9474,1.9522,1.9603,1.9671,1.9556,1.9508,1.9535,1.9575,1.9284,1.9305,1.9305,1.9298,1.9271,1.9332,1.9291,1.9284,1.9325,1.9291,1.9284,1.9352,1.9454,1.9468,1.9542,1.9725,1.9698,1.9827,1.9908,2.0051,2.0132,2.0146,2.018,2.0187,2.018,2.0315,2.0383,2.0397,2.0404,2.0417,2.0476,2.0516,2.0655,2.0709,2.0777,2.0811,2.0811,2.0804,2.0804,2.0804,2.0804,2.0804,2.0838,2.0919,2.1014,2.1048,2.2714,2.514,2.8662,3.0454,3.3993,3.8105,4.0043,4.0481,4.0481,4.0481,4.0441,4.0441,4.0468,4.0481,4.0481,4.0495,4.0481,4.0414,4.0361,4.0401,4.0321,4.0094,3.996,4.008,4.0267,3.9987,3.9907,3.992,3.98,3.968,3.9573,3.9466,3.9033,3.878,3.8825,3.8811,3.8838,3.8793,3.8753,3.874,3.874,3.8726,3.8713,3.874,1.882,1.8827,1.8905,1.8986,1.904,1.9149,1.9298,1.9447,1.9474,1.9542,1.9651,1.9725,1.9725,1.9711,1.9705,1.9624,1.9603,1.9603,1.9624,1.9725,1.9725,1.9684,1.9684,1.9691,1.9677,1.9671,1.9623,1.9603,1.9616,1.9643,1.9529,1.9623,1.9623,1.9616,1.9623,1.9643,1.9583,1.9637,1.9651,1.9719,1.9868,1.9929,1.9922,2.0064,2.0207,2.0288,2.0329,2.0404,2.0401,2.0415,2.0621,2.0675,2.0689,2.0689,2.0661,2.0634,2.077,2.0858,2.0845,2.0906,2.0953,2.096,2.096,2.0967,2.096,2.0967,2.0973,2.098,2.1014,2.1095,2.1399,2.2848,2.5063,2.7831,3.1274,3.4831,3.6612,3.8788,4.0421,4.0481,4.0481,4.0481,4.0495,4.0521,4.0575,4.0628,4.0668,4.0668,4.0642,4.0548,4.0495,4.0374,4.0201,4.0094,4.0054,4.0294,4.0321,4.0214,4.0174,4.0054,3.9907,3.972,3.9493,3.9292,3.9073,3.9033,3.9006,3.9012,3.898,3.9033,3.8913,3.878,3.8918,3.9012,3.902,1.882,1.8827,1.8843,1.8918,1.8993,1.9061,1.9176,1.9312,1.9393,1.9468,1.9549,1.9624,1.9725,1.9725,1.9725,1.9725,1.9725,1.9725,1.9725,1.9725,1.9725,1.9725,1.9725,1.9725,1.9725,1.9718,1.9725,1.9732,1.9725,1.9718,1.9732,1.9718,1.9725,1.9759,1.9814,1.9827,1.9813,1.9854,1.9888,1.9915,1.9997,2.0051,2.0153,2.0227,2.0363,2.0471,2.0566,2.0607,2.0702,2.077,2.0845,2.0885,2.0912,2.0939,2.0933,2.0838,2.0926,2.1021,2.1001,2.1075,2.1109,2.1109,2.1109,2.1109,2.1109,2.1116,2.1143,2.1184,2.1136,2.1197,2.1401,2.2973,2.422,2.6506,3.0416,3.3453,3.5759,3.8511,3.9792,4.0413,4.0521,4.0535,4.0569,4.0575,4.0668,4.0748,4.0829,4.0842,4.0855,4.0788,4.0695,4.0575,4.0428,4.0308,4.0214,4.0334,4.0481,4.0428,4.0388,4.0254,4.0201,4.004,3.9893,3.972,3.9527,3.9393,3.9439,3.9439,3.9412,3.9327,3.934,3.9313,3.9279,3.9279,3.9359,1.882,1.882,1.882,1.883,1.8932,1.8945,1.9027,1.9169,1.9318,1.94,1.9454,1.959,1.9725,1.9725,1.9725,1.9725,1.9725,1.9725,1.9725,1.9725,1.9725,1.9725,1.9725,1.9725,1.9725,1.9725,1.978,1.9766,1.9773,1.9739,1.9752,1.9814,1.9807,1.9834,1.9888,1.9922,2.001,2.0058,2.0098,2.0105,2.018,2.0288,2.0307,2.032,2.0512,2.0648,2.0729,2.079,2.0865,2.0946,2.1014,2.1041,2.1068,2.1177,2.1197,2.1109,2.1089,2.1143,2.117,2.1252,2.1258,2.1258,2.1258,2.1258,2.1258,2.1265,2.1299,2.1321,2.1346,2.1292,2.1401,2.1358,2.258,2.4633,2.773,3.1022,3.4143,3.6964,3.9402,4.005,4.0398,4.0601,4.0588,4.0682,4.0788,4.0815,4.0882,4.1056,4.1056,4.1056,4.0962,4.0842,4.0708,4.0548,4.0454,4.0388,4.0481,4.0468,4.0441,4.0388,4.0401,4.0401,4.0227,4.0054,4.0,3.988,3.988,3.9786,3.9666,3.9666,3.984,3.98,3.9533,3.9546,3.9666,1.882,1.882,1.882,1.8834,1.8854,1.8861,1.8877,1.9027,1.9176,1.9305,1.942,1.959,1.9725,1.9725,1.9725,1.9725,1.9725,1.9725,1.9725,1.9725,1.9725,1.9725,1.9725,1.9725,1.9739,1.9759,1.9793,1.9841,1.9909,1.982,1.9813,1.9949,1.9908,1.9922,2.0058,2.0078,2.0085,2.0105,2.0112,2.018,2.0302,2.0374,2.0428,2.0496,2.0648,2.0763,2.0831,2.0919,2.1001,2.1034,2.1136,2.1184,2.1211,2.1326,2.1394,2.1328,2.1307,2.1274,2.1272,2.1326,2.1387,2.138,2.1328,2.1341,2.1321,2.1321,2.1335,2.1355,2.1408,2.1401,2.1408,2.1306,2.1559,2.2921,2.5371,2.8305,3.1425,3.58,3.82,3.9836,4.0242,4.057,4.0682,4.0802,4.0909,4.0922,4.0976,4.1176,4.1234,4.1323,4.1189,4.1042,4.0869,4.0722,4.0588,4.0548,4.0481,4.0481,4.0481,4.0481,4.0481,4.0481,4.0481,4.0334,4.0281,4.0201,4.0094,3.9987,3.9867,3.9893,4.0027,3.9867,3.9626,3.9746,3.9974,1.882,1.882,1.882,1.882,1.882,1.882,1.8854,1.8898,1.9108,1.9237,1.9345,1.9563,1.9725,1.9725,1.9725,1.9725,1.9725,1.9725,1.9725,1.9725,1.9725,1.9725,1.9725,1.9732,1.9745,1.9848,1.9922,1.9997,2.001,1.9997,1.9997,2.0071,2.0051,2.0078,2.0214,2.0234,2.0282,2.0329,2.0356,2.032,2.0451,2.0449,2.0523,2.0668,2.0743,2.0858,2.0994,2.1068,2.117,2.1224,2.1326,2.134,2.1353,2.1335,2.1368,2.1368,2.1368,2.1335,2.1301,2.1341,2.1362,2.1375,2.1375,2.1362,2.1368,2.1375,2.1375,2.1375,2.1375,2.1375,2.1368,2.1314,2.1353,2.2207,2.3899,2.5906,2.9222,3.3743,3.7039,3.8649,4.011,4.0474,4.0836,4.1229,4.135,4.135,4.147,4.167,4.1724,4.1684,4.1483,4.1216,4.1029,4.0855,4.0722,4.0628,4.0508,4.0481,4.0481,4.0481,4.0481,4.0481,4.0481,4.0481,4.0401,4.0334,4.0254,4.0227,4.0174,4.0174,4.0187,4.0067,3.996,4.008,4.0267,1.882,1.882,1.882,1.882,1.882,1.882,1.882,1.8854,1.9074,1.9203,1.9284,1.9515,1.9725,1.9725,1.9725,1.9725,1.9725,1.9725,1.9725,1.9725,1.9732,1.9685,1.978,1.9793,1.98,1.9929,2.0003,2.0112,2.022,2.0254,2.0214,2.0207,2.0187,2.0248,2.0343,2.0383,2.0424,2.0492,2.0505,2.0512,2.0539,2.058,2.0661,2.0756,2.0858,2.0987,2.1177,2.1258,2.134,2.1328,2.1348,2.1348,2.1362,2.1362,2.1375,2.1375,2.1375,2.1368,2.1355,2.1368,2.1368,2.1375,2.1375,2.1375,2.1375,2.1375,2.1375,2.1375,2.1375,2.1375,2.1368,2.1368,2.1355,2.2034,2.328,2.4799,2.6681,3.0629,3.4735,3.7511,3.9036,4.0484,4.0983,4.1589,4.1817,4.1804,4.1951,4.2124,4.2084,4.1978,4.1777,4.1497,4.1363,4.1136,4.0855,4.0735,4.0601,4.0569,4.0508,4.0481,4.0481,4.0481,4.0481,4.0481,4.0481,4.0441,4.0374,4.0428,4.0468,4.0388,4.0334,4.0401,4.0414,4.0481,4.0468,1.882,1.882,1.882,1.882,1.882,1.882,1.882,1.8847,1.9074,1.921,1.9284,1.9508,1.9725,1.9725,1.9725,1.9725,1.9725,1.9725,1.9725,1.9725,1.9732,1.9746,1.98,1.9861,1.9942,2.0085,2.0166,2.0254,2.0349,2.0431,2.0401,2.0435,2.0363,2.041,2.0401,2.0492,2.0499,2.0539,2.0539,2.0539,2.058,2.0655,2.0756,2.0831,2.1021,2.1197,2.1218,2.1333,2.1401,2.1375,2.1375,2.1375,2.1375,2.1375,2.1375,2.1375,2.1375,2.1375,2.1375,2.1375,2.1375,2.1375,2.1375,2.1375,2.1375,2.1375,2.1375,2.1375,2.1375,2.1375,2.1375,2.1375,2.1375,2.1686,2.2504,2.3405,2.4871,2.663,3.0865,3.533,3.7963,3.949,4.1159,4.1829,4.1991,4.1951,4.1937,4.2111,4.2191,4.2111,4.2004,4.1831,4.1737,4.147,4.1029,4.0882,4.0829,4.0682,4.0601,4.0535,4.0481,4.0481,4.0481,4.0481,4.0481,4.0481,4.0481,4.0481,4.0481,4.0481,4.0481,4.0481,4.0481,4.0481,4.0481,1.882,1.882,1.882,1.882,1.882,1.882,1.882,1.8868,1.9074,1.9318,1.9548,1.9671,1.9725,1.9725,1.9725,1.9725,1.9725,1.9725,1.9725,1.9759,1.9746,1.982,1.9888,1.9983,2.0092,2.0227,2.0253,2.0327,2.0471,2.0455,2.0462,2.0449,2.0471,2.0492,2.0526,2.0539,2.0539,2.0476,2.0476,2.0476,2.0573,2.0695,2.0817,2.0933,2.1082,2.1258,2.134,2.1401,2.1362,2.1375,2.1375,2.1375,2.1375,2.1375,2.1375,2.1375,2.1382,2.1389,2.1389,2.1382,2.1375,2.1375,2.1375,2.1375,2.1389,2.1375,2.1375,2.1375,2.1375,2.1375,2.1375,2.1375,2.1375,2.1375,2.1766,2.248,2.3457,2.4958,2.7679,3.2464,3.6092,3.8661,4.0416,4.2128,4.2138,4.2084,4.2071,4.2084,4.2165,4.2218,4.2111,4.2018,4.1924,4.1804,4.139,4.1216,4.1069,4.0909,4.0735,4.0695,4.0642,4.0481,4.0481,4.0481,4.0521,4.0548,4.0548,4.0495,4.0495,4.0535,4.0521,4.0481,4.0481,4.0508,4.0561,1.882,1.882,1.882,1.882,1.882,1.882,1.8847,1.8871,1.9094,1.9373,1.9718,1.9725,1.9725,1.9725,1.9725,1.9725,1.9725,1.9725,1.9725,1.9773,1.9786,1.9888,1.9976,2.0098,2.0241,2.0363,2.0397,2.0458,2.0519,2.0532,2.0539,2.0539,2.0539,2.0539,2.0539,2.0539,2.0539,2.0483,2.0594,2.0607,2.0634,2.0817,2.0939,2.1075,2.1211,2.1319,2.1335,2.1368,2.1368,2.1375,2.1375,2.1375,2.1375,2.1375,2.1375,2.1389,2.1482,2.1502,2.1509,2.1509,2.1509,2.153,2.1523,2.1523,2.1502,2.1402,2.1375,2.1375,2.1375,2.1375,2.1375,2.1375,2.1375,2.1375,2.1375,2.1958,2.2289,2.3465,2.6256,2.9684,3.2409,3.4485,3.7344,3.9093,4.1419,4.1569,4.2151,4.2151,4.2178,4.2218,4.2205,4.2124,4.2058,4.1924,4.1777,4.1577,4.1376,4.1101,4.1029,4.0962,4.0882,4.0722,4.0708,4.0842,4.0842,4.0708,4.0708,4.0775,4.0708,4.0628,4.0628,4.0655,4.0655,4.0708,4.0775,1.882,1.882,1.882,1.882,1.882,1.882,1.8895,1.8972,1.9149,1.9386,1.9705,1.9725,1.9725,1.9725,1.9725,1.9725,1.9725,1.9725,1.9725,1.9759,1.9841,1.9956,2.0092,2.0234,2.0376,2.0499,2.0512,2.0505,2.0539,2.0539,2.0539,2.0539,2.0539,2.0539,2.0539,2.0539,2.0539,2.056,2.0675,2.0709,2.079,2.098,2.1102,2.1197,2.1313,2.1348,2.1362,2.1375,2.1375,2.1375,2.1375,2.1375,2.1375,2.1375,2.1382,2.1475,2.157,2.1631,2.1658,2.1658,2.1665,2.1665,2.1665,2.1665,2.1631,2.1564,2.1475,2.1509,2.1409,2.1395,2.1382,2.1389,2.1395,2.1496,2.1509,2.1549,2.1881,2.2024,2.476,2.7483,2.7557,2.8464,3.2086,3.5526,3.922,4.0911,4.1888,4.2218,4.2218,4.2218,4.2218,4.2191,4.2138,4.2071,4.1937,4.1857,4.1684,4.1394,4.1248,4.1243,4.1203,4.1109,4.1136,4.1229,4.1122,4.0962,4.1016,4.1109,4.1029,4.0949,4.0909,4.0909,4.0895,4.0909,4.0989,1.882,1.882,1.882,1.882,1.882,1.882,1.885,1.902,1.9244,1.9474,1.9691,1.9725,1.9725,1.9725,1.9725,1.9725,1.9725,1.9725,1.9725,1.9759,1.9902,2.0024,2.0159,2.0336,2.0422,2.0462,2.0539,2.0539,2.0539,2.0539,2.0539,2.0539,2.0539,2.0539,2.0539,2.0539,2.0539,2.0483,2.06,2.0661,2.0783,2.098,2.1136,2.1224,2.1367,2.1368,2.1375,2.1375,2.1375,2.1375,2.1375,2.1375,2.1375,2.1375,2.1482,2.1523,2.1604,2.157,2.1665,2.1733,2.1808,2.1815,2.1815,2.1815,2.1794,2.1774,2.1692,2.1618,2.1591,2.1591,2.1597,2.1597,2.1625,2.1706,2.1706,2.1631,2.1791,2.1688,2.3068,2.5739,2.6846,2.9656,3.2968,3.4883,3.792,4.0467,4.1572,4.2091,4.2218,4.2218,4.2218,4.2218,4.2191,4.2151,4.2098,4.2018,4.1911,4.171,4.159,4.1523,4.1483,4.1394,4.1341,4.1354,4.1261,4.1229,4.131,4.1363,4.135,4.131,4.1296,4.1229,4.1203,4.1203,4.1154,1.882,1.882,1.882,1.882,1.8827,1.8875,1.8952,1.9162,1.94,1.9569,1.9705,1.9725,1.9725,1.9725,1.9725,1.9725,1.9725,1.9725,1.978,1.982,1.9983,2.0112,2.0248,2.0404,2.0505,2.0539,2.0539,2.0539,2.0539,2.0539,2.0539,2.0539,2.0539,2.0539,2.0539,2.0539,2.058,2.0627,2.0716,2.0817,2.0953,2.1095,2.1211,2.1299,2.1387,2.1375,2.1375,2.1375,2.1375,2.1375,2.1375,2.1375,2.1375,2.1389,2.1429,2.1523,2.1638,2.1686,2.1903,2.1991,2.2059,2.2059,2.2004,2.1964,2.1943,2.1889,2.1828,2.1767,2.1821,2.1747,2.1747,2.1747,2.1781,2.1862,2.1835,2.176,2.1726,2.1691,2.1823,2.4496,2.6018,2.9592,3.2857,3.5227,3.7205,3.9348,4.1305,4.1775,4.2231,4.2218,4.2218,4.2218,4.2218,4.2191,4.2178,4.2165,4.2071,4.1951,4.1871,4.179,4.1817,4.1817,4.1648,4.1541,4.1563,4.1537,4.1577,4.1617,4.1684,4.171,4.171,4.1644,4.1461,4.1434,4.1434,1.882,1.882,1.882,1.882,1.8841,1.8925,1.9156,1.9427,1.959,1.9718,1.9725,1.9725,1.9725,1.9725,1.9725,1.9725,1.9725,1.9725,1.9807,1.9861,2.0024,2.0159,2.0309,2.0395,2.0462,2.0539,2.0539,2.0539,2.0539,2.0539,2.0539,2.0539,2.0539,2.0539,2.0539,2.0553,2.0614,2.0716,2.0811,2.0946,2.1102,2.1265,2.1333,2.1328,2.1362,2.1375,2.1375,2.1375,2.1375,2.1375,2.1375,2.1375,2.1375,2.1375,2.1375,2.1449,2.1706,2.1957,2.2127,2.2181,2.2269,2.2228,2.2174,2.2133,2.2093,2.2032,2.1971,2.1923,2.1896,2.1889,2.1889,2.1896,2.1909,2.1923,2.1923,2.1896,2.1889,2.1902,2.1834,2.2748,2.3374,2.5864,2.8912,3.1687,3.6352,3.8437,4.0455,4.1941,4.2258,4.2218,4.2218,4.2218,4.2218,4.2218,4.2218,4.2231,4.2191,4.2071,4.2111,4.2071,4.2111,4.2098,4.2004,4.1911,4.1871,4.1857,4.1857,4.1951,4.2098,4.2098,4.1991,4.1951,4.1804,4.1804,4.1831,1.882,1.882,1.882,1.882,1.8854,1.9033,1.9257,1.944,1.959,1.9725,1.9725,1.9725,1.9725,1.9725,1.9725,1.9725,1.9725,1.9745,1.982,1.9888,2.0051,2.0193,2.0336,2.0408,2.0462,2.0539,2.0539,2.0539,2.0539,2.0539,2.0539,2.0539,2.0539,2.0539,2.0539,2.0546,2.0655,2.0756,2.0858,2.1021,2.1163,2.1285,2.136,2.1348,2.1368,2.1375,2.1375,2.1375,2.1375,2.1375,2.1375,2.1375,2.1375,2.1375,2.1375,2.1409,2.1692,2.193,2.2018,2.212,2.2228,2.2247,2.2289,2.2289,2.2255,2.2201,2.2133,2.2079,2.2045,2.2045,2.2045,2.2052,2.2079,2.2106,2.2086,2.2045,2.2032,2.1984,2.1923,2.218,2.2743,2.4075,2.683,3.1278,3.5651,3.7635,3.9494,4.1169,4.2298,4.2258,4.2218,4.2218,4.2298,4.2312,4.2271,4.2258,4.2231,4.2205,4.2231,4.2231,4.2191,4.2178,4.2205,4.2165,4.2058,4.2058,4.2098,4.2191,4.2218,4.2218,4.2138,4.2138,4.2111,4.2058,4.2031,1.882,1.882,1.882,1.8854,1.8891,1.9101,1.9291,1.944,1.959,1.9725,1.9725,1.9725,1.9725,1.9725,1.9725,1.9725,1.9732,1.9807,1.9841,1.999,2.0112,2.0275,2.0347,2.0428,2.0462,2.0539,2.0539,2.0539,2.0539,2.0539,2.0539,2.0539,2.0539,2.0539,2.056,2.0614,2.0729,2.0817,2.0912,2.1048,2.1177,2.1292,2.1367,2.1348,2.1368,2.1375,2.1375,2.1375,2.1375,2.1375,2.1375,2.1375,2.1375,2.1375,2.1496,2.1543,2.1672,2.1869,2.1998,2.2072,2.2194,2.2289,2.2344,2.2337,2.2261,2.2296,2.2255,2.2215,2.2208,2.2201,2.2201,2.2208,2.2193,2.2247,2.2193,2.2201,2.216,2.212,2.2222,2.2325,2.3093,2.4097,2.704,3.1407,3.4397,3.5524,3.7712,4.0376,4.1643,4.2298,4.2245,4.2218,4.2338,4.2445,4.2378,4.2325,4.2365,4.2338,4.2258,4.2258,4.2231,4.2231,4.2245,4.2231,4.2205,4.2218,4.2245,4.2218,4.2218,4.2258,4.2271,4.2218,4.2191,4.2165,4.2165,1.882,1.882,1.882,1.8902,1.9,1.9142,1.9291,1.938,1.9596,1.9725,1.9725,1.9725,1.9725,1.9725,1.9725,1.9725,1.9766,1.978,1.9915,2.0105,2.0227,2.037,2.0408,2.0539,2.0539,2.0539,2.0539,2.0539,2.0539,2.0539,2.0539,2.0539,2.0573,2.0594,2.0614,2.0689,2.0817,2.098,2.1014,2.1102,2.1326,2.1362,2.1375,2.1368,2.1375,2.1375,2.1375,2.1375,2.1375,2.1375,2.1375,2.1375,2.1375,2.1375,2.1523,2.1611,2.1692,2.1835,2.1998,2.2106,2.2208,2.2296,2.2344,2.2344,2.2344,2.2344,2.231,2.2296,2.2283,2.2276,2.2276,2.2276,2.2247,2.2268,2.2234,2.2276,2.2255,2.2235,2.2221,2.2325,2.2544,2.3565,2.4579,2.8725,3.3172,3.3711,3.6991,4.0408,4.1262,4.2305,4.2338,4.2298,4.2418,4.2525,4.2458,4.2445,4.2539,4.2499,4.2352,4.2258,4.2231,4.2231,4.2258,4.2338,4.2432,4.2365,4.2352,4.2392,4.2458,4.2445,4.2432,4.2312,4.2271,4.2285,4.2218,1.882,1.882,1.882,1.885,1.9,1.9142,1.9291,1.944,1.9596,1.9725,1.9725,1.9725,1.9725,1.9725,1.9725,1.9725,1.9759,1.9834,1.9956,2.0112,2.0268,2.0417,2.0455,2.0539,2.0539,2.0539,2.0539,2.0539,2.0539,2.0539,2.0546,2.056,2.0614,2.0668,2.0675,2.0756,2.0878,2.1082,2.1082,2.117,2.1328,2.1375,2.1375,2.1375,2.1375,2.1375,2.1375,2.1375,2.1375,2.1375,2.1375,2.1375,2.1375,2.1375,2.1389,2.1523,2.1679,2.1821,2.1957,2.2113,2.2242,2.2303,2.2344,2.2344,2.2344,2.2344,2.2344,2.2344,2.2344,2.2344,2.2344,2.2344,2.2344,2.2344,2.2344,2.2344,2.2344,2.2344,2.2344,2.2303,2.2249,2.2716,2.3541,2.614,3.0567,3.5038,3.9642,4.2559,4.2191,4.2646,4.2525,4.2485,4.2539,4.2592,4.2579,4.2579,4.2686,4.2525,4.2338,4.2271,4.2231,4.2405,4.2552,4.2646,4.2699,4.2632,4.2659,4.2806,4.2833,4.2739,4.2672,4.2579,4.2485,4.2472,4.2338,1.882,1.882,1.882,1.885,1.9,1.9142,1.9291,1.944,1.9596,1.9725,1.9725,1.9725,1.9725,1.9725,1.9725,1.9725,1.9766,1.9888,2.0003,2.0132,2.0309,2.0444,2.0519,2.0539,2.0539,2.0539,2.0539,2.0539,2.0539,2.0539,2.0546,2.056,2.0641,2.0689,2.0689,2.0743,2.0892,2.1095,2.1082,2.1224,2.1355,2.1375,2.1375,2.1375,2.1375,2.1375,2.1375,2.1375,2.1375,2.1375,2.1375,2.1375,2.1375,2.1375,2.1375,2.1482,2.1591,2.1747,2.1889,2.2045,2.2228,2.2289,2.2344,2.2344,2.2344,2.2344,2.2344,2.2344,2.2344,2.2344,2.2344,2.2344,2.2344,2.2344,2.2344,2.2344,2.2344,2.2344,2.2344,2.233,2.2296,2.2365,2.2985,2.3323,2.7859,3.2905,3.8153,4.1774,4.2013,4.2926,4.2793,4.2726,4.2793,4.2939,4.306,4.2966,4.2846,4.2646,4.2405,4.2405,4.2458,4.2686,4.2873,4.2926,4.2953,4.2939,4.2993,4.31,4.3073,4.2966,4.2913,4.2859,4.2766,4.2712,4.2659,1.882,1.882,1.882,1.8909,1.9,1.9142,1.9291,1.944,1.9596,1.9725,1.9725,1.9725,1.9725,1.9725,1.9725,1.9725,1.9807,1.9949,2.0064,2.018,2.0334,2.0428,2.0526,2.0539,2.0539,2.0539,2.0539,2.0539,2.0539,2.0539,2.0476,2.0483,2.0496,2.0516,2.0614,2.0729,2.0919,2.1068,2.115,2.1279,2.1374,2.1375,2.1375,2.1375,2.1375,2.1375,2.1375,2.1375,2.1375,2.1375,2.1375,2.1375,2.1375,2.1375,2.1375,2.1402,2.1523,2.1686,2.1835,2.1957,2.2133,2.2255,2.2316,2.2344,2.2344,2.2344,2.2344,2.2344,2.2344,2.2344,2.2344,2.2344,2.2344,2.2344,2.2344,2.2344,2.2344,2.2344,2.2344,2.2344,2.2344,2.2344,2.2406,2.2544,2.5934,3.0947,3.487,3.7977,4.0698,4.2286,4.3167,4.3113,4.3127,4.3287,4.3367,4.33,4.3086,4.2913,4.2712,4.2672,4.2712,4.298,4.3153,4.3167,4.3193,4.326,4.326,4.3314,4.326,4.3247,4.318,4.3153,4.31,4.3046,4.3073,1.882,1.882,1.882,1.8909,1.9,1.9142,1.9291,1.944,1.9596,1.9725,1.9725,1.9725,1.9725,1.9725,1.9725,1.9732,1.9773,1.9963,2.0078,2.0146,2.041,2.0442,2.0539,2.0539,2.0539,2.0539,2.0539,2.0539,2.0539,2.0539,2.0539,2.0476,2.0675,2.0716,2.0743,2.0858,2.0973,2.1095,2.1177,2.1285,2.1328,2.1375,2.1375,2.1375,2.1375,2.1375,2.1375,2.1375,2.1375,2.1375,2.1375,2.1375,2.1375,2.1375,2.1375,2.1389,2.1509,2.1652,2.1801,2.1937,2.212,2.2262,2.2247,2.2344,2.2344,2.2344,2.2344,2.2344,2.2344,2.2344,2.2344,2.2344,2.2344,2.2344,2.2344,2.2344,2.2344,2.2344,2.2344,2.2344,2.2344,2.2344,2.2406,2.3627,2.6131,3.0734,3.4654,3.7768,4.0258,4.184,4.3462,4.3487,4.3447,4.3273,4.322,4.3434,4.3327,4.3153,4.3046,4.3033,4.3113,4.3327,4.3447,4.3461,4.3581,4.3688,4.3661,4.3554,4.3661,4.3661,4.3527,4.3447,4.3394,4.338,4.338]},{"header":{"parameterUnit":"m.s-1","parameterCategory":1,"la1":31.0,"la2":29.5877,"lo1":-88.7671,"lo2":-86.6584,"dy":0.0162,"dx":0.0185,"nx":115,"ny":88,"refTime":"2026-04-07T12:00:00:Z","depth":0,"parameterNumber":3,"parameterNumberName":"V-component_of_WINDS"},"data":[0.0,0.0,0.0,0.0,0.0,0.0,0.0,0.0,0.0,0.0,0.0,0.0,0.0,0.0,0.0,0.0,0.0,0.0,0.0,0.0,0.0,0.0,0.0,0.0,0.0,0.0,0.0,0.0,0.0,0.0,0.0,0.0,0.0,0.0,0.0,0.0,0.0,0.0,0.0,0.0,0.0,0.0,0.0,0.0,0.0,0.0,0.0,0.0,0.0,0.0,0.0,0.0,0.0,0.0,0.0,0.0,0.0,0.0,0.0,0.0,0.0,0.0,0.0,0.0,0.0,0.0,0.0,0.0,0.0,0.0,0.0,0.0,0.0,0.0,0.0,0.0,0.0,0.0,0.0,0.0,0.0,0.0,0.0,0.0,0.0,0.0,0.0,0.0,0.0,0.0,0.0,0.0,0.0,0.0,0.0,0.0,0.0,0.0,0.0,0.0,0.0,0.0,0.0,0.0,0.0,0.0,0.0,0.0,0.0,0.0,0.0,0.0,0.0,0.0,0.0,0.0,0.0,0.0,0.0,0.0,0.0,0.0,0.0,0.0,0.0,0.0,0.0,0.0,0.0,0.0,0.0,0.0,0.0,0.0,0.0,0.0,0.0,0.0,0.0,0.0,0.0,0.0,0.0,0.0,0.0,0.0,0.0,0.0,0.0,0.0,0.0,0.0,0.0,0.0,0.0,0.0,0.0,0.0,0.0,0.0,0.0,0.0,0.0,0.0,0.0,0.0,0.0,0.0,0.0,0.0,0.0,0.0,0.0,0.0,0.0,0.0,0.0,0.0,0.0,0.0,0.0,0.0,0.0,0.0,0.0,0.0,0.0,0.0,0.0,0.0,0.0,0.0,0.0,0.0,0.0,0.0,0.0,0.0,0.0,0.0,0.0,0.0,0.0,0.0,0.0,0.0,0.0,0.0,0.0,0.0,0.0,0.0,0.0,0.0,0.0,0.0,0.0,0.0,0.0,0.0,0.0,0.0,0.0,0.0,0.0,0.0,0.0,0.0,0.0,0.0,0.0,0.0,0.0,0.0,0.0,0.0,0.0,0.0,0.0,0.0,0.0,0.0,0.0,0.0,0.0,0.0,0.0,0.0,0.0,0.0,0.0,0.0,0.0,0.0,0.0,0.0,0.0,0.0,0.0,0.0,0.0,0.0,0.0,0.0,0.0,0.0,0.0,0.0,0.0,0.0,0.0,0.0,0.0,0.0,0.0,0.0,0.0,0.0,0.0,0.0,0.0,0.0,0.0,0.0,0.0,0.0,0.0,0.0,0.0,0.0,0.0,0.0,0.0,0.0,0.0,0.0,0.0,0.0,0.0,0.0,0.0,0.0,0.0,0.0,0.0,0.0,0.0,0.0,0.0,0.0,0.0,0.0,0.0,0.0,0.0,0.0,0.0,0.0,0.0,0.0,0.0,0.0,0.0,0.0,0.0,0.0,0.0,0.0,0.0,0.0,0.0,0.0,0.0,0.0,0.0,0.0,0.0,0.0,0.0,0.0,0.0,0.0,0.0,0.0,0.0,0.0,0.0,0.0,0.0,0.0,0.0,0.0,0.0,0.0,0.0,0.0,0.0,0.0,0.0,0.0,0.0,0.0,0.0,0.0,0.0,0.0,0.0,0.0,0.0,0.0,0.0,0.0,0.0,0.0,0.0,0.0,0.0,0.0,0.0,0.0,0.0,0.0,0.0,0.0,0.0,0.0,0.0,0.0,0.0,0.0,0.0,0.0,0.0,0.0,0.0,0.0,0.0,0.0,0.0,0.0,0.0,0.0,0.0,0.0,0.0,0.0,0.0,0.0,0.0,0.0,0.0,0.0,0.0,0.0,0.0,0.0,0.0,0.0,0.0,0.0,0.0,0.0,0.0,0.0,0.0,0.0,0.0,0.0,0.0,0.0,0.0,0.0,0.0,0.0,0.0,0.0,0.0,0.0,0.0,0.0,0.0,0.0,0.0,0.0,0.0,0.0,0.0,0.0,0.0,0.0,0.0,0.0,0.0,0.0,0.0,0.0,0.0,0.0,0.0,0.0,0.0,0.0,0.0,0.0,0.0,0.0,0.0,0.0,0.0,0.0,0.0,0.0,0.0,0.0,0.0,0.0,0.0,0.0,0.0,0.0,0.0,0.0,0.0,0.0,0.0,0.0,0.0,0.0,0.0,0.0,0.0,0.0,0.0,0.0,0.0,0.0,0.0,0.0,0.0,0.0,0.0,0.0,0.0,0.0,0.0,0.0,0.0,0.0,0.0,0.0,0.0,0.0,0.0,0.0,0.0,0.0,0.0,0.0,0.0,0.0,0.0,0.0,0.0,0.0,0.0,0.0,0.0,0.0,0.0,0.0,0.0,0.0,0.0,0.0,0.0,0.0,0.0,0.0,0.0,0.0,0.0,0.0,0.0,0.0,0.0,0.0,0.0,0.0,0.0,0.0,0.0,0.0,0.0,0.0,0.0,0.0,0.0,0.0,0.0,0.0,0.0,0.0,0.0,0.0,0.0,0.0,0.0,0.0,0.0,0.0,0.0,0.0,0.0,0.0,0.0,0.0,0.0,0.0,0.0,0.0,0.0,0.0,0.0,0.0,0.0,0.0,0.0,0.0,0.0,0.0,0.0,0.0,0.0,0.0,0.0,0.0,0.0,0.0,0.0,0.0,0.0,0.0,0.0,0.0,0.0,0.0,0.0,0.0,0.0,0.0,0.0,0.0,0.0,0.0,0.0,0.0,0.0,0.0,0.0,0.0,0.0,0.0,0.0,0.0,0.0,0.0,0.0,0.0,0.0,0.0,0.0,0.0,0.0,0.0,0.0,0.0,0.0,0.0,0.0,0.0,0.0,0.0,0.0,0.0,0.0,0.0,0.0,0.0,0.0,0.0,0.0,0.0,0.0,0.0,0.0,0.0,0.0,0.0,0.0,0.0,0.0,0.0,0.0,0.0,0.0,0.0,0.0,0.0,0.0,0.0,0.0,0.0,0.0,0.0,0.0,0.0,0.0,0.0,0.0,0.0,0.0,0.0,0.0,0.0,0.0,0.0,0.0,0.0,0.0,0.0,0.0,0.0,0.0,0.0,0.0,0.0,0.0,0.0,0.0,0.0,0.0,0.0,0.0,0.0,0.0,0.0,0.0,0.0,0.0,0.0,0.0,0.0,0.0,0.0,0.0,0.0,0.0,0.0,0.0,0.0,0.0,0.0,0.0,0.0,0.0,0.0,0.0,0.0,0.0,0.0,0.0,0.0,0.0,0.0,0.0,0.0,0.0,0.0,0.0,0.0,0.0,0.0,0.0,0.0,0.0,0.0,0.0,0.0,0.0,0.0,0.0,0.0,0.0,0.0,0.0,0.0,0.0,0.0,0.0,0.0,0.0,0.0,0.0,0.0,0.0,0.0,0.0,0.0,0.0,0.0,0.0,0.0,0.0,0.0,0.0,0.0,0.0,0.0,0.0,0.0,0.0,0.0,0.0,0.0,0.0,0.0,0.0,0.0,0.0,0.0,0.0,0.0,0.0,0.0,0.0,0.0,0.0,0.0,0.0,0.0,0.0,0.0,0.0,0.0,0.0,0.0,0.0,0.0,0.0,0.0,0.0,0.0,0.0,0.0,0.0,0.0,0.0,0.0,0.0,0.0,0.0,0.0,0.0,0.0,0.0,0.0,0.0,0.0,0.0,0.0,0.0,0.0,0.0,0.0,0.0,0.0,0.0,0.0,0.0,0.0,0.0,0.0,0.0,0.0,0.0,0.0,0.0,0.0,0.0,0.0,0.0,0.0,0.0,0.0,0.0,0.0,0.0,0.0,0.0,0.0,0.0,0.0,0.0,0.0,0.0,0.0,0.0,0.0,0.0,0.0,0.0,0.0,0.0,0.0,0.0,0.0,0.0,0.0,0.0,0.0,0.0,0.0,0.0,0.0,0.0,0.0,0.0,0.0,0.0,0.0,0.0,0.0,0.0,0.0,0.0,0.0,0.0,0.0,0.0,0.0,0.0,0.0,0.0,0.0,0.0,0.0,0.0,0.0,0.0,0.0,0.0,0.0,0.0,0.0,0.0,0.0,0.0,0.0,0.0,0.0,0.0,0.0,0.0,0.0,0.0,0.0,0.0,0.0,0.0,0.0,0.0,0.0,0.0,0.0,0.0,0.0,0.0,0.0,0.0,0.0,0.0,0.0,0.0,0.0,0.0,0.0,0.0,0.0,0.0,0.0,0.0,0.0,0.0,0.0,0.0,0.0,0.0,0.0,0.0,0.0,0.0,0.0,0.0,0.0,0.0,0.0,3.321,0.0,0.0,0.0,0.0,0.0,0.0,0.0,0.0,0.0,0.0,0.0,0.0,0.0,0.0,0.0,0.0,0.0,0.0,0.0,0.0,0.0,0.0,0.0,0.0,0.0,0.0,0.0,0.0,0.0,0.0,0.0,0.0,0.0,0.0,0.0,0.0,0.0,0.0,0.0,0.0,0.0,0.0,0.0,0.0,0.0,0.0,0.0,0.0,0.0,0.0,0.0,0.0,0.0,0.0,0.0,0.0,0.0,0.0,0.0,0.0,0.0,0.0,0.0,0.0,0.0,0.0,0.0,0.0,0.0,0.0,0.0,0.0,0.0,0.0,0.0,0.0,0.0,0.0,0.0,0.0,0.0,0.0,0.0,0.0,0.0,0.0,0.0,0.0,0.0,0.0,0.0,0.0,0.0,0.0,0.0,0.0,0.0,0.0,0.0,0.0,0.0,0.0,0.0,0.0,0.0,0.0,0.0,0.0,0.0,0.0,3.0901,3.112,3.2086,3.3077,3.417,0.0,0.0,0.0,0.0,0.0,0.0,0.0,0.0,0.0,0.0,0.0,0.0,0.0,0.0,0.0,0.0,0.0,0.0,0.0,0.0,0.0,0.0,0.0,0.0,0.0,0.0,0.0,0.0,0.0,0.0,0.0,0.0,0.0,0.0,0.0,0.0,0.0,0.0,0.0,0.0,0.0,0.0,0.0,0.0,0.0,0.0,0.0,0.0,0.0,0.0,0.0,0.0,0.0,0.0,0.0,0.0,0.0,0.0,0.0,0.0,0.0,0.0,0.0,0.0,0.0,0.0,0.0,0.0,0.0,0.0,0.0,0.0,0.0,0.0,0.0,0.0,0.0,0.0,0.0,0.0,0.0,0.0,0.0,0.0,0.0,0.0,0.0,0.0,0.0,0.0,0.0,0.0,0.0,0.0,0.0,0.0,0.0,0.0,0.0,0.0,0.0,0.0,0.0,0.0,0.0,0.0,0.0,0.0,0.0,0.0,0.0,0.0,3.3131,3.4331,3.5675,0.0,0.0,0.0,0.0,0.0,0.0,0.0,0.0,0.0,0.0,0.0,0.0,0.0,0.0,0.0,0.0,0.0,0.0,0.0,0.0,0.0,0.0,0.0,0.0,0.0,0.0,0.0,0.0,0.0,0.0,0.0,0.0,0.0,0.0,0.0,0.0,0.0,0.0,0.0,0.0,0.0,0.0,0.0,0.0,0.0,0.0,0.0,0.0,0.0,0.0,0.0,0.0,0.0,0.0,0.0,0.0,0.0,0.0,0.0,0.0,0.0,0.0,0.0,0.0,0.0,0.0,0.0,0.0,0.0,0.0,0.0,0.0,0.0,0.0,0.0,0.0,0.0,0.0,0.0,0.0,0.0,0.0,0.0,0.0,0.0,0.0,0.0,0.0,0.0,0.0,0.0,0.0,0.0,0.0,0.0,0.0,0.0,0.0,0.0,0.0,0.0,0.0,0.0,0.0,0.0,0.0,0.0,0.0,0.0,0.0,3.2594,3.2815,3.446,0.0,3.8141,0.0,0.0,0.0,0.0,0.0,0.0,0.0,0.0,0.0,0.0,0.0,0.0,0.0,0.0,0.0,0.0,0.0,0.0,0.0,0.0,0.0,0.0,0.0,0.0,0.0,0.0,0.0,0.0,0.0,0.0,0.0,0.0,0.0,0.0,0.0,0.0,0.0,0.0,0.0,0.0,0.0,0.0,0.0,0.0,0.0,0.0,0.0,0.0,0.0,0.0,0.0,0.0,0.0,0.0,0.0,0.0,0.0,0.0,0.0,0.0,0.0,0.0,0.0,0.0,0.0,0.0,0.0,0.0,0.0,0.0,0.0,0.0,0.0,0.0,0.0,0.0,0.0,0.0,0.0,0.0,0.0,0.0,0.0,0.0,0.0,0.0,0.0,0.0,0.0,0.0,0.0,0.0,0.0,0.0,0.0,0.0,0.0,0.0,0.0,0.0,0.0,0.0,0.0,0.0,0.0,0.0,0.0,0.0,0.0,0.0,0.0,3.4457,3.6336,3.7751,0.0,0.0,0.0,0.0,0.0,0.0,0.0,0.0,0.0,0.0,0.0,0.0,0.0,0.0,0.0,0.0,0.0,0.0,0.0,0.0,0.0,0.0,0.0,0.0,0.0,0.0,0.0,0.0,0.0,0.0,0.0,0.0,0.0,0.0,0.0,0.0,0.0,0.0,0.0,0.0,0.0,0.0,0.0,0.0,0.0,0.0,0.0,0.0,0.0,0.0,0.0,0.0,0.0,0.0,0.0,0.0,0.0,0.0,0.0,0.0,0.0,0.0,0.0,0.0,0.0,0.0,0.0,0.0,0.0,0.0,0.0,0.0,0.0,0.0,0.0,0.0,0.0,0.0,0.0,0.0,0.0,0.0,0.0,0.0,0.0,0.0,0.0,0.0,0.0,0.0,0.0,0.0,0.0,0.0,0.0,0.0,0.0,0.0,0.0,0.0,0.0,0.0,0.0,0.0,0.0,0.0,0.0,0.0,0.0,0.0,3.4147,0.0,3.6286,3.7685,3.8486,3.8525,0.0,0.0,0.0,0.0,0.0,0.0,0.0,0.0,0.0,0.0,0.0,0.0,0.0,0.0,0.0,0.0,0.0,0.0,0.0,0.0,0.0,0.0,0.0,0.0,0.0,0.0,0.0,0.0,0.0,0.0,0.0,0.0,0.0,0.0,0.0,0.0,0.0,0.0,0.0,0.0,0.0,0.0,0.0,0.0,0.0,0.0,0.0,0.0,0.0,0.0,0.0,0.0,0.0,0.0,0.0,0.0,0.0,0.0,0.0,0.0,0.0,0.0,0.0,0.0,0.0,0.0,0.0,0.0,0.0,0.0,0.0,0.0,0.0,0.0,0.0,0.0,0.0,0.0,0.0,0.0,0.0,0.0,0.0,0.0,0.0,0.0,0.0,0.0,0.0,0.0,0.0,0.0,0.0,0.0,0.0,0.0,0.0,0.0,0.0,0.0,0.0,0.0,0.0,0.0,0.0,0.0,0.0,0.0,0.0,3.477,3.6133,3.7879,3.8275,3.8412,0.0,0.0,0.0,0.0,0.0,0.0,0.0,0.0,0.0,0.0,0.0,0.0,0.0,0.0,0.0,0.0,0.0,0.0,0.0,0.0,0.0,0.0,0.0,0.0,0.0,0.0,0.0,0.0,0.0,0.0,0.0,0.0,0.0,0.0,0.0,0.0,0.0,0.0,0.0,0.0,0.0,0.0,0.0,0.0,0.0,0.0,0.0,0.0,0.0,0.0,0.0,0.0,0.0,0.0,0.0,0.0,0.0,0.0,0.0,0.0,0.0,0.0,0.0,0.0,0.0,0.0,0.0,0.0,0.0,0.0,0.0,0.0,0.0,0.0,0.0,0.0,0.0,0.0,0.0,0.0,0.0,0.0,0.0,0.0,0.0,0.0,0.0,0.0,0.0,0.0,0.0,0.0,0.0,0.0,0.0,0.0,0.0,0.0,0.0,0.0,0.0,0.0,0.0,0.0,0.0,0.0,0.0,0.0,0.0,3.4703,3.6222,3.7371,3.8072,3.8752,3.8892,0.0,0.0,0.0,0.0,0.0,0.0,0.0,0.0,0.0,0.0,0.0,0.0,0.0,0.0,0.0,0.0,0.0,0.0,0.0,0.0,0.0,0.0,0.0,0.0,0.0,0.0,0.0,0.0,0.0,0.0,0.0,0.0,0.0,0.0,0.0,0.0,0.0,0.0,0.0,0.0,0.0,0.0,0.0,0.0,0.0,0.0,0.0,0.0,0.0,0.0,0.0,0.0,0.0,0.0,0.0,0.0,0.0,0.0,0.0,0.0,0.0,0.0,0.0,0.0,0.0,0.0,0.0,0.0,0.0,0.0,0.0,0.0,0.0,0.0,0.0,0.0,0.0,0.0,0.0,0.0,0.0,0.0,0.0,0.0,0.0,0.0,0.0,0.0,0.0,0.0,0.0,0.0,0.0,0.0,0.0,0.0,0.0,0.0,0.0,0.0,0.0,0.0,0.0,0.0,0.0,0.0,0.0,0.0,0.0,3.6392,0.0,3.8802,0.0,3.9514,3.9383,0.0,0.0,0.0,0.0,0.0,0.0,0.0,0.0,0.0,0.0,0.0,0.0,0.0,0.0,0.0,0.0,0.0,0.0,0.0,0.0,0.0,0.0,0.0,0.0,0.0,0.0,0.0,0.0,0.0,0.0,0.0,0.0,0.0,0.0,0.0,0.0,0.0,0.0,0.0,0.0,0.0,0.0,0.0,0.0,0.0,0.0,0.0,0.0,0.0,0.0,0.0,0.0,0.0,0.0,0.0,0.0,0.0,0.0,0.0,0.0,0.0,0.0,0.0,0.0,0.0,0.0,0.0,0.0,0.0,0.0,0.0,0.0,0.0,0.0,0.0,0.0,0.0,0.0,0.0,0.0,0.0,0.0,0.0,0.0,0.0,0.0,0.0,0.0,0.0,0.0,0.0,0.0,0.0,0.0,0.0,0.0,0.0,0.0,0.0,0.0,0.0,0.0,0.0,0.0,0.0,0.0,0.0,0.0,3.6259,3.8811,3.9923,4.0451,4.0526,4.0595,3.9919,0.0,0.0,0.0,0.0,0.0,0.0,0.0,0.0,0.0,0.0,0.0,0.0,0.0,0.0,0.0,0.0,0.0,0.0,0.0,0.0,0.0,0.0,0.0,0.0,0.0,0.0,0.0,0.0,0.0,0.0,0.0,0.0,0.0,0.0,0.0,0.0,0.0,0.0,0.0,0.0,0.0,0.0,0.0,0.0,0.0,0.0,0.0,0.0,0.0,0.0,0.0,0.0,0.0,0.0,0.0,0.0,0.0,0.0,0.0,0.0,0.0,0.0,0.0,0.0,0.0,0.0,0.0,0.0,0.0,0.0,0.0,0.0,0.0,0.0,0.0,0.0,0.0,0.0,0.0,0.0,0.0,0.0,0.0,0.0,0.0,0.0,0.0,0.0,0.0,0.0,0.0,0.0,0.0,0.0,0.0,0.0,0.0,0.0,0.0,0.0,0.0,0.0,0.0,0.0,0.0,0.0,0.0,0.0,0.0,4.0689,4.1067,4.1556,4.2083,4.1145,4.0136,0.0,0.0,0.0,0.0,0.0,0.0,0.0,0.0,0.0,0.0,0.0,0.0,0.0,0.0,0.0,0.0,0.0,0.0,0.0,0.0,0.0,0.0,0.0,0.0,0.0,0.0,0.0,0.0,0.0,0.0,0.0,0.0,0.0,0.0,0.0,0.0,0.0,0.0,0.0,0.0,0.0,0.0,0.0,0.0,0.0,0.0,0.0,0.0,0.0,0.0,0.0,0.0,0.0,0.0,0.0,0.0,0.0,0.0,0.0,0.0,0.0,0.0,0.0,0.0,0.0,0.0,0.0,0.0,0.0,0.0,0.0,0.0,0.0,0.0,0.0,0.0,0.0,0.0,0.0,0.0,0.0,0.0,0.0,0.0,0.0,0.0,0.0,0.0,0.0,0.0,0.0,0.0,0.0,0.0,0.0,0.0,0.0,0.0,0.0,0.0,0.0,0.0,0.0,0.0,0.0,0.0,0.0,0.0,0.0,4.5934,4.4872,4.4393,4.4618,4.3394,4.2118,4.0809,0.0,0.0,0.0,0.0,0.0,0.0,0.0,0.0,0.0,0.0,0.0,0.0,0.0,0.0,0.0,0.0,0.0,0.0,0.0,0.0,0.0,0.0,0.0,0.0,0.0,0.0,0.0,0.0,0.0,0.0,0.0,0.0,0.0,0.0,0.0,0.0,0.0,0.0,0.0,0.0,0.0,0.0,0.0,0.0,0.0,0.0,0.0,0.0,0.0,0.0,0.0,0.0,0.0,0.0,0.0,0.0,0.0,0.0,0.0,0.0,0.0,0.0,0.0,0.0,0.0,0.0,0.0,0.0,0.0,0.0,0.0,0.0,0.0,0.0,0.0,0.0,0.0,0.0,0.0,0.0,0.0,0.0,0.0,0.0,0.0,0.0,0.0,0.0,0.0,0.0,0.0,0.0,0.0,0.0,0.0,0.0,0.0,0.0,0.0,0.0,0.0,0.0,0.0,0.0,0.0,0.0,0.0,0.0,5.3738,5.0963,4.9001,4.7928,4.7006,4.5496,0.0,0.0,0.0,0.0,0.0,0.0,0.0,0.0,0.0,0.0,0.0,0.0,0.0,0.0,0.0,0.0,0.0,0.0,0.0,0.0,0.0,0.0,0.0,0.0,0.0,0.0,0.0,0.0,0.0,0.0,0.0,0.0,0.0,0.0,0.0,0.0,0.0,0.0,0.0,0.0,0.0,0.0,0.0,0.0,0.0,0.0,0.0,0.0,0.0,0.0,0.0,0.0,0.0,0.0,0.0,0.0,0.0,0.0,0.0,0.0,0.0,0.0,0.0,0.0,0.0,0.0,0.0,0.0,0.0,0.0,0.0,0.0,0.0,0.0,0.0,0.0,0.0,0.0,0.0,0.0,0.0,0.0,0.0,0.0,0.0,0.0,0.0,0.0,0.0,0.0,0.0,0.0,0.0,0.0,0.0,0.0,0.0,0.0,0.0,0.0,0.0,0.0,0.0,0.0,0.0,0.0,0.0,0.0,0.0,5.6228,5.7094,5.6008,5.288,4.9815,4.735,0.0,0.0,0.0,0.0,0.0,0.0,0.0,0.0,0.0,0.0,0.0,0.0,0.0,0.0,0.0,0.0,0.0,0.0,0.0,0.0,0.0,0.0,0.0,0.0,0.0,0.0,0.0,0.0,0.0,0.0,0.0,0.0,0.0,0.0,0.0,0.0,0.0,0.0,0.0,0.0,0.0,0.0,0.0,0.0,0.0,0.0,0.0,0.0,0.0,0.0,0.0,0.0,0.0,0.0,0.0,0.0,0.0,0.0,0.0,0.0,0.0,0.0,0.0,0.0,0.0,0.0,0.0,0.0,0.0,0.0,0.0,0.0,0.0,0.0,0.0,0.0,0.0,0.0,0.0,0.0,0.0,0.0,0.0,0.0,0.0,0.0,0.0,0.0,0.0,0.0,0.0,0.0,0.0,0.0,0.0,0.0,0.0,0.0,0.0,0.0,0.0,0.0,0.0,0.0,0.0,0.0,0.0,0.0,5.7105,5.9771,6.1602,6.163,5.9702,5.4219,5.0416,0.0,0.0,0.0,0.0,0.0,0.0,0.0,0.0,0.0,0.0,0.0,0.0,0.0,0.0,0.0,0.0,0.0,0.0,0.0,0.0,0.0,0.0,0.0,0.0,0.0,0.0,0.0,0.0,0.0,0.0,0.0,0.0,0.0,0.0,0.0,0.0,0.0,0.0,0.0,0.0,0.0,0.0,0.0,0.0,0.0,0.0,0.0,0.0,0.0,0.0,0.0,0.0,0.0,0.0,0.0,0.0,0.0,0.0,0.0,0.0,0.0,0.0,0.0,0.0,0.0,0.0,0.0,0.0,0.0,0.0,0.0,0.0,0.0,0.0,0.0,0.0,0.0,0.0,0.0,0.0,0.0,0.0,0.0,0.0,0.0,0.0,0.0,0.0,0.0,0.0,0.0,0.0,0.0,0.0,0.0,0.0,0.0,0.0,0.0,0.0,0.0,0.0,0.0,0.0,0.0,0.0,0.0,0.0,6.0485,6.3474,6.4916,6.5999,6.6366,5.911,5.4004,0.0,0.0,0.0,0.0,0.0,0.0,0.0,0.0,0.0,0.0,0.0,0.0,0.0,0.0,0.0,0.0,0.0,0.0,0.0,0.0,0.0,0.0,0.0,0.0,0.0,0.0,0.0,0.0,0.0,0.0,0.0,0.0,0.0,0.0,0.0,0.0,0.0,0.0,0.0,0.0,0.0,0.0,0.0,0.0,0.0,0.0,0.0,0.0,0.0,0.0,0.0,0.0,0.0,0.0,0.0,0.0,0.0,0.0,0.0,0.0,0.0,0.0,0.0,0.0,0.0,0.0,0.0,0.0,0.0,0.0,0.0,0.0,0.0,0.0,0.0,0.0,0.0,0.0,0.0,0.0,0.0,0.0,0.0,0.0,0.0,0.0,0.0,0.0,0.0,0.0,0.0,0.0,0.0,0.0,0.0,0.0,0.0,0.0,0.0,0.0,0.0,0.0,0.0,0.0,0.0,0.0,0.0,0.0,6.3285,6.5091,6.7085,6.7907,6.7444,6.0989,5.6457,0.0,0.0,0.0,0.0,0.0,0.0,0.0,0.0,0.0,0.0,0.0,0.0,0.0,0.0,0.0,0.0,0.0,0.0,0.0,0.0,0.0,0.0,0.0,0.0,0.0,0.0,0.0,0.0,0.0,0.0,0.0,0.0,0.0,0.0,0.0,0.0,0.0,0.0,0.0,0.0,0.0,0.0,0.0,0.0,0.0,0.0,0.0,0.0,4.5927,0.0,0.0,0.0,0.0,0.0,0.0,0.0,0.0,0.0,0.0,0.0,0.0,0.0,0.0,0.0,0.0,0.0,0.0,0.0,0.0,0.0,0.0,0.0,0.0,0.0,0.0,0.0,0.0,0.0,0.0,0.0,0.0,0.0,0.0,0.0,0.0,0.0,0.0,0.0,0.0,0.0,0.0,0.0,0.0,0.0,0.0,0.0,0.0,0.0,0.0,0.0,0.0,0.0,0.0,0.0,0.0,0.0,0.0,0.0,6.4741,6.7231,6.8726,6.9265,6.8655,6.3775,5.9445,0.0,0.0,0.0,0.0,0.0,0.0,0.0,0.0,0.0,0.0,0.0,0.0,0.0,0.0,0.0,0.0,0.0,0.0,0.0,0.0,0.0,0.0,0.0,0.0,0.0,0.0,0.0,0.0,0.0,0.0,0.0,0.0,0.0,0.0,0.0,0.0,0.0,0.0,0.0,0.0,0.0,0.0,0.0,0.0,0.0,0.0,0.0,0.0,0.0,0.0,0.0,0.0,0.0,0.0,0.0,0.0,0.0,0.0,0.0,0.0,0.0,0.0,0.0,0.0,0.0,0.0,0.0,0.0,0.0,0.0,0.0,0.0,0.0,0.0,0.0,0.0,0.0,0.0,0.0,0.0,0.0,0.0,0.0,0.0,0.0,0.0,0.0,0.0,0.0,0.0,0.0,0.0,0.0,0.0,0.0,0.0,0.0,0.0,0.0,0.0,0.0,0.0,0.0,0.0,0.0,0.0,0.0,6.2416,6.5717,6.9331,7.0037,7.022,7.0036,6.6263,6.2031,5.7497,0.0,0.0,0.0,0.0,0.0,0.0,0.0,0.0,0.0,0.0,0.0,0.0,0.0,0.0,0.0,0.0,0.0,0.0,0.0,0.0,0.0,0.0,0.0,0.0,0.0,0.0,0.0,0.0,0.0,0.0,0.0,0.0,0.0,0.0,0.0,0.0,0.0,0.0,4.2251,4.5616,0.0,0.0,0.0,0.0,0.0,0.0,0.0,0.0,4.9584,0.0,0.0,0.0,0.0,0.0,0.0,0.0,0.0,0.0,0.0,0.0,0.0,0.0,0.0,0.0,0.0,0.0,0.0,0.0,0.0,0.0,0.0,0.0,0.0,0.0,0.0,0.0,0.0,0.0,0.0,0.0,0.0,0.0,0.0,0.0,0.0,0.0,0.0,0.0,0.0,0.0,0.0,0.0,0.0,0.0,0.0,0.0,0.0,0.0,0.0,0.0,0.0,0.0,0.0,0.0,0.0,6.1869,6.4293,6.7259,7.084,7.1041,7.0807,7.005,6.6263,6.229,5.8201,0.0,0.0,0.0,0.0,0.0,0.0,0.0,0.0,0.0,0.0,0.0,0.0,0.0,0.0,0.0,0.0,0.0,0.0,0.0,0.0,0.0,0.0,0.0,0.0,0.0,0.0,0.0,0.0,0.0,0.0,0.0,0.0,0.0,0.0,0.0,0.0,0.0,0.0,0.0,4.9592,5.0248,0.0,0.0,0.0,0.0,0.0,0.0,0.0,0.0,5.1443,0.0,0.0,0.0,0.0,0.0,0.0,0.0,0.0,0.0,0.0,0.0,0.0,0.0,0.0,0.0,0.0,0.0,0.0,0.0,0.0,0.0,0.0,0.0,0.0,0.0,0.0,0.0,0.0,0.0,0.0,0.0,0.0,0.0,0.0,0.0,0.0,0.0,0.0,0.0,0.0,0.0,0.0,0.0,0.0,0.0,0.0,0.0,0.0,0.0,0.0,0.0,0.0,0.0,0.0,0.0,6.2955,6.5688,6.8596,7.1762,7.1931,7.1344,7.0087,6.6654,6.2793,0.0,0.0,0.0,0.0,0.0,0.0,0.0,0.0,0.0,0.0,0.0,0.0,0.0,0.0,0.0,0.0,0.0,0.0,0.0,0.0,0.0,0.0,0.0,0.0,0.0,0.0,0.0,0.0,0.0,0.0,0.0,0.0,0.0,0.0,0.0,0.0,0.0,0.0,0.0,0.0,5.2635,5.39,5.5486,0.0,0.0,0.0,0.0,0.0,0.0,5.4678,5.432,0.0,0.0,0.0,0.0,0.0,0.0,0.0,0.0,0.0,0.0,0.0,0.0,0.0,0.0,0.0,0.0,0.0,0.0,0.0,0.0,0.0,0.0,0.0,0.0,0.0,0.0,0.0,0.0,0.0,0.0,0.0,0.0,0.0,0.0,0.0,0.0,0.0,0.0,0.0,0.0,0.0,0.0,0.0,0.0,0.0,0.0,0.0,0.0,0.0,0.0,0.0,0.0,0.0,0.0,0.0,6.3582,6.6704,6.962,7.2363,7.2532,7.1725,7.0073,6.6754,6.2842,0.0,0.0,0.0,0.0,0.0,0.0,0.0,0.0,0.0,0.0,0.0,0.0,0.0,0.0,0.0,0.0,0.0,0.0,0.0,0.0,0.0,0.0,0.0,0.0,0.0,0.0,0.0,0.0,0.0,0.0,0.0,0.0,0.0,0.0,0.0,0.0,0.0,0.0,0.0,0.0,0.0,5.7219,5.9161,5.8418,0.0,0.0,0.0,0.0,5.7275,5.8206,0.0,0.0,0.0,0.0,0.0,0.0,0.0,0.0,0.0,0.0,0.0,0.0,0.0,0.0,0.0,0.0,0.0,0.0,0.0,0.0,0.0,0.0,0.0,0.0,0.0,0.0,0.0,0.0,0.0,0.0,0.0,0.0,0.0,0.0,0.0,0.0,0.0,0.0,0.0,0.0,0.0,0.0,0.0,0.0,0.0,0.0,0.0,0.0,0.0,0.0,0.0,0.0,0.0,0.0,0.0,0.0,6.3557,6.7198,7.0173,7.2363,7.2532,7.1725,7.0073,6.5777,6.1832,0.0,0.0,0.0,0.0,0.0,0.0,0.0,0.0,0.0,0.0,0.0,0.0,0.0,0.0,0.0,0.0,0.0,0.0,0.0,0.0,0.0,0.0,0.0,0.0,0.0,0.0,0.0,0.0,0.0,0.0,0.0,0.0,0.0,0.0,0.0,0.0,0.0,0.0,0.0,0.0,0.0,5.838,6.1607,6.0049,5.8724,0.0,0.0,6.0114,6.1523,6.3605,0.0,0.0,0.0,0.0,0.0,0.0,0.0,0.0,0.0,0.0,0.0,0.0,0.0,0.0,0.0,0.0,0.0,0.0,0.0,0.0,0.0,0.0,0.0,0.0,0.0,0.0,0.0,0.0,0.0,0.0,0.0,0.0,0.0,0.0,0.0,0.0,0.0,0.0,0.0,0.0,0.0,0.0,0.0,0.0,0.0,0.0,0.0,0.0,0.0,0.0,0.0,0.0,0.0,0.0,0.0,6.0804,6.4267,6.829,7.1052,7.2459,7.2532,7.1945,7.0793,6.6305,6.2335,0.0,0.0,0.0,0.0,0.0,0.0,0.0,0.0,0.0,0.0,0.0,0.0,0.0,0.0,0.0,0.0,0.0,0.0,0.0,0.0,0.0,0.0,0.0,0.0,0.0,0.0,0.0,0.0,0.0,0.0,0.0,0.0,0.0,0.0,0.0,0.0,0.0,0.0,0.0,0.0,0.0,0.0,6.3663,6.4519,0.0,0.0,0.0,6.5711,6.5872,0.0,0.0,0.0,0.0,0.0,0.0,0.0,0.0,0.0,0.0,0.0,0.0,0.0,0.0,0.0,0.0,0.0,0.0,0.0,0.0,0.0,0.0,0.0,0.0,0.0,0.0,0.0,0.0,0.0,0.0,0.0,0.0,0.0,0.0,0.0,0.0,0.0,0.0,0.0,0.0,0.0,0.0,0.0,0.0,0.0,0.0,0.0,0.0,0.0,0.0,0.0,0.0,0.0,0.0,0.0,0.0,0.0,6.5088,6.9389,7.1967,7.2753,7.2606,7.2114,7.1233,6.7187,0.0,0.0,0.0,0.0,0.0,0.0,0.0,0.0,0.0,0.0,0.0,0.0,0.0,0.0,0.0,0.0,0.0,0.0,0.0,0.0,0.0,0.0,0.0,0.0,0.0,0.0,0.0,3.7125,0.0,0.0,0.0,0.0,0.0,0.0,0.0,0.0,0.0,0.0,0.0,0.0,0.0,0.0,6.5806,6.634,6.9124,7.079,0.0,0.0,7.0893,7.0207,7.2058,7.164,0.0,0.0,0.0,0.0,0.0,0.0,0.0,0.0,0.0,0.0,0.0,0.0,0.0,0.0,0.0,0.0,0.0,0.0,0.0,0.0,0.0,0.0,0.0,0.0,0.0,0.0,0.0,0.0,0.0,0.0,0.0,0.0,0.0,0.0,0.0,0.0,0.0,0.0,0.0,0.0,0.0,0.0,0.0,0.0,0.0,0.0,0.0,0.0,0.0,0.0,0.0,0.0,0.0,0.0,0.0,6.5824,7.0159,7.2826,7.356,7.2899,7.2129,7.127,6.8125,6.4597,0.0,0.0,0.0,0.0,0.0,0.0,0.0,0.0,0.0,0.0,0.0,0.0,0.0,0.0,0.0,0.0,0.0,0.0,0.0,0.0,0.0,0.0,0.0,0.0,0.0,0.0,0.0,0.0,0.0,0.0,0.0,0.0,0.0,0.0,0.0,0.0,0.0,0.0,0.0,0.0,0.0,6.8648,7.0296,7.2834,7.4793,0.0,0.0,7.4522,7.447,7.7714,7.7656,6.9839,0.0,0.0,0.0,0.0,0.0,0.0,0.0,0.0,0.0,0.0,0.0,0.0,0.0,0.0,0.0,0.0,0.0,0.0,0.0,0.0,0.0,0.0,0.0,0.0,0.0,0.0,0.0,0.0,0.0,0.0,0.0,0.0,0.0,0.0,0.0,0.0,0.0,0.0,0.0,0.0,0.0,0.0,0.0,0.0,0.0,0.0,0.0,0.0,0.0,0.0,0.0,0.0,0.0,6.3531,6.6627,7.102,7.3634,7.4368,7.367,7.3083,7.2789,6.9278,6.5481,0.0,0.0,0.0,0.0,0.0,0.0,0.0,0.0,0.0,0.0,0.0,0.0,0.0,0.0,0.0,0.0,0.0,0.0,0.0,0.0,0.0,0.0,0.0,0.0,0.0,0.0,0.0,0.0,4.5752,4.6241,4.54,0.0,0.0,0.0,0.0,0.0,0.0,0.0,0.0,0.0,0.0,7.1374,7.3651,7.6228,0.0,0.0,7.8222,7.8096,7.6592,7.8133,7.7268,7.0697,6.7577,0.0,0.0,0.0,0.0,0.0,0.0,0.0,0.0,0.0,0.0,0.0,0.0,0.0,0.0,0.0,0.0,0.0,0.0,0.0,0.0,0.0,0.0,0.0,0.0,0.0,0.0,0.0,0.0,0.0,0.0,0.0,0.0,0.0,0.0,0.0,0.0,0.0,0.0,0.0,0.0,0.0,0.0,0.0,0.0,0.0,0.0,0.0,0.0,0.0,0.0,0.0,0.0,6.4387,6.8148,7.1844,7.4331,7.5601,7.4588,7.4037,7.3964,7.0965,6.7379,0.0,0.0,0.0,0.0,0.0,0.0,0.0,0.0,0.0,0.0,0.0,0.0,0.0,0.0,0.0,0.0,0.0,0.0,0.0,0.0,0.0,0.0,0.0,0.0,0.0,0.0,0.0,0.0,4.8515,4.846,4.728,0.0,0.0,0.0,0.0,0.0,0.0,0.0,0.0,0.0,0.0,7.4686,7.7097,7.9202,8.0362,7.9905,8.0315,8.0136,7.8419,7.8692,7.7316,7.2104,0.0,0.0,0.0,0.0,0.0,0.0,0.0,0.0,0.0,0.0,0.0,0.0,0.0,0.0,0.0,0.0,0.0,0.0,0.0,0.0,0.0,0.0,0.0,0.0,0.0,0.0,0.0,4.5294,0.0,0.0,4.3027,0.0,0.0,0.0,0.0,0.0,0.0,0.0,0.0,0.0,0.0,0.0,0.0,0.0,0.0,0.0,0.0,0.0,0.0,0.0,0.0,0.0,0.0,6.5242,7.0608,7.2714,7.4882,7.7142,7.5711,7.4903,7.4867,7.3266,7.0477,6.6379,0.0,0.0,0.0,0.0,0.0,0.0,0.0,0.0,0.0,0.0,0.0,0.0,0.0,0.0,0.0,0.0,0.0,0.0,0.0,0.0,0.0,0.0,0.0,0.0,0.0,0.0,4.9128,4.9836,5.0394,0.0,0.0,0.0,0.0,0.0,0.0,0.0,0.0,0.0,0.0,7.397,7.8814,8.0603,8.1595,8.2242,8.2581,8.1197,8.0082,8.0109,8.0139,7.8743,0.0,0.0,0.0,0.0,0.0,0.0,0.0,0.0,0.0,0.0,0.0,0.0,0.0,0.0,0.0,0.0,0.0,0.0,0.0,0.0,0.0,0.0,0.0,0.0,0.0,0.0,0.0,5.2177,5.1686,0.0,0.0,0.0,0.0,0.0,0.0,0.0,0.0,0.0,0.0,0.0,6.3208,6.3208,0.0,0.0,0.0,0.0,0.0,0.0,0.0,0.0,0.0,0.0,0.0,0.0,6.6891,7.0757,7.4284,7.7032,7.8846,7.7362,7.6518,7.6481,7.4441,7.066,6.5044,0.0,0.0,0.0,0.0,0.0,0.0,0.0,0.0,0.0,0.0,0.0,0.0,0.0,0.0,0.0,0.0,0.0,0.0,0.0,0.0,0.0,0.0,0.0,0.0,0.0,5.2637,0.0,0.0,0.0,0.0,0.0,0.0,0.0,0.0,0.0,0.0,0.0,6.7488,7.267,7.6344,7.9522,8.2327,8.3086,8.3703,0.0,0.0,0.0,0.0,0.0,0.0,0.0,0.0,0.0,0.0,0.0,0.0,0.0,0.0,6.8335,6.2336,6.2041,6.2852,6.3106,0.0,0.0,0.0,0.0,0.0,0.0,0.0,0.0,0.0,0.0,0.0,0.0,0.0,0.0,5.8084,0.0,5.6815,0.0,0.0,0.0,0.0,0.0,0.0,0.0,0.0,6.5995,6.8333,6.9305,6.9813,6.9356,0.0,6.5914,6.1655,0.0,0.0,0.0,0.0,0.0,0.0,0.0,0.0,6.8666,7.2002,7.5779,7.8537,8.0057,7.8883,7.8185,7.8096,7.5542,7.1505,6.5962,6.163,5.785,0.0,0.0,0.0,0.0,0.0,0.0,0.0,0.0,0.0,0.0,0.0,0.0,0.0,0.0,0.0,0.0,0.0,0.0,0.0,0.0,0.0,0.0,0.0,5.6,0.0,0.0,0.0,0.0,0.0,0.0,0.0,0.0,0.0,6.5536,6.8342,7.2321,7.7478,7.9664,8.1497,8.3472,0.0,0.0,0.0,0.0,0.0,0.0,0.0,8.0186,7.9072,7.8192,7.8284,8.0298,8.1008,8.106,8.0429,0.0,0.0,7.0307,6.9674,7.0453,7.0744,7.2054,7.3291,7.3853,7.5839,7.7476,0.0,0.0,0.0,0.0,0.0,0.0,0.0,0.0,6.3738,6.3379,0.0,6.2524,0.0,0.0,0.0,0.0,0.0,6.3281,0.0,0.0,7.369,7.5469,7.4412,7.5802,7.529,7.3009,7.1447,6.9777,6.7722,5.9549,0.0,0.0,0.0,0.0,0.0,0.0,7.0486,7.4228,7.7222,7.947,8.0975,8.0277,7.9853,7.9706,7.668,7.3142,6.9215,6.6035,6.2805,5.9526,5.5636,0.0,0.0,0.0,0.0,0.0,0.0,0.0,0.0,0.0,0.0,0.0,0.0,0.0,0.0,0.0,0.0,0.0,0.0,0.0,0.0,5.6712,0.0,0.0,0.0,0.0,0.0,0.0,0.0,0.0,0.0,0.0,7.1957,7.4404,7.7831,8.1897,0.0,0.0,0.0,0.0,8.5496,8.3781,8.3155,8.3075,8.3235,8.3645,8.3877,8.3807,0.0,0.0,8.7159,8.5884,8.4955,8.4845,8.6109,8.5049,7.8772,7.7514,7.7587,7.8301,7.863,7.9105,8.0566,8.188,8.2703,7.3093,0.0,0.0,0.0,0.0,6.7232,6.9663,7.3386,7.3423,7.2958,7.2143,7.0796,0.0,0.0,0.0,0.0,0.0,0.0,7.1821,7.4711,7.8499,8.0615,8.1306,8.2335,8.1917,8.0139,7.8024,7.5893,7.3639,6.9485,6.5201,6.0863,0.0,0.0,0.0,0.0,7.2323,7.5073,7.9075,8.1379,8.1856,8.1636,8.0954,7.9816,7.7745,7.5527,7.3252,7.0646,6.776,6.453,6.108,0.0,0.0,0.0,0.0,0.0,0.0,0.0,0.0,0.0,0.0,0.0,0.0,0.0,0.0,0.0,0.0,0.0,0.0,0.0,5.7496,5.9465,6.0443,0.0,0.0,0.0,0.0,0.0,0.0,0.0,0.0,0.0,8.1596,8.0177,8.0157,0.0,0.0,8.4097,8.4546,8.6017,8.7267,8.7763,8.7854,0.0,8.9283,8.8163,8.7338,8.784,8.9889,9.138,9.1363,9.2354,9.3179,9.3124,9.3051,9.2299,9.0594,8.7716,8.6013,8.6159,8.7057,8.8156,8.9293,9.0575,9.151,8.2249,7.6799,7.2973,7.2282,7.3706,7.4398,7.6787,8.0282,8.059,8.0087,7.9023,7.8154,7.5724,7.2129,7.0814,0.0,0.0,0.0,7.7085,8.0042,8.2613,8.4279,8.5221,8.632,8.6064,8.454,8.3091,8.1343,7.9298,7.6982,7.371,6.9445,0.0,0.0,6.7714,7.173,7.4737,7.6737,8.0315,8.2186,8.2186,8.2186,8.1762,8.0771,7.947,7.8023,7.6408,7.4647,7.2334,6.9449,6.6256,6.2658,0.0,0.0,0.0,0.0,0.0,0.0,0.0,0.0,0.0,0.0,0.0,4.9221,0.0,0.0,0.0,0.0,5.5792,5.8415,6.2205,6.3135,0.0,0.0,0.0,0.0,0.0,0.0,0.0,7.5812,7.9948,8.4036,8.7569,8.6196,8.5487,8.7336,8.7237,8.6953,8.6819,0.0,8.991,9.0227,9.0576,9.1185,9.2331,9.1598,9.1268,9.2738,9.4337,9.5437,9.5547,9.6722,9.764,9.7603,9.7273,9.6923,9.6923,9.4868,9.2886,9.2042,9.2556,9.3602,9.474,9.5804,9.6539,9.0307,8.8934,8.1164,7.8603,7.9741,8.1275,8.3114,8.5078,8.5851,8.5328,8.3934,8.4443,8.2738,7.9457,7.8965,0.0,8.0606,8.0644,8.22,8.4895,8.6305,8.7052,8.7232,8.8651,8.8519,8.7071,8.6996,8.6102,8.4392,8.2367,8.0504,7.8796,7.3919,7.1652,7.224,7.5147,7.7378,7.8768,8.1108,8.2313,8.2296,8.2223,8.2186,8.215,8.1415,8.0314,7.8846,7.7949,7.6408,7.4037,7.1027,6.7527,6.3527,0.0,0.0,0.0,0.0,0.0,0.0,0.0,0.0,0.0,0.0,0.0,0.0,0.0,0.0,0.0,6.1386,0.0,6.7774,6.7517,0.0,0.0,0.0,7.195,7.4457,7.7585,8.0425,8.2707,0.0,0.0,9.0822,9.1945,9.2498,9.2627,9.2443,9.1778,9.0423,9.2108,9.3104,9.1955,9.2255,9.2958,9.3933,9.4338,9.5273,9.7219,9.8631,9.8831,9.8831,9.8941,9.9052,9.9145,9.9125,9.9071,9.9162,9.8831,9.8447,9.6208,9.5785,9.6282,9.7603,9.8063,9.83,9.3707,9.2838,9.0833,8.9078,8.7722,8.8751,8.9469,8.9994,9.0784,9.0233,8.8684,8.8083,8.6541,8.4404,8.4946,8.5698,8.6635,8.724,8.8278,8.9564,9.0588,9.1078,9.1155,9.2114,9.1803,9.0376,8.9695,8.858,8.7034,8.5371,8.3756,8.2271,8.0467,7.7872,7.4769,7.7104,7.8529,7.8799,8.175,8.3198,8.3104,8.2517,8.2186,8.2186,8.1415,8.0812,8.0424,7.9653,7.8369,7.6481,7.4536,7.1945,6.8495,6.3172,0.0,0.0,0.0,0.0,0.0,0.0,0.0,0.0,0.0,5.4713,5.5594,0.0,6.1007,0.0,6.6096,6.9192,7.1174,7.2312,0.0,0.0,7.5844,7.7586,8.0005,8.2594,8.4702,8.6012,8.9364,9.2146,9.3491,9.489,9.6215,9.7203,9.531,9.3639,9.3327,9.4723,9.577,9.5514,9.6414,9.7477,9.7551,9.7843,9.8117,9.8741,9.8998,9.9088,9.9088,9.9088,9.9272,9.9842,9.9512,9.9402,9.9952,9.9548,9.9255,9.9071,9.8668,9.8521,9.9512,9.9732,9.9952,9.6667,9.6221,9.626,9.5421,9.4151,9.3917,9.4022,9.4389,9.5177,9.4773,9.3488,9.2168,9.0839,8.9547,8.9979,9.0479,9.0949,9.1402,9.1864,9.2326,9.2826,9.3018,9.3056,9.348,9.3274,9.2475,9.1977,9.0944,8.9403,8.8216,8.6715,8.4923,8.4153,8.2234,7.9215,7.977,8.025,8.0564,8.2181,8.3357,8.3875,8.281,8.2072,8.1732,8.0977,8.022,7.9584,7.9121,7.8311,7.7023,7.5772,7.3623,7.0317,6.6176,6.2585,0.0,0.0,0.0,0.0,0.0,0.0,0.0,0.0,0.0,0.0,0.0,6.6733,6.8752,7.1248,7.3597,7.5579,7.7194,7.8772,8.0277,8.1893,8.3691,8.571,8.8096,8.9948,9.0882,9.3529,9.5809,9.6948,9.7848,9.8858,10.0009,9.8631,9.7236,9.6649,9.7236,9.775,9.7823,9.8521,9.9088,9.9088,9.9732,10.0026,9.9732,9.9916,10.0172,10.0172,10.0172,10.0429,10.1127,10.1017,10.0943,10.1677,10.1237,10.098,10.1567,10.1274,10.0943,10.1274,10.1384,10.1531,9.9442,9.9442,9.9442,9.9442,9.9375,9.8014,9.7612,9.7891,9.8756,9.8596,9.7557,9.6105,9.5066,9.4364,9.4373,9.4287,9.4172,9.4181,9.4134,9.4018,9.4027,9.4018,9.4018,9.4018,9.4027,9.4027,9.3903,9.3133,9.1692,9.0919,8.9353,8.7147,8.6341,8.5342,8.4113,8.2655,8.2268,8.2828,8.2655,8.3104,8.4242,8.2843,8.1732,8.1066,8.0272,7.928,7.7998,7.7865,7.7422,7.6624,7.5923,7.4168,7.108,6.8525,6.5529,0.0,6.0774,0.0,0.0,0.0,0.0,0.0,0.0,0.0,0.0,7.0787,7.3399,7.5784,7.6827,7.8295,8.0661,8.2406,8.4315,8.6498,8.8169,8.9784,9.14,9.3455,9.507,9.5859,9.7273,9.8741,9.9972,10.0466,10.087,10.1457,10.1604,10.1053,10.0026,9.9659,9.9639,9.9695,9.9732,10.0099,10.0099,10.098,10.1587,10.1017,10.1347,10.1808,10.1844,10.1808,10.2008,10.2669,10.2779,10.2999,10.377,10.3256,10.3072,10.3586,10.3146,10.2742,10.2779,10.2779,10.2852,10.2943,10.2943,10.2943,10.2943,10.2904,10.2622,10.0996,9.8691,10.0173,9.9981,9.8557,9.8211,9.799,9.7827,9.7827,9.7442,9.6788,9.6788,9.6442,9.5826,9.5826,9.5826,9.5788,9.5826,9.5826,9.5788,9.5104,9.4604,9.4249,9.2898,9.1415,8.9818,8.8532,8.7494,8.6726,0.0,0.0,0.0,8.3374,8.3027,8.2643,8.1838,8.1035,8.0256,7.9568,0.0,7.8788,7.816,7.7422,7.6661,7.6439,0.0,0.0,0.0,0.0,0.0,0.0,0.0,0.0,0.0,0.0,0.0,7.5072,7.4705,7.2834,7.6019,7.9176,8.1546,8.3104,8.4682,8.6444,8.8683,9.05,9.162,9.3161,9.4777,9.6318,9.6906,9.753,9.8337,9.9255,9.9952,10.0393,10.142,10.2265,10.2485,10.3036,10.3293,10.2999,10.2338,10.2265,10.2815,10.2742,10.2889,10.2999,10.3146,10.3219,10.3256,10.3293,10.3403,10.3366,10.3366,10.3403,10.366,10.366,10.3696,10.3917,10.377,10.3733,10.388,10.3806,10.366,10.366,10.366,10.366,10.3905,10.3905,10.3905,10.3905,0.0,10.4328,10.3299,10.1366,10.2212,10.1635,10.0019,9.9596,9.9221,9.8788,9.8788,9.8557,9.8134,9.8134,9.7942,9.7557,9.7519,9.7519,9.7519,9.7557,9.7326,9.6865,9.6442,9.5826,9.4962,9.3844,9.2547,9.1076,8.997,8.9087,8.8409,8.7619,8.6491,8.5005,8.442,8.4068,8.3965,8.326,8.2164,8.0661,7.9891,0.0,0.0,0.0,0.0,0.0,0.0,0.0,0.0,0.0,0.0,7.251,7.2459,7.2826,7.3707,7.6313,7.8736,8.0755,8.3141,8.3141,7.9926,8.2663,8.5233,8.6794,8.8426,8.9895,9.1143,9.3418,9.5052,9.5474,9.6539,9.764,9.8374,9.8851,9.9402,10.0209,10.1017,10.1604,10.2045,10.2705,10.3256,10.3329,10.3623,10.4063,10.4357,10.3806,10.3476,10.3843,10.388,10.388,10.388,10.388,10.3917,10.388,10.388,10.388,10.388,10.388,10.4027,10.4357,10.4504,10.4614,10.5018,10.4798,10.4614,10.4944,10.4798,10.4687,10.4981,10.4798,10.4504,10.4328,10.4328,10.4366,10.4328,10.4405,10.5059,10.4943,10.4328,0.0,0.0,0.0,10.0904,10.0135,9.9481,9.9327,9.9173,9.9029,9.9019,9.8942,9.8788,9.8788,9.8788,9.8788,9.8788,9.8404,9.775,9.7711,9.7019,9.5663,9.4923,9.3818,9.249,9.143,9.0413,8.9471,8.9546,8.8626,8.6722,8.5839,8.5588,8.5984,8.523,8.3827,8.1692,8.0861,7.9501,7.7547,7.6661,7.5959,7.5332,7.5923,7.5925,7.5264,7.6501,7.6942,7.6328,7.7693,7.9014,8.0057,8.2794,8.527,8.7196,9.0005,9.0372,8.7342,8.905,9.0647,9.162,9.3088,9.4226,9.4887,9.6942,9.8393,9.854,9.9108,9.9622,9.9952,10.0356,10.1017,10.1844,10.2485,10.3146,10.3696,10.399,10.41,10.4137,10.432,10.4541,10.5091,10.4798,10.443,10.4504,10.4577,10.443,10.4357,10.443,10.432,10.4467,10.443,10.432,10.432,10.432,10.4614,10.5238,10.5327,10.5532,10.5935,10.5495,10.5385,10.6009,10.5495,10.5201,10.6046,10.5715,10.5144,10.602,10.6049,10.6059,10.6059,10.6059,10.6164,10.6174,10.5944,10.452,10.3751,10.3482,10.2635,10.2174,10.202,10.1289,10.0558,9.9952,9.9913,9.9529,9.8788,9.8788,9.8788,9.8788,9.8788,9.875,9.8634,9.8596,9.8481,9.8202,9.7366,9.6567,9.5517,9.3538,9.1492,8.9615,9.0097,8.9931,8.8958,8.8131,8.7416,8.6848,8.6159,8.4993,8.3332,8.2629,8.1785,8.0766,7.9969,7.9474,7.9364,7.9474,7.9709,8.0161,8.0434,8.0709,8.1211,8.2663,8.4225,8.5727,8.7528,8.9877,9.2831,9.4813,9.4777,9.2391,9.3015,9.4226,9.5658,9.6612,9.7236,9.7493,9.8961,10.0246,10.0833,10.1073,10.1698,10.2815,10.2595,10.2595,10.3329,10.3623,10.377,10.4063,10.4541,10.4923,10.5054,10.5422,10.6009,10.5972,10.6119,10.6046,10.6046,10.6046,10.6046,10.5862,10.6009,10.5899,10.6046,10.5935,10.5825,10.5825,10.5752,10.5789,10.6119,10.6009,10.5899,10.5495,10.5217,10.5254,10.5458,10.4871,10.4798,10.6082,10.5752,10.5422,10.6395,10.6395,10.6395,10.6395,10.6395,10.6395,10.6395,10.6318,10.5597,10.4982,10.4482,10.3674,10.3289,10.3251,10.2904,10.252,10.2145,10.2145,10.1943,10.1558,10.1568,10.1558,10.152,10.1096,10.0596,10.0173,9.9712,9.9259,9.8769,9.8012,9.7467,9.7019,9.5601,9.4334,9.3411,9.3684,9.3684,9.3258,9.0361,8.8666,8.8299,8.8001,8.7282,8.6123,8.5725,8.52,8.4398,8.398,8.3594,8.3121,8.357,8.3903,8.426,8.548,8.6573,8.7337,8.8891,9.0333,9.1475,9.305,9.4829,9.6743,9.7566,9.797,9.7713,9.7199,9.7199,9.797,9.9108,9.9862,9.9899,10.1274,10.2412,10.2742,10.2779,10.2925,10.3182,10.3403,10.3513,10.388,10.4284,10.4724,10.5201,10.5568,10.5789,10.5862,10.6192,10.6229,10.5789,10.5678,10.5862,10.6266,10.6376,10.6376,10.6376,10.6376,10.6376,10.6376,10.6376,10.6376,10.6339,10.6082,10.5752,10.5715,10.5715,10.5568,10.5107,10.5532,10.5752,10.5789,10.5568,10.5678,10.6156,10.6046,10.6009,10.6395,10.6395,10.6395,10.6395,10.6395,10.6395,10.6395,10.6395,10.6395,10.602,10.5328,10.453,10.4174,10.4135,10.3982,10.3866,10.3905,10.3905,10.3866,10.3905,10.3905,10.3905,10.3828,10.3174,10.2558,10.1866,10.125,10.0491,9.9663,9.8872,9.8212,9.7706,9.7122,9.6753,9.6587,9.6587,9.6587,9.6366,9.2907,9.1017,9.1017,9.1034,9.0644,8.988,8.9799,8.9361,8.8633,8.8511,8.8192,8.76,8.8117,8.8558,8.881,9.0535,9.1958,9.2814,9.4211,9.5399,9.6227,9.7568,9.8717,9.9554,9.9659,10.0319,10.1677,10.0907,10.0209,10.0319,10.131,10.2028,10.2138,10.3036,10.3953,10.4137,10.3806,10.3513,10.3329,10.3513,10.3806,10.4137,10.4724,10.5422,10.6119,10.6376,10.6266,10.6046,10.6082,10.5752,10.5054,10.4813,10.5201,10.5825,10.6119,10.6156,10.6302,10.6376,10.6376,10.6376,10.6376,10.6266,10.6082,10.5495,10.5034,10.4923,10.4834,10.4687,10.4667,10.5165,10.5568,10.5568,10.5458,10.5715,10.5935,10.6229,10.6449,10.6395,10.6395,10.6395,10.6395,10.6395,10.6395,10.6395,10.6395,10.6395,10.6395,10.6136,10.5366,10.4992,10.4866,10.4251,10.3982,10.3982,10.3905,10.3943,10.3943,10.3905,10.3905,10.3982,10.3828,10.3712,10.3635,10.3482,10.2904,10.2097,10.1307,9.986,9.7952,9.7606,9.7338,9.6736,9.6667,9.6653,9.6625,9.6144,9.596,9.5946,9.5922,9.556,9.4745,9.4688,9.4366,9.3399,9.3542,9.3469,9.3431,9.3434,9.3823,9.4465,9.4816,9.5344,9.6138,9.7082,9.7906,9.8726,9.9555,10.0494,10.1176,10.1354,10.1975,10.346,10.3513,10.3439,10.3403,10.3549,10.3586,10.3696,10.388,10.4284,10.474,10.3806,10.3309,10.43,10.366,10.3366,10.4871,10.5034,10.5422,10.6192,10.6339,10.6009,10.5458,10.5275,10.4944,10.421,10.4027,10.432,10.4981,10.5201,10.5568,10.6119,10.6376,10.6376,10.6376,10.6376,10.6082,10.5532,10.5165,10.4908,10.432,10.41,10.3917,10.366,10.3586,10.4357,10.4834,10.4761,10.4541,10.5128,10.5899,10.6559,10.6395,10.6395,10.6395,10.6395,10.6395,10.6395,10.6395,10.6395,10.6395,10.6395,10.6356,10.602,10.5867,10.5867,10.552,10.5366,10.5366,10.5366,10.5366,10.5366,10.5405,10.5366,10.5328,10.4828,10.4607,10.4569,10.4135,10.3712,10.3289,10.2481,10.1564,10.0648,10.009,9.9666,9.9404,9.9354,9.9393,9.9393,9.9354,9.9393,9.9147,9.7537,9.6436,9.6227,9.6538,9.6641,9.6349,9.6699,9.6893,9.6969,9.7401,9.7821,9.8192,9.911,9.9798,10.0168,10.0971,10.1801,10.2635,10.3031,10.3361,10.3669,10.3705,10.4011,10.4529,10.4614,10.4798,10.5238,10.4908,10.4614,10.4651,10.5054,10.5348,10.5107,10.4504,10.421,10.4284,10.3843,10.388,10.4923,10.5107,10.5422,10.6082,10.5972,10.5532,10.507,10.474,10.4173,10.3366,10.3182,10.3549,10.41,10.4027,10.4541,10.5899,10.6376,10.6376,10.6302,10.5935,10.5422,10.5144,10.4153,10.366,10.3806,10.377,10.3917,10.432,10.4798,10.5385,10.5311,10.5385,10.5605,10.6413,10.6449,10.6801,10.6395,10.6395,10.6395,10.6395,10.6395,10.6395,10.6395,10.6395,10.6395,10.6395,10.6395,10.6395,10.6395,10.6395,10.6395,10.6395,10.6395,10.6395,10.6395,10.6395,10.6395,10.6395,10.6318,10.579,10.5443,10.5366,10.4905,10.4482,10.4174,10.3366,10.2943,10.2866,10.2327,10.202,10.202,10.201,10.202,10.201,10.202,10.201,10.1718,9.9784,9.8503,9.8352,9.8985,9.9407,9.9418,9.9908,10.0212,10.0212,10.0798,10.1145,10.1183,10.2327,10.3058,10.3328,10.4097,10.4846,10.5498,10.5727,10.5875,10.5892,10.5876,10.584,10.5802,10.578,10.5932,10.6213,10.5825,10.5458,10.5532,10.6009,10.6082,10.5532,10.5311,10.4871,10.4357,10.41,10.4173,10.4923,10.5107,10.5422,10.6082,10.5899,10.5495,10.5107,10.4614,10.3953,10.3256,10.3109,10.3366,10.4063,10.377,10.4173,10.5678,10.5678,10.5789,10.5862,10.5348,10.4798,10.4703,10.3513,10.2779,10.3329,10.3366,10.3623,10.41,10.5091,10.6046,10.6266,10.6376,10.647,10.6838,10.6801,10.6911,10.6395,10.6395,10.6395,10.6395,10.6395,10.6395,10.6395,10.6395,10.6395,10.6395,10.6395,10.6395,10.6395,10.6395,10.6395,10.6395,10.6395,10.6395,10.6395,10.6395,10.6395,10.6395,10.6395,10.6356,10.6318,10.6213,10.6126,10.5751,10.502,10.4251,10.3866,10.3828,10.3674,10.3712,10.3635,10.3597,10.3712,10.3597,10.3597,10.3674,10.3712,10.3498,10.2927,10.2292,10.3075,10.3296,10.3431,10.3577,10.3568,10.3635,10.3558,10.3635,10.3712,10.3828,10.4289,10.4982,10.5828,10.6315,10.6527,10.7164,10.7583,10.7599,10.7594,10.7545,10.7366,10.7386,10.7158,10.6528,10.6475,10.6318,10.6355,10.6329,10.636,10.6156,10.5532,10.5107,10.5034,10.4284,10.432,10.4981,10.5217,10.5568,10.6266,10.6376,10.5825,10.529,10.5034,10.4651,10.3953,10.377,10.41,10.4687,10.485,10.4997,10.5107,10.5238,10.4981,10.5018,10.5018,10.4063,10.3696,10.3329,10.3036,10.2815,10.2779,10.3072,10.3696,10.4394,10.5201,10.5715,10.6266,10.6523,10.6727,10.7168,10.7205,10.6395,10.6395,10.6395,10.6395,10.6395,10.6395,10.6395,10.6395,10.6395,10.6395,10.6395,10.6395,10.6395,10.6395,10.6395,10.6395,10.6395,10.6395,10.6395,10.6395,10.6395,10.6395,10.6395,10.6395,10.6395,10.6395,10.6395,10.6241,10.5867,10.5059,10.4684,10.4559,10.4135,10.3905,10.3905,10.3905,10.3905,10.3905,10.3905,10.3905,10.3982,10.4405,10.4482,10.4212,10.3982,10.3905,10.3905,10.3905,10.3905,10.3905,10.4376,10.4674,10.4751,10.5713,10.6444,10.679,10.7559,10.8244,10.876,10.9098,10.9286,10.9295,10.9311,10.9,10.8559,10.8418,10.8302,10.7972,10.7441,10.7191,10.7052,10.6722,10.6156,10.5642,10.529,10.5144,10.496,10.443,10.443,10.5568,10.5935,10.6082,10.6156,10.5935,10.5458,10.5144,10.4687,10.432,10.4027,10.3917,10.4284,10.4798,10.4687,10.4504,10.507,10.5458,10.5568,10.5385,10.5091,10.4284,10.377,10.3293,10.2925,10.3586,10.3256,10.366,10.4724,10.5201,10.5715,10.5899,10.6376,10.6376,10.6376,10.6801,10.6764,10.6395,10.6395,10.6395,10.6395,10.6395,10.6395,10.6395,10.6395,10.6395,10.6395,10.6395,10.6395,10.6395,10.6395,10.6395,10.6395,10.6395,10.6395,10.6395,10.6395,10.6395,10.6395,10.6395,10.6395,10.6395,10.6395,10.6395,10.6395,10.6318,10.5828,10.552,10.5482,10.4943,10.4713,10.4713,10.4713,10.4713,10.4713,10.4713,10.4713,10.4789,10.5213,10.552,10.5443,10.4982,10.4713,10.4713,10.4713,10.4713,10.4789,10.5251,10.552,10.5674,10.6905,10.7713,10.779,10.8713,10.956,11.0098,11.0444,11.0616,11.0612,11.0576,11.0254,10.9453,10.9333,10.9212,10.8845,10.8418,10.7953,10.7628,10.7333,10.6735,10.5783,10.5532,10.5532,10.5495,10.5054,10.5275,10.6046,10.6339,10.6376,10.6339,10.5899,10.5642,10.5532,10.5018,10.4724,10.4687,10.4724,10.4834,10.5385,10.5201,10.5165,10.5495,10.5899,10.5715,10.5495,10.5018,10.432,10.4027,10.3476,10.3403,10.4063,10.4651,10.5128,10.5642,10.6119,10.6339,10.6376,10.6376,10.6376,10.6376,10.6376,10.6413,10.6395,10.6395,10.6395,10.6395,10.6395,10.6395,10.6395,10.6395,10.6395,10.6395,10.6395,10.6395,10.6395,10.6395,10.6395,10.6395,10.6395,10.6395,10.6395,10.6395,10.6395,10.6395,10.6395,10.6395,10.6395,10.6395,10.6395,10.6395,10.6356,10.628,10.628,10.6318,10.6203,10.6097,10.629,10.6164,10.6241,10.6164,10.6126,10.6203,10.6356,10.628,10.629,10.628,10.6241,10.6174,10.628,10.6241,10.6164,10.6203,10.628,10.6356,10.6405,10.7213,10.7752,10.8021,10.9252,11.0098,11.0329,11.0983,11.1357,11.1385,11.1429,11.1043,11.0359,11.0291,11.0073,10.9515,10.9214,10.8806,10.8307,10.8392,10.8024,10.6717,10.6376,10.6523,10.6413,10.6413,10.6376,10.6507,10.6523,10.6434,10.6376,10.6266,10.6192,10.6192,10.6156,10.6046,10.5972,10.5972,10.6229,10.6266,10.6046,10.5899,10.6119,10.6339,10.5862,10.5385,10.4761,10.4173,10.4504,10.4284,10.4173,10.4651,10.4834,10.5311,10.5678,10.6156,10.6339,10.6376,10.6376,10.6376,10.6376,10.6376,10.6376,10.6395,10.6395,10.6395,10.6395,10.6395,10.6395,10.6395,10.6395,10.6395,10.6395,10.6395,10.6395,10.6395,10.6395,10.6395,10.6395,10.6395,10.6395,10.6395,10.6395,10.6395,10.6395,10.6395,10.6395,10.6395,10.6395,10.6395,10.6395,10.6395,10.6395,10.6395,10.6395,10.6395,10.6395,10.6395,10.6395,10.6395,10.6395,10.6395,10.6395,10.6395,10.6395,10.6395,10.6395,10.6395,10.6395,10.6395,10.6395,10.6395,10.6395,10.6395,10.6395,10.6549,10.7213,10.7944,10.8559,10.956,11.0483,11.106,11.1318,11.1511,11.1511,11.1511,11.1407,11.1239,11.1604,11.1751,11.1519,11.1498,11.1352,11.106,11.016,10.887,10.667,10.7367,10.7734,10.7367,10.7661,10.7734,10.7315,10.7241,10.7021,10.6523,10.6376,10.6376,10.6376,10.6376,10.6376,10.6376,10.6376,10.6376,10.6376,10.6376,10.6376,10.6376,10.6376,10.6119,10.5789,10.5238,10.4761,10.5018,10.5128,10.5091,10.5091,10.5275,10.5495,10.5862,10.6082,10.6302,10.6376,10.6376,10.6376,10.6376,10.6376,10.6376,10.6395,10.6395,10.6395,10.6395,10.6395,10.6395,10.6395,10.6395,10.6395,10.6395,10.6395,10.6395,10.6395,10.6395,10.6395,10.6395,10.6395,10.6395,10.6395,10.6395,10.6395,10.6395,10.6395,10.6395,10.6395,10.6395,10.6395,10.6395,10.6395,10.6395,10.6395,10.6395,10.6395,10.6395,10.6395,10.6395,10.6395,10.6395,10.6395,10.6395,10.6395,10.6395,10.6549,10.6828,10.6905,10.7049,10.728,10.7328,10.7021,10.6587,10.6703,10.6867,10.6972,10.7982,10.8829,10.9406,11.0175,11.0944,11.1434,11.1472,11.1665,11.1857,11.1934,11.2126,11.2395,11.2983,11.3176,11.3176,11.3141,11.3061,11.2573,11.2113,11.0359,10.808,10.832,10.8585,10.8196,10.8468,10.8358,10.7792,10.7572,10.7168,10.6633,10.6376,10.6376,10.6376,10.6376,10.6376,10.6376,10.6376,10.6413,10.6413,10.6376,10.6376,10.6376,10.6376,10.6376,10.6192,10.5899,10.5678,10.5715,10.5752,10.5715,10.5752,10.5899,10.5899,10.6192,10.6229,10.6376,10.6376,10.6376,10.6376,10.6376,10.6376,10.6376,10.6395,10.6395,10.6395,10.6395,10.6395,10.6395,10.6472,10.651,10.6395,10.6433,10.651,10.6444,10.6395,10.6395,10.6395,10.6395,10.6395,10.6395,10.6395,10.6395,10.6395,10.6395,10.6395,10.6395,10.6395,10.6395,10.6395,10.6395,10.6395,10.6395,10.6395,10.6395,10.6395,10.6395,10.6395,10.6395,10.6395,10.6395,10.6395,10.6395,10.651,10.651,10.6944,10.7675,10.779,10.8059,10.8559,10.8598,10.8059,10.6895,10.7405,10.7752,10.8021,10.929,10.9906,11.006,11.0983,11.1406,11.1549,11.1857,11.2099,11.2714,11.2829,11.3099,11.3676,11.3907,11.406,11.406,11.4159,11.3964,11.3456,11.3421,11.2588,11.061,10.9469,10.901,10.8982,10.9055,10.8835,10.8159,10.7755,10.7425,10.678,10.6633,10.667,10.6559,10.667,10.6816,10.6816,10.6926,10.6633,10.667,10.689,10.6727,10.6838,10.6413,10.6413,10.6339,10.6192,10.6192,10.6119,10.6119,10.6156,10.6229,10.6302,10.6339,10.6376,10.6376,10.6376,10.6376,10.6376,10.6376,10.6376,10.6376,10.6376,10.6395,10.6395,10.6395,10.6395,10.6395,10.6395,10.678,10.7251,10.6674,10.6867,10.7098,10.6674,10.6472,10.6395,10.6433,10.6395,10.6433,10.6433,10.6395,10.6395,10.6395,10.6395,10.6395,10.6395,10.6395,10.6395,10.6395,10.6395,10.6395,10.6395,10.6395,10.6395,10.6395,10.6395,10.6395,10.6395,10.6395,10.6395,10.6395,10.679,10.729,10.7367,10.7752,10.8482,10.8598,10.8713,10.8906,10.8906,10.8752,10.8329,10.8406,10.8598,10.8675,10.9175,10.979,11.0444,11.1098,11.1819,11.2368,11.2945,11.3407,11.3637,11.3637,11.3753,11.3984,11.4599,11.4868,11.5061,11.5445,11.5697,11.5426,11.5025,11.3873,11.216,11.0631,10.995,11.034,11.056,11.0267,10.9554,10.9297,10.86,10.7792,10.7661,10.7807,10.7477,10.7624,10.7991,10.7844,10.7734,10.7551,10.7771,10.7881,10.7535,10.7205,10.667,10.6413,10.6376,10.6339,10.6339,10.6302,10.6302,10.6302,10.6376,10.6339,10.6376,10.6376,10.6376,10.6376,10.6376,10.6376,10.6376,10.6376,10.6376,10.6376,10.6395,10.6395,10.6395,10.6626,10.6933,10.6933,10.7405,10.8021,10.7713,10.7713,10.8021,10.7713,10.7444,10.7405,10.7136,10.6982,10.6933,10.6944,10.6933,10.7021,10.7328,10.7098,10.6587,10.6395,10.6395,10.6395,10.6395,10.6395,10.6395,10.6395,10.6395,10.6395,10.6395,10.6395,10.6395,10.6395,10.6587,10.6856,10.6982,10.7367,10.8136,10.8213,10.8675,10.9252,10.9444,10.956,10.9906,11.0021,10.9713,10.9175,10.9213,10.9598,10.9983,11.0367,11.0868,11.1714,11.2291,11.2791,11.3176,11.3753,11.4137,11.4445,11.4522,11.4753,11.5061,11.5561,11.5792,11.588,11.6264,11.6446,11.6355,11.5715,11.4611,11.3211,11.1863,11.1099,11.1214,11.1148,11.0817,11.0267,10.99,10.9569,10.8269,10.8578,10.8505,10.8285,10.8395,10.8615,10.8652,10.8578,10.8578,10.8688,10.8431,10.7939,10.7755,10.7367,10.7058,10.6948,10.6764,10.6743,10.6559,10.6486,10.6413,10.6413,10.6413,10.6376,10.6376,10.6376,10.6376,10.6376,10.6376,10.6376,10.6376,10.6376,10.6376,10.6395,10.6433,10.651,10.6982,10.7636,10.779,10.829,10.8944,10.879,10.8867,10.8983,10.8906,10.8636,10.8867,10.8059,10.7829,10.7829,10.7829,10.7829,10.7982,10.8252,10.8059,10.7021,10.6972,10.6867,10.6751,10.6587,10.678,10.6944,10.6828,10.6751,10.6905,10.6828,10.6703,10.6933,10.6818,10.7098,10.7675,10.7829,10.8213,10.8906,10.906,10.9483,11.0214,11.056,11.0868,11.1368,11.1598,11.1175,10.9598,11.0098,11.0829,11.1598,11.2329,11.3022,11.3637,11.383,11.406,11.4176,11.433,11.4638,11.5253,11.5407,11.5687,11.6149,11.633,11.638,11.6341,11.6572,11.6792,11.6843,11.597,11.4914,11.3952,11.3075,11.2095,11.1453,11.1221,11.0928,11.0267,11.012,10.9716,10.9202,10.8982,10.9055,10.9055,10.9239,10.9569,10.9569,10.9423,10.9386,10.9423,10.8909,10.8196,10.8159,10.8138,10.7866,10.7645,10.7425,10.7241,10.6911,10.6764,10.6581,10.6507,10.6413,10.6376,10.6376,10.6376,10.6413,10.6376,10.6376,10.6376,10.6376,10.6376,10.6376,10.6395,10.6472,10.7126,10.7521,10.779,10.8367,10.9136,10.9867,10.9213,10.9367,10.9637,10.9252,10.8983,10.8944,10.879,10.8636,10.8636,10.8636,10.8636,10.8675,10.8752,10.879,10.8367,10.8329,10.8021,10.7713,10.8059,10.829,10.829,10.8175,10.8329,10.8252,10.8098,10.8329,10.8252,10.8136,10.8406,10.8636,10.8636,10.9098,10.9752,10.9944,11.0329,11.1175,11.1791,11.2214,11.2522,11.3099,11.3253,11.2906,11.2445,11.2329,11.2637,11.3291,11.3868,11.4214,11.4753,11.5022,11.5138,11.5599,11.5984,11.6176,11.6253,11.6292,11.6418,11.6561,11.6522,11.6638,11.71,11.7753,11.8058,11.6407,11.5311,11.4602,11.3407,11.2163,11.1434,11.1221,11.1074,11.0964,11.0854,11.0634,10.99,11.0304,11.023,10.9936,11.012,11.056,11.045,11.0193,11.012,11.0047,10.9423,10.8857,10.9129,10.8945,10.8453,10.8343,10.8159,10.7866,10.7498,10.7352,10.7315,10.6911,10.6376,10.6376,10.6376,10.6544,10.6581,10.6486,10.6413,10.6449,10.6486,10.6449,10.6376,10.6395,10.6433,10.6895,10.7559,10.8252,10.8713,10.9637,11.056,11.0367,11.0367,11.0637,11.0291,11.0137,11.0098,10.9713,10.9521,10.9521,10.9521,10.9752,11.0021,11.0137,10.9906,10.9675,10.9752,10.956,10.8559,10.8636,10.8867,10.8906,10.8944,10.879,10.8906,10.8906,10.879,10.8906,10.8944,10.9098,10.9444,10.9521,10.9944,11.0675,11.0829,11.1214,11.206,11.2829,11.333,11.3368,11.3714,11.3945,11.3984,11.3945,11.3907,11.3945,11.433,11.4753,11.5215,11.5522,11.6099,11.6484,11.683,11.71,11.71,11.71,11.71,11.71,11.71,11.71,11.7292,11.7869,11.8627,11.895,11.7694,11.6292,11.5022,11.3916,11.2648,11.1564,11.1221,11.1221,11.1221,11.1148,11.1001,11.0928,11.1074,11.1038,11.056,11.056,11.0928,11.0744,11.056,11.0634,11.045,10.9863,10.9606,11.0047,10.979,10.904,10.893,10.893,10.8637,10.8285,10.8248,10.8269,10.7462,10.6523,10.6376,10.6413,10.6581,10.6691,10.6581,10.6544,10.6581,10.6581,10.6507,10.6413,10.6395,10.6395,10.6521,10.7444,10.8636,10.8867,10.9752,11.1098,11.1291,11.1137,11.1472,11.1511,11.1242,11.128,11.0714,11.0406,11.0367,11.0444,11.0714,11.1175,11.1203,11.0906,11.0637,11.0791,11.0665,10.9367,10.9483,10.9483,10.9444,10.929,10.9637,10.9406,10.9367,10.9598,10.9406,10.9367,10.9752,11.0329,11.0406,11.0829,11.1511,11.1714,11.2088,11.2906,11.3714,11.4176,11.4253,11.4445,11.4484,11.4445,11.5215,11.5599,11.5676,11.5715,11.5792,11.6495,11.6726,11.7138,11.7446,11.783,11.8023,11.8023,11.7984,11.7984,11.7984,11.7984,11.7984,11.8177,11.8638,11.9177,11.9369,11.8228,11.7017,11.5762,11.4657,11.3169,11.1851,11.1338,11.1221,11.1221,11.1221,11.1111,11.1111,11.1184,11.1221,11.1221,11.1258,11.1221,11.1038,11.0891,11.1001,11.0781,11.0157,10.979,11.012,11.0634,10.9863,10.9643,10.9679,10.9349,10.9019,10.8725,10.8431,10.7425,10.6727,10.667,10.6633,10.6706,10.6764,10.6654,10.6617,10.6617,10.6581,10.6544,10.6617,10.6395,10.6433,10.7213,10.7675,10.7982,10.8598,10.9444,11.0291,11.0444,11.0829,11.1445,11.1511,11.1511,11.1434,11.1395,11.1291,11.1175,11.1175,11.1291,11.1511,11.1511,11.128,11.128,11.1318,11.1242,11.1203,11.0934,11.0818,11.0895,11.1049,11.0752,11.0934,11.0934,11.0895,11.0934,11.1049,11.106,11.1368,11.1445,11.1829,11.2319,11.2665,11.2983,11.3791,11.4599,11.5061,11.5291,11.5715,11.6072,11.6149,11.6946,11.7253,11.733,11.733,11.7176,11.7023,11.7792,11.8292,11.8215,11.8561,11.8831,11.8869,11.8869,11.8908,11.8869,11.8908,11.8946,11.8985,11.9177,11.9638,12.0973,11.9276,11.7912,11.6768,11.5205,11.3486,11.2472,11.1658,11.1243,11.1221,11.1221,11.1221,11.1258,11.1331,11.1478,11.1625,11.1735,11.1735,11.1662,11.1405,11.1258,11.0928,11.045,11.0157,11.0047,11.0707,11.0781,11.0487,11.0377,11.0047,10.9643,10.9129,10.8505,10.7954,10.7535,10.7425,10.7352,10.7183,10.7278,10.7425,10.7095,10.6727,10.6926,10.7183,10.7388,10.6395,10.6433,10.6867,10.729,10.7713,10.8098,10.8752,10.9521,10.9983,11.0406,11.0868,11.1291,11.1511,11.1511,11.1511,11.1511,11.1511,11.1511,11.1511,11.1511,11.1511,11.1511,11.1511,11.1511,11.1511,11.1472,11.1511,11.1549,11.1511,11.1472,11.1549,11.1472,11.1511,11.1703,11.2011,11.2088,11.2368,11.2599,11.2791,11.2945,11.3407,11.3714,11.4291,11.4714,11.5484,11.6099,11.6638,11.6869,11.7407,11.7792,11.8215,11.8446,11.86,11.8754,11.8715,11.8177,11.8677,11.9215,11.91,11.9523,11.9715,11.9715,11.9715,11.9715,11.9715,11.9754,11.9908,12.0139,11.9869,12.0216,12.137,11.9929,11.9045,11.8037,11.6041,11.4307,11.3197,11.2043,11.1594,11.1412,11.1331,11.1368,11.1272,11.1478,11.1735,11.1955,11.2176,11.2212,11.2249,11.2065,11.1808,11.1478,11.1074,11.0744,11.0487,11.0817,11.1221,11.1074,11.0964,11.0597,11.045,11.001,10.9606,10.9129,10.8783,10.8416,10.8358,10.8358,10.8285,10.8233,10.8269,10.8196,10.7918,10.7918,10.8138,10.6395,10.6395,10.6395,10.679,10.7367,10.7444,10.7905,10.8713,10.956,11.0021,11.0329,11.1098,11.1511,11.1511,11.1511,11.1511,11.1511,11.1511,11.1511,11.1511,11.1511,11.1511,11.1511,11.1511,11.1511,11.1511,11.1819,11.1742,11.178,11.1588,11.1665,11.2011,11.1972,11.2126,11.2791,11.2983,11.3483,11.3753,11.3984,11.4022,11.4445,11.5061,11.5533,11.561,11.633,11.71,11.7561,11.7907,11.8331,11.8792,11.9177,11.9331,11.9485,12.01,12.0216,11.9715,11.96,11.9908,12.0062,12.0523,12.0562,12.0562,12.0562,12.0562,12.0562,12.06,12.0793,12.1304,12.1062,12.0754,12.137,12.0742,12.0003,11.908,11.7193,11.5273,11.4347,11.3343,11.2436,11.2124,11.175,11.1552,11.1515,11.1772,11.2065,11.2139,11.2322,11.28,11.28,11.28,11.2543,11.2212,11.1845,11.1405,11.1148,11.0964,11.1221,11.1184,11.1111,11.0964,11.1001,11.1001,11.0524,11.0047,10.99,10.9569,10.9569,10.9312,10.8982,10.8982,10.9459,10.9349,10.8615,10.8652,10.8982,10.6395,10.6395,10.6395,10.6472,10.6587,10.6626,10.7059,10.7905,10.8752,10.9483,11.0137,11.1098,11.1511,11.1511,11.1511,11.1511,11.1511,11.1511,11.1511,11.1511,11.1511,11.1511,11.1511,11.1511,11.1588,11.1703,11.2252,11.2522,11.2549,11.2049,11.2368,11.3137,11.2906,11.2983,11.3753,11.3868,11.3907,11.4022,11.406,11.4445,11.5138,11.5918,11.6226,11.6611,11.71,11.7753,11.8138,11.8638,11.91,11.9292,11.9869,12.0139,12.0292,12.0946,12.1331,12.1343,12.1227,12.1035,12.0639,12.0946,12.1293,12.1254,12.1343,12.142,12.1304,12.1304,12.1381,12.1497,12.1408,12.137,12.1408,12.0831,12.035,11.966,11.8406,11.7056,11.6014,11.4412,11.3551,11.3278,11.3051,11.2228,11.1772,11.2102,11.2396,11.2432,11.2579,11.313,11.3483,11.3534,11.3167,11.2763,11.2286,11.1882,11.1515,11.1405,11.1221,11.1221,11.1221,11.1221,11.1221,11.1221,11.1221,11.0817,11.0671,11.045,11.0157,10.9863,10.9533,10.9606,10.9973,10.9533,10.8872,10.9202,10.9826,10.6395,10.6395,10.6395,10.6395,10.6395,10.6395,10.6587,10.7175,10.8367,10.9098,10.9713,11.0944,11.1511,11.1511,11.1511,11.1511,11.1511,11.1511,11.1511,11.1511,11.1511,11.1511,11.1511,11.1549,11.1626,11.2203,11.2626,11.3407,11.3483,11.3407,11.3407,11.383,11.3714,11.3868,11.4638,11.4753,11.5022,11.5291,11.5445,11.561,11.5984,11.6341,11.6765,11.7215,11.7638,11.8292,11.9061,11.9485,12.0062,12.0369,12.0946,12.1023,12.11,12.1381,12.1574,12.1574,12.1574,12.1381,12.1189,12.142,12.1535,12.1612,12.1612,12.1535,12.1574,12.1612,12.1612,12.1612,12.1612,12.1612,12.1574,12.1266,12.11,12.055,11.9469,11.869,11.7475,11.5768,11.4633,11.4472,11.4258,11.3507,11.2962,11.3277,11.3607,11.3607,11.3937,11.4488,11.4635,11.4525,11.3974,11.324,11.2726,11.2249,11.1882,11.1625,11.1295,11.1221,11.1221,11.1221,11.1221,11.1221,11.1221,11.1221,11.1001,11.0817,11.0597,11.0524,11.0377,11.0377,11.0414,11.0083,10.979,11.012,11.0634,10.6395,10.6395,10.6395,10.6395,10.6395,10.6395,10.6395,10.6587,10.8175,10.8906,10.9367,11.0675,11.1511,11.1511,11.1511,11.1511,11.1511,11.1511,11.1511,11.1511,11.1549,11.1637,11.1819,11.1895,11.2291,11.3022,11.3445,11.406,11.4676,11.4868,11.4638,11.4599,11.4484,11.483,11.5368,11.5599,11.583,11.6215,11.6292,11.633,11.6484,11.6715,11.7176,11.7715,11.8292,11.9023,12.01,12.0562,12.1023,12.1343,12.1458,12.1458,12.1535,12.1535,12.1612,12.1612,12.1612,12.1574,12.1497,12.1574,12.1574,12.1612,12.1612,12.1612,12.1612,12.1612,12.1612,12.1612,12.1612,12.1612,12.1574,12.1574,12.1497,12.1097,12.0466,11.9883,11.9119,11.764,11.6331,11.5876,11.5619,11.512,11.4736,11.485,11.4892,11.4855,11.5259,11.5736,11.5626,11.5332,11.4782,11.4011,11.3644,11.302,11.2249,11.1919,11.1552,11.1272,11.1295,11.1221,11.1221,11.1221,11.1221,11.1221,11.1221,11.1111,11.0928,11.1074,11.1184,11.0964,11.0817,11.1001,11.1038,11.1221,11.1184,10.6395,10.6395,10.6395,10.6395,10.6395,10.6395,10.6395,10.6549,10.8175,10.8944,10.9367,11.0637,11.1511,11.1511,11.1511,11.1511,11.1511,11.1511,11.1511,11.1511,11.1549,11.1983,11.2291,11.2637,11.3099,11.3907,11.4368,11.4868,11.5407,11.5869,11.6072,11.6264,11.5484,11.5753,11.6072,11.6215,11.6253,11.6484,11.6484,11.6484,11.6715,11.7138,11.7715,11.8138,11.9215,12.0216,12.0331,12.0985,12.137,12.1612,12.1612,12.1612,12.1612,12.1612,12.1612,12.1612,12.1612,12.1612,12.1612,12.1612,12.1612,12.1612,12.1612,12.1612,12.1612,12.1612,12.1612,12.1612,12.1612,12.1612,12.1612,12.1612,12.1612,12.1438,12.1051,12.076,12.0228,11.981,11.8547,11.7621,11.6839,11.6125,11.5627,11.5511,11.5369,11.5259,11.5222,11.5699,11.592,11.5699,11.5406,11.4929,11.4672,11.3937,11.2726,11.2322,11.2176,11.1772,11.1552,11.1368,11.1221,11.1221,11.1221,11.1221,11.1221,11.1221,11.1221,11.1221,11.1221,11.1221,11.1221,11.1221,11.1221,11.1221,11.1221,10.6395,10.6395,10.6395,10.6395,10.6395,10.6395,10.6395,10.6664,10.8175,10.956,11.0511,11.1203,11.1511,11.1511,11.1511,11.1511,11.1511,11.1511,11.1511,11.1703,11.1983,11.2406,11.2791,11.333,11.3945,11.4714,11.5226,11.5649,11.6099,11.638,11.6418,11.6341,11.6099,11.6215,11.6407,11.6484,11.6484,11.6495,11.6495,11.6495,11.6676,11.7369,11.8061,11.8715,11.9562,12.0562,12.1023,12.137,12.1535,12.1612,12.1612,12.1612,12.1612,12.1612,12.1612,12.1612,12.1651,12.1689,12.1689,12.1651,12.1612,12.1612,12.1612,12.1612,12.1689,12.1612,12.1612,12.1612,12.1612,12.1612,12.1612,12.1612,12.1612,12.1612,12.1503,12.1293,12.1029,12.0648,11.9893,11.8565,11.7593,11.6815,11.6344,11.5943,11.5773,11.5626,11.5589,11.5626,11.5846,11.5993,11.5699,11.5442,11.5185,11.4855,11.3717,11.324,11.2836,11.2396,11.1919,11.1808,11.1662,11.1221,11.1221,11.1221,11.1331,11.1405,11.1405,11.1258,11.1258,11.1368,11.1331,11.1221,11.1221,11.1295,11.1441,10.6395,10.6395,10.6395,10.6395,10.6395,10.6395,10.6549,10.7021,10.829,10.9867,11.1472,11.1511,11.1511,11.1511,11.1511,11.1511,11.1511,11.1511,11.1511,11.178,11.2214,11.2791,11.3291,11.3984,11.4791,11.5484,11.5676,11.6022,11.6369,11.6446,11.6484,11.6484,11.6484,11.6484,11.6484,11.6484,11.6484,11.6534,11.6792,11.6869,11.7023,11.8061,11.8754,11.9523,12.0292,12.0908,12.1381,12.1574,12.1574,12.1612,12.1612,12.1612,12.1612,12.1612,12.1612,12.1689,12.1831,12.1947,12.1985,12.1985,12.1985,12.21,12.2062,12.2062,12.1947,12.1766,12.1612,12.1612,12.1612,12.1612,12.1612,12.1612,12.1612,12.1612,12.1612,12.1429,12.1368,12.1067,12.0293,11.9332,11.8621,11.8075,11.7325,11.6836,11.6156,11.5978,11.581,11.581,11.5883,11.5993,11.5956,11.5736,11.5553,11.5185,11.4782,11.4231,11.3681,11.3116,11.2726,11.2543,11.2322,11.1882,11.1845,11.2212,11.2212,11.1845,11.1845,11.2029,11.1845,11.1625,11.1625,11.1698,11.1698,11.1845,11.2029,10.6395,10.6395,10.6395,10.6395,10.6395,10.6395,10.6818,10.7598,10.8598,10.9944,11.1395,11.1511,11.1511,11.1511,11.1511,11.1511,11.1511,11.1511,11.1511,11.1703,11.2522,11.3176,11.3945,11.4753,11.5561,11.6253,11.633,11.6292,11.6484,11.6484,11.6484,11.6484,11.6484,11.6484,11.6484,11.6484,11.6484,11.6599,11.7253,11.7446,11.7907,11.8985,11.9677,12.0216,12.0869,12.1458,12.1535,12.1612,12.1612,12.1612,12.1612,12.1612,12.1612,12.1612,12.1651,12.1793,12.2331,12.2678,12.2831,12.2831,12.287,12.287,12.287,12.287,12.2678,12.2293,12.1793,12.1985,12.1804,12.1727,12.1651,12.1689,12.1727,12.1908,12.1985,12.1819,12.176,12.1417,12.0689,11.9938,11.9961,11.9709,11.8709,11.7807,11.6793,11.6336,11.6071,11.5993,11.5993,11.5993,11.5993,11.592,11.5773,11.5589,11.5222,11.5002,11.4525,11.3923,11.3519,11.3313,11.3203,11.2946,11.302,11.3277,11.2983,11.2543,11.2689,11.2946,11.2726,11.2506,11.2396,11.2396,11.2359,11.2396,11.2616,10.6395,10.6395,10.6395,10.6395,10.6395,10.6395,10.6905,10.7867,10.9136,11.0444,11.1318,11.1511,11.1511,11.1511,11.1511,11.1511,11.1511,11.1511,11.1511,11.1703,11.2868,11.356,11.433,11.533,11.6187,11.6418,11.6484,11.6484,11.6484,11.6484,11.6484,11.6484,11.6484,11.6484,11.6484,11.6484,11.6484,11.6534,11.683,11.7176,11.7869,11.8985,11.9869,12.0369,12.1177,12.1574,12.1612,12.1612,12.1612,12.1612,12.1612,12.1612,12.1612,12.1612,12.1831,12.2062,12.2524,12.2331,12.287,12.3255,12.3678,12.3716,12.3716,12.3716,12.3601,12.3485,12.3024,12.2601,12.2447,12.2447,12.2485,12.2485,12.2639,12.3101,12.3101,12.2678,12.2411,12.1834,12.1143,12.0444,12.0162,11.95,11.8629,11.7999,11.714,11.6491,11.6185,11.6039,11.5993,11.5993,11.5993,11.5993,11.592,11.581,11.5663,11.5442,11.5149,11.4598,11.4268,11.4084,11.3974,11.3923,11.3776,11.3813,11.3556,11.3277,11.3497,11.3644,11.3607,11.3497,11.346,11.3277,11.3203,11.3203,11.3263,10.6395,10.6395,10.6395,10.6395,10.6433,10.6703,10.7482,10.8675,11.0021,11.0983,11.1395,11.1511,11.1511,11.1511,11.1511,11.1511,11.1511,11.1511,11.1819,11.2049,11.333,11.406,11.483,11.5715,11.6292,11.6484,11.6484,11.6484,11.6484,11.6484,11.6484,11.6484,11.6484,11.6484,11.6484,11.6484,11.6715,11.6984,11.7484,11.8061,11.8831,11.9638,12.0292,12.0793,12.1293,12.1612,12.1612,12.1612,12.1612,12.1612,12.1612,12.1612,12.1612,12.1689,12.192,12.2062,12.2716,12.2985,12.4216,12.4716,12.5101,12.5101,12.4793,12.4562,12.4447,12.4139,12.3793,12.3447,12.3358,12.3332,12.3332,12.3332,12.3524,12.3985,12.3832,12.3408,12.3216,12.2627,12.2207,12.142,12.1104,12.0079,11.8984,11.7978,11.7328,11.6751,11.6238,11.6153,11.603,11.5993,11.5993,11.5993,11.5993,11.592,11.5883,11.5846,11.5589,11.5259,11.5039,11.4818,11.4892,11.4892,11.4621,11.4327,11.4194,11.4121,11.4231,11.4341,11.4525,11.4598,11.4598,11.4415,11.4107,11.4033,11.4033,10.6395,10.6395,10.6395,10.6395,10.651,10.7328,10.8636,11.0175,11.1098,11.1472,11.1511,11.1511,11.1511,11.1511,11.1511,11.1511,11.1511,11.1511,11.1972,11.2637,11.356,11.433,11.5176,11.6034,11.6418,11.6484,11.6484,11.6484,11.6484,11.6484,11.6484,11.6484,11.6484,11.6484,11.6484,11.6561,11.6907,11.7484,11.8023,11.8792,11.9677,12.06,12.0985,12.1343,12.1535,12.1612,12.1612,12.1612,12.1612,12.1612,12.1612,12.1612,12.1612,12.1612,12.1612,12.2035,12.3101,12.4524,12.5486,12.5794,12.6294,12.6063,12.5755,12.5524,12.5293,12.4947,12.4601,12.4332,12.4178,12.4139,12.4139,12.4178,12.4255,12.4332,12.4332,12.4178,12.4139,12.382,12.3435,12.3111,12.3113,12.2335,12.1008,11.9826,11.8208,11.7424,11.6868,11.6218,11.6103,11.5993,11.5993,11.5993,11.5993,11.5993,11.5993,11.603,11.592,11.5589,11.5699,11.5589,11.5699,11.5663,11.5406,11.5149,11.5039,11.5002,11.5002,11.5259,11.5663,11.5663,11.5369,11.5259,11.4855,11.4855,11.4929,10.6395,10.6395,10.6395,10.6395,10.6587,10.7944,10.9213,11.0252,11.1098,11.1511,11.1511,11.1511,11.1511,11.1511,11.1511,11.1511,11.1511,11.1626,11.2049,11.2791,11.3714,11.4522,11.533,11.611,11.6418,11.6484,11.6484,11.6484,11.6484,11.6484,11.6484,11.6484,11.6484,11.6484,11.6484,11.6522,11.7138,11.7715,11.8292,11.9215,12.0023,12.0716,12.1139,12.1458,12.1574,12.1612,12.1612,12.1612,12.1612,12.1612,12.1612,12.1612,12.1612,12.1612,12.1612,12.1804,12.3024,12.437,12.487,12.5447,12.6063,12.6575,12.6409,12.6409,12.6217,12.5909,12.5524,12.5216,12.5024,12.5024,12.5024,12.5063,12.5216,12.537,12.5255,12.5024,12.4947,12.4678,12.4332,12.4207,12.4224,12.3495,12.2286,12.0943,11.94,11.8462,11.7608,11.6866,11.6213,11.6103,11.5993,11.5993,11.6213,11.625,11.614,11.6103,11.603,11.5956,11.603,11.603,11.592,11.5883,11.5956,11.5846,11.5553,11.5553,11.5663,11.592,11.5993,11.5993,11.5773,11.5773,11.5699,11.5553,11.5479,10.6395,10.6395,10.6395,10.6587,10.7136,10.8329,10.9406,11.0252,11.1098,11.1511,11.1511,11.1511,11.1511,11.1511,11.1511,11.1511,11.1549,11.1972,11.2522,11.3368,11.406,11.4984,11.5764,11.6226,11.6418,11.6484,11.6484,11.6484,11.6484,11.6484,11.6484,11.6484,11.6484,11.6484,11.6599,11.6907,11.7561,11.8061,11.86,11.9369,12.01,12.0754,12.1177,12.1458,12.1574,12.1612,12.1612,12.1612,12.1612,12.1612,12.1612,12.1612,12.1612,12.1612,12.1908,12.2177,12.2908,12.4024,12.4755,12.5178,12.587,12.6409,12.6717,12.6678,12.6652,12.6447,12.6217,12.5986,12.5947,12.5909,12.5909,12.5947,12.6267,12.6575,12.6267,12.5909,12.5678,12.5447,12.5231,12.5014,12.4597,12.3968,12.292,12.1716,12.0702,11.9927,11.8929,11.7886,11.6989,11.6213,11.6066,11.5993,11.6323,11.6617,11.6434,11.6287,11.6397,11.6323,11.6103,11.6103,11.603,11.603,11.6066,11.603,11.5956,11.5993,11.6066,11.5993,11.5993,11.6103,11.614,11.5993,11.592,11.5846,11.5846,10.6395,10.6395,10.6395,10.6856,10.7752,10.8559,10.9406,11.0263,11.1137,11.1511,11.1511,11.1511,11.1511,11.1511,11.1511,11.1511,11.1742,11.2175,11.2945,11.4022,11.4714,11.5522,11.611,11.6484,11.6484,11.6484,11.6484,11.6484,11.6484,11.6484,11.6484,11.6484,11.6676,11.6792,11.6907,11.733,11.8061,11.8985,11.9177,11.9677,12.0946,12.1535,12.1612,12.1574,12.1612,12.1612,12.1612,12.1612,12.1612,12.1612,12.1612,12.1612,12.1612,12.1612,12.2062,12.2562,12.3024,12.3832,12.4755,12.537,12.5947,12.6447,12.6717,12.6717,12.6717,12.6717,12.6524,12.6447,12.6371,12.6332,12.6332,12.6332,12.6575,12.669,12.6498,12.6332,12.6217,12.6101,12.6024,12.5808,12.5451,12.4866,12.463,12.35,12.1935,12.1301,12.0055,11.8825,11.7745,11.6627,11.6323,11.6213,11.6544,11.6837,11.6654,11.6617,11.6874,11.6764,11.636,11.6103,11.603,11.603,11.6103,11.6323,11.658,11.6397,11.636,11.647,11.6654,11.6617,11.658,11.625,11.614,11.6177,11.5993,10.6395,10.6395,10.6395,10.6905,10.7752,10.8559,10.9406,11.0252,11.1137,11.1511,11.1511,11.1511,11.1511,11.1511,11.1511,11.1511,11.1703,11.2483,11.3176,11.406,11.4945,11.5792,11.638,11.6484,11.6484,11.6484,11.6484,11.6484,11.6484,11.6484,11.6522,11.6599,11.6907,11.7215,11.7253,11.7715,11.8407,11.9562,11.9562,12.0062,12.1343,12.1612,12.1612,12.1612,12.1612,12.1612,12.1612,12.1612,12.1612,12.1612,12.1612,12.1612,12.1612,12.1612,12.1689,12.2062,12.2947,12.3755,12.4524,12.5409,12.614,12.6486,12.6717,12.6717,12.6717,12.6717,12.6717,12.6717,12.6717,12.6717,12.6717,12.6717,12.6717,12.6717,12.6717,12.6717,12.6717,12.6717,12.6717,12.6486,12.6178,12.6015,12.5864,12.4991,12.3459,12.1941,12.044,11.915,11.812,11.7168,11.6837,11.6727,11.6874,11.7021,11.6984,11.6984,11.7278,11.6837,11.6323,11.614,11.603,11.6507,11.6911,11.7168,11.7314,11.7131,11.7204,11.7608,11.7682,11.7425,11.7241,11.6984,11.6727,11.669,11.6323,10.6395,10.6395,10.6395,10.6905,10.7752,10.8559,10.9406,11.0252,11.1137,11.1511,11.1511,11.1511,11.1511,11.1511,11.1511,11.1511,11.1742,11.2791,11.3445,11.4176,11.5176,11.5945,11.6369,11.6484,11.6484,11.6484,11.6484,11.6484,11.6484,11.6484,11.6522,11.6599,11.7061,11.733,11.733,11.7638,11.8484,11.9638,11.9562,12.0369,12.1497,12.1612,12.1612,12.1612,12.1612,12.1612,12.1612,12.1612,12.1612,12.1612,12.1612,12.1612,12.1612,12.1612,12.1612,12.1831,12.2447,12.3332,12.4139,12.5024,12.6063,12.6409,12.6717,12.6717,12.6717,12.6717,12.6717,12.6717,12.6717,12.6717,12.6717,12.6717,12.6717,12.6717,12.6717,12.6717,12.6717,12.6717,12.6717,12.664,12.6447,12.6435,12.6324,12.6222,12.4699,12.3342,12.1698,12.0255,11.9054,11.7938,11.7571,11.7388,11.7571,11.7975,11.8306,11.8049,11.7718,11.7168,11.6507,11.6507,11.6654,11.7278,11.7792,11.7938,11.8012,11.7975,11.8122,11.8416,11.8342,11.8049,11.7902,11.7755,11.7498,11.7351,11.7204,10.6395,10.6395,10.6395,10.6895,10.7752,10.8559,10.9406,11.0252,11.1137,11.1511,11.1511,11.1511,11.1511,11.1511,11.1511,11.1511,11.1972,11.3137,11.3791,11.4445,11.5687,11.6226,11.6407,11.6484,11.6484,11.6484,11.6484,11.6484,11.6484,11.6484,11.6495,11.6534,11.6611,11.6726,11.6907,11.7561,11.8638,11.9485,11.9946,12.0677,12.1216,12.1612,12.1612,12.1612,12.1612,12.1612,12.1612,12.1612,12.1612,12.1612,12.1612,12.1612,12.1612,12.1612,12.1612,12.1766,12.2062,12.2985,12.3832,12.4524,12.5524,12.6217,12.6563,12.6717,12.6717,12.6717,12.6717,12.6717,12.6717,12.6717,12.6717,12.6717,12.6717,12.6717,12.6717,12.6717,12.6717,12.6717,12.6717,12.6717,12.6717,12.6717,12.6666,12.6642,12.5712,12.4412,12.3126,12.1835,12.0541,11.9413,11.8599,11.8452,11.8489,11.893,11.915,11.8966,11.8379,11.7902,11.7351,11.7241,11.7351,11.8085,11.8563,11.8599,11.8673,11.8856,11.8856,11.9003,11.8856,11.8819,11.8636,11.8563,11.8416,11.8269,11.8342,10.6395,10.6395,10.6395,10.6895,10.7752,10.8559,10.9406,11.0252,11.1137,11.1511,11.1511,11.1511,11.1511,11.1511,11.1511,11.1549,11.178,11.3214,11.3868,11.4253,11.5753,11.6303,11.6484,11.6484,11.6484,11.6484,11.6484,11.6484,11.6484,11.6484,11.6484,11.6495,11.7253,11.7484,11.7638,11.8292,11.8946,11.9638,12.01,12.0716,12.1343,12.1612,12.1612,12.1612,12.1612,12.1612,12.1612,12.1612,12.1612,12.1612,12.1612,12.1612,12.1612,12.1612,12.1612,12.1689,12.1985,12.2793,12.3639,12.4409,12.5447,12.6255,12.6575,12.6717,12.6717,12.6717,12.6717,12.6717,12.6717,12.6717,12.6717,12.6717,12.6717,12.6717,12.6717,12.6717,12.6717,12.6717,12.6717,12.6717,12.6717,12.6717,12.6666,12.6325,12.5631,12.4424,12.339,12.2104,12.0977,12.0232,11.9614,11.948,11.937,11.8893,11.8746,11.9333,11.904,11.8563,11.8269,11.8232,11.8452,11.904,11.937,11.9407,11.9737,12.0031,11.9957,11.9664,11.9957,11.9957,11.959,11.937,11.9223,11.9187,11.9187]}]]